<?xml version="1.0" encoding="UTF-8" standalone="no" ?>
<gpx xmlns="http://www.topografix.com/GPX/1/1" xmlns:xsi="http://www.w3.org/2001/XMLSchema-instance" xsi:schemaLocation="http://www.topografix.com/GPX/1/1 http://www.topografix.com/GPX/1/1/gpx.xsd" version="1.1" creator="VisuGPX - https://www.visugpx.com">
  <metadata>
    <name>Parnans</name>
    <desc><![CDATA[Les Hauteurs de Parnans]]></desc>
  </metadata>
  <trk>
    <name><![CDATA[Parnans]]></name>
    <cmt><![CDATA[Thierry2, Martine, Brigitte, Patrick, Gilbert, Bernard]]></cmt>
    <trkseg>
      <trkpt lat="45.11567" lon="4.96432">
        <ele>308.36700439453</ele>
        <time>2009-11-18T12:12:58Z</time>
      </trkpt>
      <trkpt lat="45.11566" lon="4.96432">
        <ele>309.42098999023</ele>
        <time>2009-11-18T12:13:05Z</time>
      </trkpt>
      <trkpt lat="45.11563" lon="4.96433">
        <ele>307.86700439453</ele>
        <time>2009-11-18T12:13:14Z</time>
      </trkpt>
      <trkpt lat="45.11581" lon="4.96438">
        <ele>307.40798950195</ele>
        <time>2009-11-18T12:13:19Z</time>
      </trkpt>
      <trkpt lat="45.11581" lon="4.96447">
        <ele>306.37600708008</ele>
        <time>2009-11-18T12:13:22Z</time>
      </trkpt>
      <trkpt lat="45.1158" lon="4.96456">
        <ele>306.43301391602</ele>
        <time>2009-11-18T12:13:26Z</time>
      </trkpt>
      <trkpt lat="45.11557" lon="4.96471">
        <ele>306.42300415039</ele>
        <time>2009-11-18T12:13:29Z</time>
      </trkpt>
      <trkpt lat="45.1158" lon="4.96456">
        <ele>306.25500488281</ele>
        <time>2009-11-18T12:13:34Z</time>
      </trkpt>
      <trkpt lat="45.11561" lon="4.96476">
        <ele>306.00299072266</ele>
        <time>2009-11-18T12:13:40Z</time>
      </trkpt>
      <trkpt lat="45.11568" lon="4.96488">
        <ele>304.98098754883</ele>
        <time>2009-11-18T12:13:46Z</time>
      </trkpt>
      <trkpt lat="45.11572" lon="4.96494">
        <ele>304.48999023438</ele>
        <time>2009-11-18T12:13:50Z</time>
      </trkpt>
      <trkpt lat="45.11572" lon="4.96494">
        <ele>304.05099487305</ele>
        <time>2009-11-18T12:13:53Z</time>
      </trkpt>
      <trkpt lat="45.11579" lon="4.96505">
        <ele>303.17098999023</ele>
        <time>2009-11-18T12:14:04Z</time>
      </trkpt>
      <trkpt lat="45.11592" lon="4.96537">
        <ele>302.61599731445</ele>
        <time>2009-11-18T12:14:11Z</time>
      </trkpt>
      <trkpt lat="45.116" lon="4.96555">
        <ele>302.50500488281</ele>
        <time>2009-11-18T12:14:14Z</time>
      </trkpt>
      <trkpt lat="45.11621" lon="4.96603">
        <ele>302.50201416016</ele>
        <time>2009-11-18T12:14:24Z</time>
      </trkpt>
      <trkpt lat="45.11652" lon="4.96683">
        <ele>301.99301147461</ele>
        <time>2009-11-18T12:14:33Z</time>
      </trkpt>
      <trkpt lat="45.11682" lon="4.96752">
        <ele>302.11898803711</ele>
        <time>2009-11-18T12:14:44Z</time>
      </trkpt>
      <trkpt lat="45.11715" lon="4.96804">
        <ele>302.36401367188</ele>
        <time>2009-11-18T12:14:53Z</time>
      </trkpt>
      <trkpt lat="45.11728" lon="4.96819">
        <ele>302.17999267578</ele>
        <time>2009-11-18T12:14:56Z</time>
      </trkpt>
      <trkpt lat="45.11737" lon="4.96831">
        <ele>301.78698730469</ele>
        <time>2009-11-18T12:14:59Z</time>
      </trkpt>
      <trkpt lat="45.11746" lon="4.9687">
        <ele>302.0950012207</ele>
        <time>2009-11-18T12:15:03Z</time>
      </trkpt>
      <trkpt lat="45.1176" lon="4.96906">
        <ele>302.20700073242</ele>
        <time>2009-11-18T12:15:07Z</time>
      </trkpt>
      <trkpt lat="45.11816" lon="4.96965">
        <ele>301.97198486328</ele>
        <time>2009-11-18T12:15:19Z</time>
      </trkpt>
      <trkpt lat="45.11828" lon="4.96983">
        <ele>301.48599243164</ele>
        <time>2009-11-18T12:15:22Z</time>
      </trkpt>
      <trkpt lat="45.1187" lon="4.97043">
        <ele>301.14898681641</ele>
        <time>2009-11-18T12:15:32Z</time>
      </trkpt>
      <trkpt lat="45.11883" lon="4.97063">
        <ele>300.90701293945</ele>
        <time>2009-11-18T12:15:36Z</time>
      </trkpt>
      <trkpt lat="45.1188" lon="4.9712">
        <ele>300.37100219727</ele>
        <time>2009-11-18T12:15:41Z</time>
      </trkpt>
      <trkpt lat="45.11879" lon="4.97159">
        <ele>299.22198486328</ele>
        <time>2009-11-18T12:15:45Z</time>
      </trkpt>
      <trkpt lat="45.11886" lon="4.97217">
        <ele>298.53201293945</ele>
        <time>2009-11-18T12:15:51Z</time>
      </trkpt>
      <trkpt lat="45.11905" lon="4.97325">
        <ele>297.55899047852</ele>
        <time>2009-11-18T12:16:03Z</time>
      </trkpt>
      <trkpt lat="45.11914" lon="4.97375">
        <ele>297.54000854492</ele>
        <time>2009-11-18T12:16:09Z</time>
      </trkpt>
      <trkpt lat="45.11927" lon="4.97448">
        <ele>297.26699829102</ele>
        <time>2009-11-18T12:16:18Z</time>
      </trkpt>
      <trkpt lat="45.11935" lon="4.97491">
        <ele>297.43200683594</ele>
        <time>2009-11-18T12:16:24Z</time>
      </trkpt>
      <trkpt lat="45.11943" lon="4.97535">
        <ele>297.49798583984</ele>
        <time>2009-11-18T12:16:31Z</time>
      </trkpt>
      <trkpt lat="45.1195" lon="4.97572">
        <ele>297.48699951172</ele>
        <time>2009-11-18T12:16:37Z</time>
      </trkpt>
      <trkpt lat="45.11954" lon="4.97602">
        <ele>297.55899047852</ele>
        <time>2009-11-18T12:16:41Z</time>
      </trkpt>
      <trkpt lat="45.11969" lon="4.97686">
        <ele>297.60598754883</ele>
        <time>2009-11-18T12:16:51Z</time>
      </trkpt>
      <trkpt lat="45.1199" lon="4.978">
        <ele>297.4049987793</ele>
        <time>2009-11-18T12:17:04Z</time>
      </trkpt>
      <trkpt lat="45.12004" lon="4.97876">
        <ele>297.89599609375</ele>
        <time>2009-11-18T12:17:13Z</time>
      </trkpt>
      <trkpt lat="45.12019" lon="4.97953">
        <ele>297.82699584961</ele>
        <time>2009-11-18T12:17:22Z</time>
      </trkpt>
      <trkpt lat="45.12036" lon="4.9803">
        <ele>297.99798583984</ele>
        <time>2009-11-18T12:17:31Z</time>
      </trkpt>
      <trkpt lat="45.12052" lon="4.98105">
        <ele>298.50500488281</ele>
        <time>2009-11-18T12:17:40Z</time>
      </trkpt>
      <trkpt lat="45.12059" lon="4.98138">
        <ele>298.21499633789</ele>
        <time>2009-11-18T12:17:44Z</time>
      </trkpt>
      <trkpt lat="45.12062" lon="4.98155">
        <ele>297.81799316406</ele>
        <time>2009-11-18T12:17:47Z</time>
      </trkpt>
      <trkpt lat="45.12081" lon="4.98134">
        <ele>297.25799560547</ele>
        <time>2009-11-18T12:17:50Z</time>
      </trkpt>
      <trkpt lat="45.12085" lon="4.98127">
        <ele>297.25201416016</ele>
        <time>2009-11-18T12:17:52Z</time>
      </trkpt>
      <trkpt lat="45.12132" lon="4.98204">
        <ele>297.06698608398</ele>
        <time>2009-11-18T12:17:54Z</time>
      </trkpt>
      <trkpt lat="45.12082" lon="4.98131">
        <ele>296.97100830078</ele>
        <time>2009-11-18T12:17:57Z</time>
      </trkpt>
      <trkpt lat="45.12082" lon="4.98131">
        <ele>296.78298950195</ele>
        <time>2009-11-18T12:17:59Z</time>
      </trkpt>
      <trkpt lat="45.12075" lon="4.98144">
        <ele>296.72100830078</ele>
        <time>2009-11-18T12:18:08Z</time>
      </trkpt>
      <trkpt lat="45.12071" lon="4.9815">
        <ele>296.54400634766</ele>
        <time>2009-11-18T12:18:12Z</time>
      </trkpt>
      <trkpt lat="45.12071" lon="4.9815">
        <ele>296.46200561523</ele>
        <time>2009-11-18T12:18:13Z</time>
      </trkpt>
      <trkpt lat="45.1207" lon="4.98151">
        <ele>295.15701293945</ele>
        <time>2009-11-18T12:18:39Z</time>
      </trkpt>
      <trkpt lat="45.12069" lon="4.98153">
        <ele>294.76000976562</ele>
        <time>2009-11-18T12:18:40Z</time>
      </trkpt>
      <trkpt lat="45.12068" lon="4.98154">
        <ele>295.08099365234</ele>
        <time>2009-11-18T12:18:41Z</time>
      </trkpt>
      <trkpt lat="45.12064" lon="4.98161">
        <ele>294.9049987793</ele>
        <time>2009-11-18T12:18:46Z</time>
      </trkpt>
      <trkpt lat="45.12065" lon="4.98186">
        <ele>295.11898803711</ele>
        <time>2009-11-18T12:18:48Z</time>
      </trkpt>
      <trkpt lat="45.12066" lon="4.98199">
        <ele>295.00601196289</ele>
        <time>2009-11-18T12:18:50Z</time>
      </trkpt>
      <trkpt lat="45.12064" lon="4.9826">
        <ele>295.67498779297</ele>
        <time>2009-11-18T12:18:58Z</time>
      </trkpt>
      <trkpt lat="45.12057" lon="4.9831">
        <ele>294.92300415039</ele>
        <time>2009-11-18T12:19:04Z</time>
      </trkpt>
      <trkpt lat="45.1205" lon="4.98364">
        <ele>295.67999267578</ele>
        <time>2009-11-18T12:19:11Z</time>
      </trkpt>
      <trkpt lat="45.12049" lon="4.98372">
        <ele>295.62899780273</ele>
        <time>2009-11-18T12:19:12Z</time>
      </trkpt>
      <trkpt lat="45.12046" lon="4.98389">
        <ele>295.74600219727</ele>
        <time>2009-11-18T12:19:16Z</time>
      </trkpt>
      <trkpt lat="45.12046" lon="4.98389">
        <ele>295.65899658203</ele>
        <time>2009-11-18T12:19:17Z</time>
      </trkpt>
      <trkpt lat="45.12046" lon="4.98389">
        <ele>295.56100463867</ele>
        <time>2009-11-18T12:19:19Z</time>
      </trkpt>
      <trkpt lat="45.12011" lon="4.98401">
        <ele>294.54800415039</ele>
        <time>2009-11-18T12:19:24Z</time>
      </trkpt>
      <trkpt lat="45.11988" lon="4.9839">
        <ele>293.56298828125</ele>
        <time>2009-11-18T12:19:28Z</time>
      </trkpt>
      <trkpt lat="45.11978" lon="4.98396">
        <ele>293.36401367188</ele>
        <time>2009-11-18T12:19:31Z</time>
      </trkpt>
      <trkpt lat="45.11978" lon="4.98402">
        <ele>293.47799682617</ele>
        <time>2009-11-18T12:19:32Z</time>
      </trkpt>
      <trkpt lat="45.11978" lon="4.98431">
        <ele>293.29299926758</ele>
        <time>2009-11-18T12:19:36Z</time>
      </trkpt>
      <trkpt lat="45.11995" lon="4.98393">
        <ele>293.81900024414</ele>
        <time>2009-11-18T12:19:39Z</time>
      </trkpt>
      <trkpt lat="45.12" lon="4.98396">
        <ele>293.42999267578</ele>
        <time>2009-11-18T12:19:42Z</time>
      </trkpt>
      <trkpt lat="45.12" lon="4.98396">
        <ele>293.38900756836</ele>
        <time>2009-11-18T12:19:43Z</time>
      </trkpt>
      <trkpt lat="45.12002" lon="4.98397">
        <ele>283.40100097656</ele>
        <time>2009-11-18T12:23:20Z</time>
      </trkpt>
      <trkpt lat="45.12004" lon="4.98397">
        <ele>283.33801269531</ele>
        <time>2009-11-18T12:23:23Z</time>
      </trkpt>
      <trkpt lat="45.12006" lon="4.98399">
        <ele>283.1960144043</ele>
        <time>2009-11-18T12:23:28Z</time>
      </trkpt>
      <trkpt lat="45.12006" lon="4.98399">
        <ele>278.87298583984</ele>
        <time>2009-11-18T12:25:25Z</time>
      </trkpt>
      <trkpt lat="45.12006" lon="4.98399">
        <ele>278.89999389648</ele>
        <time>2009-11-18T12:25:26Z</time>
      </trkpt>
      <trkpt lat="45.11978" lon="4.9844">
        <ele>264.4169921875</ele>
        <time>2009-11-18T12:31:49Z</time>
      </trkpt>
      <trkpt lat="45.11978" lon="4.98431">
        <ele>264.05599975586</ele>
        <time>2009-11-18T12:31:53Z</time>
      </trkpt>
      <trkpt lat="45.11978" lon="4.98422">
        <ele>263.66101074219</ele>
        <time>2009-11-18T12:31:56Z</time>
      </trkpt>
      <trkpt lat="45.1199" lon="4.9839">
        <ele>263.43399047852</ele>
        <time>2009-11-18T12:32:02Z</time>
      </trkpt>
      <trkpt lat="45.11978" lon="4.984">
        <ele>263.24700927734</ele>
        <time>2009-11-18T12:32:06Z</time>
      </trkpt>
      <trkpt lat="45.11987" lon="4.98389">
        <ele>263.00500488281</ele>
        <time>2009-11-18T12:32:10Z</time>
      </trkpt>
      <trkpt lat="45.12004" lon="4.98397">
        <ele>262.93798828125</ele>
        <time>2009-11-18T12:32:16Z</time>
      </trkpt>
      <trkpt lat="45.12025" lon="4.98408">
        <ele>263.98400878906</ele>
        <time>2009-11-18T12:32:23Z</time>
      </trkpt>
      <trkpt lat="45.12027" lon="4.98409">
        <ele>264.1789855957</ele>
        <time>2009-11-18T12:32:24Z</time>
      </trkpt>
      <trkpt lat="45.12025" lon="4.98439">
        <ele>263.98599243164</ele>
        <time>2009-11-18T12:32:28Z</time>
      </trkpt>
      <trkpt lat="45.1202" lon="4.98462">
        <ele>264.47299194336</ele>
        <time>2009-11-18T12:32:34Z</time>
      </trkpt>
      <trkpt lat="45.12017" lon="4.98508">
        <ele>263.80599975586</ele>
        <time>2009-11-18T12:32:38Z</time>
      </trkpt>
      <trkpt lat="45.12016" lon="4.98573">
        <ele>263.32501220703</ele>
        <time>2009-11-18T12:32:47Z</time>
      </trkpt>
      <trkpt lat="45.1202" lon="4.9864">
        <ele>263.24200439453</ele>
        <time>2009-11-18T12:32:56Z</time>
      </trkpt>
      <trkpt lat="45.12033" lon="4.98714">
        <ele>263.13000488281</ele>
        <time>2009-11-18T12:33:06Z</time>
      </trkpt>
      <trkpt lat="45.12054" lon="4.98792">
        <ele>262.85299682617</ele>
        <time>2009-11-18T12:33:17Z</time>
      </trkpt>
      <trkpt lat="45.12074" lon="4.9884">
        <ele>263.34899902344</ele>
        <time>2009-11-18T12:33:25Z</time>
      </trkpt>
      <trkpt lat="45.12095" lon="4.98892">
        <ele>263.375</ele>
        <time>2009-11-18T12:33:33Z</time>
      </trkpt>
      <trkpt lat="45.12127" lon="4.9895">
        <ele>263.89300537109</ele>
        <time>2009-11-18T12:33:43Z</time>
      </trkpt>
      <trkpt lat="45.12155" lon="4.98988">
        <ele>264.95401000977</ele>
        <time>2009-11-18T12:33:51Z</time>
      </trkpt>
      <trkpt lat="45.12199" lon="4.99042">
        <ele>267.43701171875</ele>
        <time>2009-11-18T12:34:04Z</time>
      </trkpt>
      <trkpt lat="45.12209" lon="4.99054">
        <ele>267.6780090332</ele>
        <time>2009-11-18T12:34:10Z</time>
      </trkpt>
      <trkpt lat="45.12214" lon="4.99099">
        <ele>267.27398681641</ele>
        <time>2009-11-18T12:34:14Z</time>
      </trkpt>
      <trkpt lat="45.12194" lon="4.99181">
        <ele>266.03698730469</ele>
        <time>2009-11-18T12:34:24Z</time>
      </trkpt>
      <trkpt lat="45.12172" lon="4.99265">
        <ele>265.09399414062</ele>
        <time>2009-11-18T12:34:34Z</time>
      </trkpt>
      <trkpt lat="45.12156" lon="4.99324">
        <ele>264.86099243164</ele>
        <time>2009-11-18T12:34:41Z</time>
      </trkpt>
      <trkpt lat="45.1214" lon="4.99387">
        <ele>264.85400390625</ele>
        <time>2009-11-18T12:34:49Z</time>
      </trkpt>
      <trkpt lat="45.1212" lon="4.99442">
        <ele>264.58200073242</ele>
        <time>2009-11-18T12:34:56Z</time>
      </trkpt>
      <trkpt lat="45.12098" lon="4.9949">
        <ele>265.18200683594</ele>
        <time>2009-11-18T12:35:03Z</time>
      </trkpt>
      <trkpt lat="45.12064" lon="4.99549">
        <ele>266.25399780273</ele>
        <time>2009-11-18T12:35:13Z</time>
      </trkpt>
      <trkpt lat="45.1203" lon="4.99611">
        <ele>266.14401245117</ele>
        <time>2009-11-18T12:35:23Z</time>
      </trkpt>
      <trkpt lat="45.11997" lon="4.99671">
        <ele>265.86898803711</ele>
        <time>2009-11-18T12:35:32Z</time>
      </trkpt>
      <trkpt lat="45.11959" lon="4.99738">
        <ele>265.40200805664</ele>
        <time>2009-11-18T12:35:42Z</time>
      </trkpt>
      <trkpt lat="45.11921" lon="4.9979">
        <ele>266.24899291992</ele>
        <time>2009-11-18T12:35:51Z</time>
      </trkpt>
      <trkpt lat="45.11888" lon="4.99826">
        <ele>268.01400756836</ele>
        <time>2009-11-18T12:35:59Z</time>
      </trkpt>
      <trkpt lat="45.11856" lon="4.99851">
        <ele>269.48999023438</ele>
        <time>2009-11-18T12:36:06Z</time>
      </trkpt>
      <trkpt lat="45.11818" lon="4.99868">
        <ele>271.67498779297</ele>
        <time>2009-11-18T12:36:15Z</time>
      </trkpt>
      <trkpt lat="45.11777" lon="4.99884">
        <ele>274.3210144043</ele>
        <time>2009-11-18T12:36:25Z</time>
      </trkpt>
      <trkpt lat="45.11765" lon="4.99889">
        <ele>274.84698486328</ele>
        <time>2009-11-18T12:36:28Z</time>
      </trkpt>
      <trkpt lat="45.11749" lon="4.99895">
        <ele>276.11898803711</ele>
        <time>2009-11-18T12:36:32Z</time>
      </trkpt>
      <trkpt lat="45.11737" lon="4.999">
        <ele>276.68701171875</ele>
        <time>2009-11-18T12:36:35Z</time>
      </trkpt>
      <trkpt lat="45.11711" lon="4.9991">
        <ele>278.1960144043</ele>
        <time>2009-11-18T12:36:42Z</time>
      </trkpt>
      <trkpt lat="45.11677" lon="4.99929">
        <ele>280.33801269531</ele>
        <time>2009-11-18T12:36:52Z</time>
      </trkpt>
      <trkpt lat="45.11647" lon="4.99956">
        <ele>282.12298583984</ele>
        <time>2009-11-18T12:37:01Z</time>
      </trkpt>
      <trkpt lat="45.11619" lon="4.9999">
        <ele>283.79299926758</ele>
        <time>2009-11-18T12:37:10Z</time>
      </trkpt>
      <trkpt lat="45.11589" lon="5.00035">
        <ele>284.76599121094</ele>
        <time>2009-11-18T12:37:21Z</time>
      </trkpt>
      <trkpt lat="45.11561" lon="5.00072">
        <ele>285.54699707031</ele>
        <time>2009-11-18T12:37:29Z</time>
      </trkpt>
      <trkpt lat="45.11513" lon="5.0012">
        <ele>285.57901000977</ele>
        <time>2009-11-18T12:37:40Z</time>
      </trkpt>
      <trkpt lat="45.11468" lon="5.0016">
        <ele>285.625</ele>
        <time>2009-11-18T12:37:49Z</time>
      </trkpt>
      <trkpt lat="45.11433" lon="5.00191">
        <ele>285.60501098633</ele>
        <time>2009-11-18T12:37:56Z</time>
      </trkpt>
      <trkpt lat="45.11417" lon="5.00205">
        <ele>285.47500610352</ele>
        <time>2009-11-18T12:37:59Z</time>
      </trkpt>
      <trkpt lat="45.1136" lon="5.00256">
        <ele>285.87899780273</ele>
        <time>2009-11-18T12:38:10Z</time>
      </trkpt>
      <trkpt lat="45.11308" lon="5.00302">
        <ele>286.24099731445</ele>
        <time>2009-11-18T12:38:20Z</time>
      </trkpt>
      <trkpt lat="45.11269" lon="5.00331">
        <ele>287.02700805664</ele>
        <time>2009-11-18T12:38:28Z</time>
      </trkpt>
      <trkpt lat="45.11221" lon="5.00355">
        <ele>288.79598999023</ele>
        <time>2009-11-18T12:38:38Z</time>
      </trkpt>
      <trkpt lat="45.11184" lon="5.00374">
        <ele>290.60800170898</ele>
        <time>2009-11-18T12:38:46Z</time>
      </trkpt>
      <trkpt lat="45.11138" lon="5.00399">
        <ele>292.5950012207</ele>
        <time>2009-11-18T12:38:56Z</time>
      </trkpt>
      <trkpt lat="45.1109" lon="5.00426">
        <ele>295.24899291992</ele>
        <time>2009-11-18T12:39:07Z</time>
      </trkpt>
      <trkpt lat="45.1104" lon="5.00458">
        <ele>297.72900390625</ele>
        <time>2009-11-18T12:39:19Z</time>
      </trkpt>
      <trkpt lat="45.10994" lon="5.00489">
        <ele>300.13598632812</ele>
        <time>2009-11-18T12:39:30Z</time>
      </trkpt>
      <trkpt lat="45.10961" lon="5.00512">
        <ele>301.53900146484</ele>
        <time>2009-11-18T12:39:38Z</time>
      </trkpt>
      <trkpt lat="45.10923" lon="5.00538">
        <ele>301.6969909668</ele>
        <time>2009-11-18T12:39:47Z</time>
      </trkpt>
      <trkpt lat="45.10883" lon="5.00558">
        <ele>300.15899658203</ele>
        <time>2009-11-18T12:39:55Z</time>
      </trkpt>
      <trkpt lat="45.10843" lon="5.00564">
        <ele>298.21200561523</ele>
        <time>2009-11-18T12:40:01Z</time>
      </trkpt>
      <trkpt lat="45.10818" lon="5.0057">
        <ele>296.06900024414</ele>
        <time>2009-11-18T12:40:04Z</time>
      </trkpt>
      <trkpt lat="45.1081" lon="5.00572">
        <ele>295.84399414062</ele>
        <time>2009-11-18T12:40:05Z</time>
      </trkpt>
      <trkpt lat="45.10793" lon="5.00575">
        <ele>294.63598632812</ele>
        <time>2009-11-18T12:40:07Z</time>
      </trkpt>
      <trkpt lat="45.1078" lon="5.00578">
        <ele>293.76501464844</ele>
        <time>2009-11-18T12:40:09Z</time>
      </trkpt>
      <trkpt lat="45.1077" lon="5.0058">
        <ele>293.33999633789</ele>
        <time>2009-11-18T12:40:12Z</time>
      </trkpt>
      <trkpt lat="45.1077" lon="5.0058">
        <ele>293.33898925781</ele>
        <time>2009-11-18T12:40:13Z</time>
      </trkpt>
      <trkpt lat="45.10766" lon="5.00581">
        <ele>292.60699462891</ele>
        <time>2009-11-18T12:40:24Z</time>
      </trkpt>
      <trkpt lat="45.10752" lon="5.00584">
        <ele>291.67098999023</ele>
        <time>2009-11-18T12:40:29Z</time>
      </trkpt>
      <trkpt lat="45.10729" lon="5.00589">
        <ele>290.14099121094</ele>
        <time>2009-11-18T12:40:34Z</time>
      </trkpt>
      <trkpt lat="45.10717" lon="5.00592">
        <ele>289.47799682617</ele>
        <time>2009-11-18T12:40:36Z</time>
      </trkpt>
      <trkpt lat="45.10704" lon="5.00595">
        <ele>288.54400634766</ele>
        <time>2009-11-18T12:40:38Z</time>
      </trkpt>
      <trkpt lat="45.1069" lon="5.00598">
        <ele>287.71798706055</ele>
        <time>2009-11-18T12:40:40Z</time>
      </trkpt>
      <trkpt lat="45.10674" lon="5.00601">
        <ele>287.0299987793</ele>
        <time>2009-11-18T12:40:42Z</time>
      </trkpt>
      <trkpt lat="45.10641" lon="5.00616">
        <ele>284.82299804688</ele>
        <time>2009-11-18T12:40:46Z</time>
      </trkpt>
      <trkpt lat="45.10598" lon="5.00644">
        <ele>282.58999633789</ele>
        <time>2009-11-18T12:40:51Z</time>
      </trkpt>
      <trkpt lat="45.10522" lon="5.00707">
        <ele>278.54299926758</ele>
        <time>2009-11-18T12:40:59Z</time>
      </trkpt>
      <trkpt lat="45.10503" lon="5.00723">
        <ele>277.75399780273</ele>
        <time>2009-11-18T12:41:01Z</time>
      </trkpt>
      <trkpt lat="45.10438" lon="5.00776">
        <ele>276.27700805664</ele>
        <time>2009-11-18T12:41:08Z</time>
      </trkpt>
      <trkpt lat="45.10382" lon="5.00827">
        <ele>275.63800048828</ele>
        <time>2009-11-18T12:41:15Z</time>
      </trkpt>
      <trkpt lat="45.10341" lon="5.00862">
        <ele>275.96798706055</ele>
        <time>2009-11-18T12:41:21Z</time>
      </trkpt>
      <trkpt lat="45.103" lon="5.00893">
        <ele>276.73098754883</ele>
        <time>2009-11-18T12:41:28Z</time>
      </trkpt>
      <trkpt lat="45.10278" lon="5.0091">
        <ele>277.10501098633</ele>
        <time>2009-11-18T12:41:32Z</time>
      </trkpt>
      <trkpt lat="45.1024" lon="5.00939">
        <ele>278.06900024414</ele>
        <time>2009-11-18T12:41:39Z</time>
      </trkpt>
      <trkpt lat="45.10218" lon="5.00966">
        <ele>278.22299194336</ele>
        <time>2009-11-18T12:41:44Z</time>
      </trkpt>
      <trkpt lat="45.10196" lon="5.00995">
        <ele>279.29901123047</ele>
        <time>2009-11-18T12:41:49Z</time>
      </trkpt>
      <trkpt lat="45.10158" lon="5.01049">
        <ele>279.25299072266</ele>
        <time>2009-11-18T12:41:58Z</time>
      </trkpt>
      <trkpt lat="45.10125" lon="5.01109">
        <ele>280.27600097656</ele>
        <time>2009-11-18T12:42:07Z</time>
      </trkpt>
      <trkpt lat="45.101" lon="5.01154">
        <ele>280.47299194336</ele>
        <time>2009-11-18T12:42:14Z</time>
      </trkpt>
      <trkpt lat="45.10086" lon="5.01214">
        <ele>280.75900268555</ele>
        <time>2009-11-18T12:42:21Z</time>
      </trkpt>
      <trkpt lat="45.10079" lon="5.01286">
        <ele>280.76699829102</ele>
        <time>2009-11-18T12:42:29Z</time>
      </trkpt>
      <trkpt lat="45.10069" lon="5.01387">
        <ele>280.01800537109</ele>
        <time>2009-11-18T12:42:39Z</time>
      </trkpt>
      <trkpt lat="45.10059" lon="5.01496">
        <ele>278.59899902344</ele>
        <time>2009-11-18T12:42:50Z</time>
      </trkpt>
      <trkpt lat="45.10052" lon="5.01609">
        <ele>277.82299804688</ele>
        <time>2009-11-18T12:43:01Z</time>
      </trkpt>
      <trkpt lat="45.1004" lon="5.01667">
        <ele>277.52398681641</ele>
        <time>2009-11-18T12:43:07Z</time>
      </trkpt>
      <trkpt lat="45.10016" lon="5.01741">
        <ele>278.10699462891</ele>
        <time>2009-11-18T12:43:15Z</time>
      </trkpt>
      <trkpt lat="45.0999" lon="5.01815">
        <ele>279.54501342773</ele>
        <time>2009-11-18T12:43:24Z</time>
      </trkpt>
      <trkpt lat="45.09968" lon="5.0188">
        <ele>280.91101074219</ele>
        <time>2009-11-18T12:43:33Z</time>
      </trkpt>
      <trkpt lat="45.09956" lon="5.01914">
        <ele>281.69198608398</ele>
        <time>2009-11-18T12:43:39Z</time>
      </trkpt>
      <trkpt lat="45.09943" lon="5.01952">
        <ele>282.14498901367</ele>
        <time>2009-11-18T12:43:47Z</time>
      </trkpt>
      <trkpt lat="45.09924" lon="5.02004">
        <ele>283.52499389648</ele>
        <time>2009-11-18T12:43:57Z</time>
      </trkpt>
      <trkpt lat="45.09901" lon="5.02067">
        <ele>285.66299438477</ele>
        <time>2009-11-18T12:44:08Z</time>
      </trkpt>
      <trkpt lat="45.0988" lon="5.02124">
        <ele>288.39001464844</ele>
        <time>2009-11-18T12:44:18Z</time>
      </trkpt>
      <trkpt lat="45.09878" lon="5.0213">
        <ele>288.65899658203</ele>
        <time>2009-11-18T12:44:19Z</time>
      </trkpt>
      <trkpt lat="45.09862" lon="5.02173">
        <ele>289.84698486328</ele>
        <time>2009-11-18T12:44:27Z</time>
      </trkpt>
      <trkpt lat="45.09853" lon="5.02223">
        <ele>291.79000854492</ele>
        <time>2009-11-18T12:44:36Z</time>
      </trkpt>
      <trkpt lat="45.0985" lon="5.02239">
        <ele>292.63800048828</ele>
        <time>2009-11-18T12:44:39Z</time>
      </trkpt>
      <trkpt lat="45.09846" lon="5.02261">
        <ele>293.66000366211</ele>
        <time>2009-11-18T12:44:43Z</time>
      </trkpt>
      <trkpt lat="45.09851" lon="5.02297">
        <ele>295.01400756836</ele>
        <time>2009-11-18T12:44:50Z</time>
      </trkpt>
      <trkpt lat="45.09861" lon="5.02341">
        <ele>296.7080078125</ele>
        <time>2009-11-18T12:44:58Z</time>
      </trkpt>
      <trkpt lat="45.09871" lon="5.02378">
        <ele>297.79000854492</ele>
        <time>2009-11-18T12:45:05Z</time>
      </trkpt>
      <trkpt lat="45.09883" lon="5.02421">
        <ele>296.89498901367</ele>
        <time>2009-11-18T12:45:12Z</time>
      </trkpt>
      <trkpt lat="45.09893" lon="5.02447">
        <ele>295.4700012207</ele>
        <time>2009-11-18T12:45:16Z</time>
      </trkpt>
      <trkpt lat="45.09904" lon="5.02478">
        <ele>294.00100708008</ele>
        <time>2009-11-18T12:45:20Z</time>
      </trkpt>
      <trkpt lat="45.09907" lon="5.02488">
        <ele>293.67498779297</ele>
        <time>2009-11-18T12:45:21Z</time>
      </trkpt>
      <trkpt lat="45.09927" lon="5.02524">
        <ele>290.55899047852</ele>
        <time>2009-11-18T12:45:25Z</time>
      </trkpt>
      <trkpt lat="45.09941" lon="5.02543">
        <ele>289.28500366211</ele>
        <time>2009-11-18T12:45:27Z</time>
      </trkpt>
      <trkpt lat="45.09948" lon="5.02553">
        <ele>288.74899291992</ele>
        <time>2009-11-18T12:45:28Z</time>
      </trkpt>
      <trkpt lat="45.09962" lon="5.02574">
        <ele>287.88101196289</ele>
        <time>2009-11-18T12:45:30Z</time>
      </trkpt>
      <trkpt lat="45.09972" lon="5.02598">
        <ele>286.94198608398</ele>
        <time>2009-11-18T12:45:32Z</time>
      </trkpt>
      <trkpt lat="45.09985" lon="5.02637">
        <ele>285.35800170898</ele>
        <time>2009-11-18T12:45:35Z</time>
      </trkpt>
      <trkpt lat="45.10003" lon="5.02669">
        <ele>283.72500610352</ele>
        <time>2009-11-18T12:45:38Z</time>
      </trkpt>
      <trkpt lat="45.1001" lon="5.02677">
        <ele>282.9169921875</ele>
        <time>2009-11-18T12:45:39Z</time>
      </trkpt>
      <trkpt lat="45.1004" lon="5.02714">
        <ele>279.91799926758</ele>
        <time>2009-11-18T12:45:43Z</time>
      </trkpt>
      <trkpt lat="45.10062" lon="5.0275">
        <ele>277.15301513672</ele>
        <time>2009-11-18T12:45:47Z</time>
      </trkpt>
      <trkpt lat="45.10064" lon="5.02786">
        <ele>275.05099487305</ele>
        <time>2009-11-18T12:45:50Z</time>
      </trkpt>
      <trkpt lat="45.1006" lon="5.02807">
        <ele>273.98400878906</ele>
        <time>2009-11-18T12:45:52Z</time>
      </trkpt>
      <trkpt lat="45.10054" lon="5.02815">
        <ele>273.25100708008</ele>
        <time>2009-11-18T12:45:53Z</time>
      </trkpt>
      <trkpt lat="45.10051" lon="5.0282">
        <ele>272.95199584961</ele>
        <time>2009-11-18T12:45:54Z</time>
      </trkpt>
      <trkpt lat="45.1004" lon="5.02831">
        <ele>272.44799804688</ele>
        <time>2009-11-18T12:45:57Z</time>
      </trkpt>
      <trkpt lat="45.10053" lon="5.02856">
        <ele>271.99899291992</ele>
        <time>2009-11-18T12:45:59Z</time>
      </trkpt>
      <trkpt lat="45.10045" lon="5.02883">
        <ele>270.34899902344</ele>
        <time>2009-11-18T12:46:03Z</time>
      </trkpt>
      <trkpt lat="45.10043" lon="5.02891">
        <ele>270.17199707031</ele>
        <time>2009-11-18T12:46:04Z</time>
      </trkpt>
      <trkpt lat="45.10032" lon="5.02931">
        <ele>268.24301147461</ele>
        <time>2009-11-18T12:46:08Z</time>
      </trkpt>
      <trkpt lat="45.10023" lon="5.02964">
        <ele>266.71099853516</ele>
        <time>2009-11-18T12:46:11Z</time>
      </trkpt>
      <trkpt lat="45.10009" lon="5.03012">
        <ele>264.93899536133</ele>
        <time>2009-11-18T12:46:15Z</time>
      </trkpt>
      <trkpt lat="45.09983" lon="5.03104">
        <ele>262.20300292969</ele>
        <time>2009-11-18T12:46:22Z</time>
      </trkpt>
      <trkpt lat="45.09957" lon="5.03195">
        <ele>260.65798950195</ele>
        <time>2009-11-18T12:46:29Z</time>
      </trkpt>
      <trkpt lat="45.0993" lon="5.03289">
        <ele>257.1369934082</ele>
        <time>2009-11-18T12:46:37Z</time>
      </trkpt>
      <trkpt lat="45.09909" lon="5.03365">
        <ele>253.99299621582</ele>
        <time>2009-11-18T12:46:43Z</time>
      </trkpt>
      <trkpt lat="45.09883" lon="5.03434">
        <ele>251.88200378418</ele>
        <time>2009-11-18T12:46:49Z</time>
      </trkpt>
      <trkpt lat="45.09851" lon="5.03488">
        <ele>252.12199401856</ele>
        <time>2009-11-18T12:46:55Z</time>
      </trkpt>
      <trkpt lat="45.09819" lon="5.03542">
        <ele>253.08799743652</ele>
        <time>2009-11-18T12:47:02Z</time>
      </trkpt>
      <trkpt lat="45.09808" lon="5.03565">
        <ele>253.10099792481</ele>
        <time>2009-11-18T12:47:05Z</time>
      </trkpt>
      <trkpt lat="45.09799" lon="5.03589">
        <ele>253.57200622559</ele>
        <time>2009-11-18T12:47:08Z</time>
      </trkpt>
      <trkpt lat="45.09792" lon="5.03613">
        <ele>254.05799865723</ele>
        <time>2009-11-18T12:47:11Z</time>
      </trkpt>
      <trkpt lat="45.09789" lon="5.0366">
        <ele>253.46200561523</ele>
        <time>2009-11-18T12:47:17Z</time>
      </trkpt>
      <trkpt lat="45.098" lon="5.03725">
        <ele>251.55599975586</ele>
        <time>2009-11-18T12:47:24Z</time>
      </trkpt>
      <trkpt lat="45.09816" lon="5.03803">
        <ele>250.1309967041</ele>
        <time>2009-11-18T12:47:32Z</time>
      </trkpt>
      <trkpt lat="45.0984" lon="5.03864">
        <ele>249.75</ele>
        <time>2009-11-18T12:47:39Z</time>
      </trkpt>
      <trkpt lat="45.09871" lon="5.03943">
        <ele>248.95700073242</ele>
        <time>2009-11-18T12:47:48Z</time>
      </trkpt>
      <trkpt lat="45.09884" lon="5.03979">
        <ele>248.76600646973</ele>
        <time>2009-11-18T12:47:52Z</time>
      </trkpt>
      <trkpt lat="45.09884" lon="5.04025">
        <ele>248.70599365234</ele>
        <time>2009-11-18T12:47:57Z</time>
      </trkpt>
      <trkpt lat="45.09882" lon="5.04034">
        <ele>248.44599914551</ele>
        <time>2009-11-18T12:47:58Z</time>
      </trkpt>
      <trkpt lat="45.09864" lon="5.04111">
        <ele>248.25300598144</ele>
        <time>2009-11-18T12:48:06Z</time>
      </trkpt>
      <trkpt lat="45.09845" lon="5.04147">
        <ele>248.51100158691</ele>
        <time>2009-11-18T12:48:11Z</time>
      </trkpt>
      <trkpt lat="45.0984" lon="5.04153">
        <ele>248.54699707031</ele>
        <time>2009-11-18T12:48:12Z</time>
      </trkpt>
      <trkpt lat="45.09794" lon="5.04208">
        <ele>248.31100463867</ele>
        <time>2009-11-18T12:48:21Z</time>
      </trkpt>
      <trkpt lat="45.09762" lon="5.04242">
        <ele>248.54899597168</ele>
        <time>2009-11-18T12:48:27Z</time>
      </trkpt>
      <trkpt lat="45.09725" lon="5.04281">
        <ele>249.55999755859</ele>
        <time>2009-11-18T12:48:38Z</time>
      </trkpt>
      <trkpt lat="45.09672" lon="5.04348">
        <ele>250.64900207519</ele>
        <time>2009-11-18T12:48:46Z</time>
      </trkpt>
      <trkpt lat="45.0965" lon="5.04385">
        <ele>250.84899902344</ele>
        <time>2009-11-18T12:48:52Z</time>
      </trkpt>
      <trkpt lat="45.09632" lon="5.04433">
        <ele>249.82099914551</ele>
        <time>2009-11-18T12:48:59Z</time>
      </trkpt>
      <trkpt lat="45.0963" lon="5.0444">
        <ele>248.8869934082</ele>
        <time>2009-11-18T12:49:04Z</time>
      </trkpt>
      <trkpt lat="45.09622" lon="5.04483">
        <ele>248.69099426269</ele>
        <time>2009-11-18T12:49:06Z</time>
      </trkpt>
      <trkpt lat="45.09618" lon="5.04503">
        <ele>247.97999572754</ele>
        <time>2009-11-18T12:49:09Z</time>
      </trkpt>
      <trkpt lat="45.09616" lon="5.04516">
        <ele>247.41400146484</ele>
        <time>2009-11-18T12:49:11Z</time>
      </trkpt>
      <trkpt lat="45.09615" lon="5.04523">
        <ele>247.1369934082</ele>
        <time>2009-11-18T12:49:12Z</time>
      </trkpt>
      <trkpt lat="45.09613" lon="5.0453">
        <ele>246.58799743652</ele>
        <time>2009-11-18T12:49:14Z</time>
      </trkpt>
      <trkpt lat="45.0958" lon="5.04578">
        <ele>245.78199768066</ele>
        <time>2009-11-18T12:49:20Z</time>
      </trkpt>
      <trkpt lat="45.09565" lon="5.04597">
        <ele>245.1130065918</ele>
        <time>2009-11-18T12:49:23Z</time>
      </trkpt>
      <trkpt lat="45.09559" lon="5.04601">
        <ele>244.83399963379</ele>
        <time>2009-11-18T12:49:24Z</time>
      </trkpt>
      <trkpt lat="45.09525" lon="5.04621">
        <ele>243.74099731445</ele>
        <time>2009-11-18T12:49:29Z</time>
      </trkpt>
      <trkpt lat="45.09499" lon="5.04634">
        <ele>242.88900756836</ele>
        <time>2009-11-18T12:49:33Z</time>
      </trkpt>
      <trkpt lat="45.09472" lon="5.04648">
        <ele>242.71699523926</ele>
        <time>2009-11-18T12:49:37Z</time>
      </trkpt>
      <trkpt lat="45.09458" lon="5.04655">
        <ele>242.01300048828</ele>
        <time>2009-11-18T12:49:39Z</time>
      </trkpt>
      <trkpt lat="45.09417" lon="5.04675">
        <ele>240.90899658203</ele>
        <time>2009-11-18T12:49:45Z</time>
      </trkpt>
      <trkpt lat="45.09378" lon="5.04695">
        <ele>240.59399414062</ele>
        <time>2009-11-18T12:49:50Z</time>
      </trkpt>
      <trkpt lat="45.09361" lon="5.04707">
        <ele>240.21000671387</ele>
        <time>2009-11-18T12:49:52Z</time>
      </trkpt>
      <trkpt lat="45.09343" lon="5.04721">
        <ele>239.40100097656</ele>
        <time>2009-11-18T12:49:54Z</time>
      </trkpt>
      <trkpt lat="45.09334" lon="5.04728">
        <ele>239.16600036621</ele>
        <time>2009-11-18T12:49:55Z</time>
      </trkpt>
      <trkpt lat="45.09313" lon="5.04745">
        <ele>237.58399963379</ele>
        <time>2009-11-18T12:49:58Z</time>
      </trkpt>
      <trkpt lat="45.09304" lon="5.04757">
        <ele>237.22900390625</ele>
        <time>2009-11-18T12:50:01Z</time>
      </trkpt>
      <trkpt lat="45.09297" lon="5.0477">
        <ele>237.14900207519</ele>
        <time>2009-11-18T12:50:06Z</time>
      </trkpt>
      <trkpt lat="45.09295" lon="5.04773">
        <ele>237</ele>
        <time>2009-11-18T12:50:07Z</time>
      </trkpt>
      <trkpt lat="45.09299" lon="5.04837">
        <ele>236.89100646973</ele>
        <time>2009-11-18T12:50:16Z</time>
      </trkpt>
      <trkpt lat="45.09296" lon="5.04872">
        <ele>237.03799438477</ele>
        <time>2009-11-18T12:50:21Z</time>
      </trkpt>
      <trkpt lat="45.09291" lon="5.04884">
        <ele>237.11399841309</ele>
        <time>2009-11-18T12:50:23Z</time>
      </trkpt>
      <trkpt lat="45.09274" lon="5.04925">
        <ele>237.88800048828</ele>
        <time>2009-11-18T12:50:30Z</time>
      </trkpt>
      <trkpt lat="45.09252" lon="5.04961">
        <ele>238.88400268555</ele>
        <time>2009-11-18T12:50:37Z</time>
      </trkpt>
      <trkpt lat="45.09242" lon="5.04985">
        <ele>240.02099609375</ele>
        <time>2009-11-18T12:50:41Z</time>
      </trkpt>
      <trkpt lat="45.09235" lon="5.05002">
        <ele>240.2559967041</ele>
        <time>2009-11-18T12:50:44Z</time>
      </trkpt>
      <trkpt lat="45.09241" lon="5.05044">
        <ele>241.25100708008</ele>
        <time>2009-11-18T12:50:50Z</time>
      </trkpt>
      <trkpt lat="45.09259" lon="5.05085">
        <ele>241.98599243164</ele>
        <time>2009-11-18T12:50:57Z</time>
      </trkpt>
      <trkpt lat="45.09278" lon="5.05126">
        <ele>242.73599243164</ele>
        <time>2009-11-18T12:51:06Z</time>
      </trkpt>
      <trkpt lat="45.09327" lon="5.05215">
        <ele>242.30599975586</ele>
        <time>2009-11-18T12:51:17Z</time>
      </trkpt>
      <trkpt lat="45.09365" lon="5.05285">
        <ele>241.6369934082</ele>
        <time>2009-11-18T12:51:27Z</time>
      </trkpt>
      <trkpt lat="45.09383" lon="5.05318">
        <ele>241.77400207519</ele>
        <time>2009-11-18T12:51:32Z</time>
      </trkpt>
      <trkpt lat="45.09409" lon="5.05373">
        <ele>241.78700256348</ele>
        <time>2009-11-18T12:51:40Z</time>
      </trkpt>
      <trkpt lat="45.09411" lon="5.05388">
        <ele>242.03799438477</ele>
        <time>2009-11-18T12:51:44Z</time>
      </trkpt>
      <trkpt lat="45.0942" lon="5.05442">
        <ele>241.9700012207</ele>
        <time>2009-11-18T12:51:50Z</time>
      </trkpt>
      <trkpt lat="45.09428" lon="5.05522">
        <ele>242.00399780273</ele>
        <time>2009-11-18T12:52:00Z</time>
      </trkpt>
      <trkpt lat="45.09432" lon="5.05597">
        <ele>242.75700378418</ele>
        <time>2009-11-18T12:52:09Z</time>
      </trkpt>
      <trkpt lat="45.09429" lon="5.0565">
        <ele>242.32899475098</ele>
        <time>2009-11-18T12:52:15Z</time>
      </trkpt>
      <trkpt lat="45.09415" lon="5.05745">
        <ele>240.92100524902</ele>
        <time>2009-11-18T12:52:25Z</time>
      </trkpt>
      <trkpt lat="45.09398" lon="5.0582">
        <ele>240.13200378418</ele>
        <time>2009-11-18T12:52:33Z</time>
      </trkpt>
      <trkpt lat="45.09385" lon="5.05884">
        <ele>239.93800354004</ele>
        <time>2009-11-18T12:52:40Z</time>
      </trkpt>
      <trkpt lat="45.09373" lon="5.05968">
        <ele>239.93299865723</ele>
        <time>2009-11-18T12:52:49Z</time>
      </trkpt>
      <trkpt lat="45.09369" lon="5.06046">
        <ele>239.74600219727</ele>
        <time>2009-11-18T12:52:58Z</time>
      </trkpt>
      <trkpt lat="45.09369" lon="5.06126">
        <ele>240.14300537109</ele>
        <time>2009-11-18T12:53:07Z</time>
      </trkpt>
      <trkpt lat="45.09369" lon="5.06213">
        <ele>241.52099609375</ele>
        <time>2009-11-18T12:53:17Z</time>
      </trkpt>
      <trkpt lat="45.09369" lon="5.06304">
        <ele>242.09199523926</ele>
        <time>2009-11-18T12:53:28Z</time>
      </trkpt>
      <trkpt lat="45.09369" lon="5.06361">
        <ele>242.34700012207</ele>
        <time>2009-11-18T12:53:35Z</time>
      </trkpt>
      <trkpt lat="45.09373" lon="5.06456">
        <ele>243.09700012207</ele>
        <time>2009-11-18T12:53:46Z</time>
      </trkpt>
      <trkpt lat="45.09376" lon="5.06539">
        <ele>243.22500610352</ele>
        <time>2009-11-18T12:53:56Z</time>
      </trkpt>
      <trkpt lat="45.09375" lon="5.066">
        <ele>243.44299316406</ele>
        <time>2009-11-18T12:54:03Z</time>
      </trkpt>
      <trkpt lat="45.09371" lon="5.06677">
        <ele>243.66999816894</ele>
        <time>2009-11-18T12:54:12Z</time>
      </trkpt>
      <trkpt lat="45.0937" lon="5.06745">
        <ele>244.59700012207</ele>
        <time>2009-11-18T12:54:20Z</time>
      </trkpt>
      <trkpt lat="45.09372" lon="5.06819">
        <ele>244.78399658203</ele>
        <time>2009-11-18T12:54:29Z</time>
      </trkpt>
      <trkpt lat="45.09376" lon="5.06905">
        <ele>245.35000610352</ele>
        <time>2009-11-18T12:54:39Z</time>
      </trkpt>
      <trkpt lat="45.09378" lon="5.06963">
        <ele>246.31599426269</ele>
        <time>2009-11-18T12:54:46Z</time>
      </trkpt>
      <trkpt lat="45.09379" lon="5.06995">
        <ele>246.65600585938</ele>
        <time>2009-11-18T12:54:50Z</time>
      </trkpt>
      <trkpt lat="45.09383" lon="5.07071">
        <ele>248.08399963379</ele>
        <time>2009-11-18T12:55:00Z</time>
      </trkpt>
      <trkpt lat="45.09384" lon="5.07102">
        <ele>248.68299865723</ele>
        <time>2009-11-18T12:55:04Z</time>
      </trkpt>
      <trkpt lat="45.09385" lon="5.07124">
        <ele>248.86799621582</ele>
        <time>2009-11-18T12:55:07Z</time>
      </trkpt>
      <trkpt lat="45.09383" lon="5.07145">
        <ele>249.25900268555</ele>
        <time>2009-11-18T12:55:10Z</time>
      </trkpt>
      <trkpt lat="45.09373" lon="5.0718">
        <ele>250.15699768066</ele>
        <time>2009-11-18T12:55:15Z</time>
      </trkpt>
      <trkpt lat="45.09364" lon="5.0719">
        <ele>250.24099731445</ele>
        <time>2009-11-18T12:55:18Z</time>
      </trkpt>
      <trkpt lat="45.09349" lon="5.07202">
        <ele>250.25300598144</ele>
        <time>2009-11-18T12:55:21Z</time>
      </trkpt>
      <trkpt lat="45.09329" lon="5.07222">
        <ele>249.75500488281</ele>
        <time>2009-11-18T12:55:25Z</time>
      </trkpt>
      <trkpt lat="45.09297" lon="5.07293">
        <ele>248.65800476074</ele>
        <time>2009-11-18T12:55:34Z</time>
      </trkpt>
      <trkpt lat="45.09272" lon="5.07349">
        <ele>248.79600524902</ele>
        <time>2009-11-18T12:55:41Z</time>
      </trkpt>
      <trkpt lat="45.09241" lon="5.07411">
        <ele>249.13499450684</ele>
        <time>2009-11-18T12:55:50Z</time>
      </trkpt>
      <trkpt lat="45.09211" lon="5.07473">
        <ele>249.92900085449</ele>
        <time>2009-11-18T12:55:59Z</time>
      </trkpt>
      <trkpt lat="45.0918" lon="5.07536">
        <ele>251.53100585938</ele>
        <time>2009-11-18T12:56:09Z</time>
      </trkpt>
      <trkpt lat="45.09148" lon="5.076">
        <ele>252.51899719238</ele>
        <time>2009-11-18T12:56:19Z</time>
      </trkpt>
      <trkpt lat="45.09118" lon="5.07661">
        <ele>253.83200073242</ele>
        <time>2009-11-18T12:56:29Z</time>
      </trkpt>
      <trkpt lat="45.0909" lon="5.07694">
        <ele>254.66000366211</ele>
        <time>2009-11-18T12:56:36Z</time>
      </trkpt>
      <trkpt lat="45.0905" lon="5.0773">
        <ele>255.44000244141</ele>
        <time>2009-11-18T12:56:45Z</time>
      </trkpt>
      <trkpt lat="45.09004" lon="5.0777">
        <ele>254.73300170898</ele>
        <time>2009-11-18T12:56:55Z</time>
      </trkpt>
      <trkpt lat="45.08968" lon="5.07802">
        <ele>253.83500671387</ele>
        <time>2009-11-18T12:57:02Z</time>
      </trkpt>
      <trkpt lat="45.08943" lon="5.07816">
        <ele>253.4109954834</ele>
        <time>2009-11-18T12:57:06Z</time>
      </trkpt>
      <trkpt lat="45.08892" lon="5.07843">
        <ele>251.30299377441</ele>
        <time>2009-11-18T12:57:14Z</time>
      </trkpt>
      <trkpt lat="45.08875" lon="5.07863">
        <ele>250.85000610352</ele>
        <time>2009-11-18T12:57:17Z</time>
      </trkpt>
      <trkpt lat="45.08864" lon="5.07876">
        <ele>249.86399841309</ele>
        <time>2009-11-18T12:57:19Z</time>
      </trkpt>
      <trkpt lat="45.08844" lon="5.07909">
        <ele>248.29299926758</ele>
        <time>2009-11-18T12:57:23Z</time>
      </trkpt>
      <trkpt lat="45.08838" lon="5.07929">
        <ele>247.65600585938</ele>
        <time>2009-11-18T12:57:25Z</time>
      </trkpt>
      <trkpt lat="45.0882" lon="5.0802">
        <ele>244.60400390625</ele>
        <time>2009-11-18T12:57:33Z</time>
      </trkpt>
      <trkpt lat="45.08807" lon="5.08087">
        <ele>242.22300720215</ele>
        <time>2009-11-18T12:57:39Z</time>
      </trkpt>
      <trkpt lat="45.08794" lon="5.08177">
        <ele>239.50500488281</ele>
        <time>2009-11-18T12:57:47Z</time>
      </trkpt>
      <trkpt lat="45.08785" lon="5.08234">
        <ele>237.21800231934</ele>
        <time>2009-11-18T12:57:52Z</time>
      </trkpt>
      <trkpt lat="45.08776" lon="5.08293">
        <ele>235.04600524902</ele>
        <time>2009-11-18T12:57:57Z</time>
      </trkpt>
      <trkpt lat="45.0877" lon="5.08329">
        <ele>233.77600097656</ele>
        <time>2009-11-18T12:58:00Z</time>
      </trkpt>
      <trkpt lat="45.08759" lon="5.08401">
        <ele>230.77200317383</ele>
        <time>2009-11-18T12:58:06Z</time>
      </trkpt>
      <trkpt lat="45.08759" lon="5.08401">
        <ele>230.53900146484</ele>
        <time>2009-11-18T12:58:07Z</time>
      </trkpt>
      <trkpt lat="45.08749" lon="5.08518">
        <ele>227.35299682617</ele>
        <time>2009-11-18T12:58:15Z</time>
      </trkpt>
      <trkpt lat="45.08746" lon="5.08551">
        <ele>226.89100646973</ele>
        <time>2009-11-18T12:58:18Z</time>
      </trkpt>
      <trkpt lat="45.08744" lon="5.08571">
        <ele>225.89100646973</ele>
        <time>2009-11-18T12:58:20Z</time>
      </trkpt>
      <trkpt lat="45.08742" lon="5.08594">
        <ele>225.02299499512</ele>
        <time>2009-11-18T12:58:24Z</time>
      </trkpt>
      <trkpt lat="45.08717" lon="5.08709">
        <ele>223.23899841309</ele>
        <time>2009-11-18T12:58:33Z</time>
      </trkpt>
      <trkpt lat="45.08704" lon="5.0876">
        <ele>222.30700683594</ele>
        <time>2009-11-18T12:58:38Z</time>
      </trkpt>
      <trkpt lat="45.08678" lon="5.08851">
        <ele>220.65400695801</ele>
        <time>2009-11-18T12:58:47Z</time>
      </trkpt>
      <trkpt lat="45.08667" lon="5.08891">
        <ele>220.31100463867</ele>
        <time>2009-11-18T12:58:51Z</time>
      </trkpt>
      <trkpt lat="45.08654" lon="5.08919">
        <ele>219.95799255371</ele>
        <time>2009-11-18T12:58:54Z</time>
      </trkpt>
      <trkpt lat="45.0865" lon="5.08927">
        <ele>219.83200073242</ele>
        <time>2009-11-18T12:58:55Z</time>
      </trkpt>
      <trkpt lat="45.08635" lon="5.08954">
        <ele>219.00999450684</ele>
        <time>2009-11-18T12:59:00Z</time>
      </trkpt>
      <trkpt lat="45.08599" lon="5.09042">
        <ele>218.32400512695</ele>
        <time>2009-11-18T12:59:08Z</time>
      </trkpt>
      <trkpt lat="45.08581" lon="5.091">
        <ele>218.00100708008</ele>
        <time>2009-11-18T12:59:14Z</time>
      </trkpt>
      <trkpt lat="45.08563" lon="5.09159">
        <ele>216.69299316406</ele>
        <time>2009-11-18T12:59:20Z</time>
      </trkpt>
      <trkpt lat="45.08557" lon="5.09177">
        <ele>216.56100463867</ele>
        <time>2009-11-18T12:59:22Z</time>
      </trkpt>
      <trkpt lat="45.08551" lon="5.09196">
        <ele>216.28799438477</ele>
        <time>2009-11-18T12:59:24Z</time>
      </trkpt>
      <trkpt lat="45.08526" lon="5.09245">
        <ele>215.67799377441</ele>
        <time>2009-11-18T12:59:30Z</time>
      </trkpt>
      <trkpt lat="45.08511" lon="5.09268">
        <ele>215.27499389648</ele>
        <time>2009-11-18T12:59:33Z</time>
      </trkpt>
      <trkpt lat="45.08488" lon="5.09311">
        <ele>215.04200744629</ele>
        <time>2009-11-18T12:59:38Z</time>
      </trkpt>
      <trkpt lat="45.08474" lon="5.09363">
        <ele>214.39300537109</ele>
        <time>2009-11-18T12:59:43Z</time>
      </trkpt>
      <trkpt lat="45.08464" lon="5.09435">
        <ele>214.03300476074</ele>
        <time>2009-11-18T12:59:50Z</time>
      </trkpt>
      <trkpt lat="45.08452" lon="5.0952">
        <ele>213.70100402832</ele>
        <time>2009-11-18T12:59:59Z</time>
      </trkpt>
      <trkpt lat="45.08454" lon="5.09549">
        <ele>214.15800476074</ele>
        <time>2009-11-18T13:00:02Z</time>
      </trkpt>
      <trkpt lat="45.08469" lon="5.09595">
        <ele>214.31700134277</ele>
        <time>2009-11-18T13:00:07Z</time>
      </trkpt>
      <trkpt lat="45.08489" lon="5.09644">
        <ele>214.41999816894</ele>
        <time>2009-11-18T13:00:12Z</time>
      </trkpt>
      <trkpt lat="45.08496" lon="5.09662">
        <ele>213.99899291992</ele>
        <time>2009-11-18T13:00:14Z</time>
      </trkpt>
      <trkpt lat="45.08531" lon="5.09754">
        <ele>215.30200195312</ele>
        <time>2009-11-18T13:00:25Z</time>
      </trkpt>
      <trkpt lat="45.08556" lon="5.09831">
        <ele>215.24499511719</ele>
        <time>2009-11-18T13:00:34Z</time>
      </trkpt>
      <trkpt lat="45.08577" lon="5.0991">
        <ele>214.85000610352</ele>
        <time>2009-11-18T13:00:43Z</time>
      </trkpt>
      <trkpt lat="45.08604" lon="5.10007">
        <ele>215.72999572754</ele>
        <time>2009-11-18T13:00:54Z</time>
      </trkpt>
      <trkpt lat="45.08625" lon="5.10092">
        <ele>216.57800292969</ele>
        <time>2009-11-18T13:01:04Z</time>
      </trkpt>
      <trkpt lat="45.08647" lon="5.10188">
        <ele>217.22399902344</ele>
        <time>2009-11-18T13:01:15Z</time>
      </trkpt>
      <trkpt lat="45.08665" lon="5.10274">
        <ele>216.48100280762</ele>
        <time>2009-11-18T13:01:24Z</time>
      </trkpt>
      <trkpt lat="45.08696" lon="5.10384">
        <ele>215.85600280762</ele>
        <time>2009-11-18T13:01:35Z</time>
      </trkpt>
      <trkpt lat="45.08711" lon="5.10441">
        <ele>215.1609954834</ele>
        <time>2009-11-18T13:01:41Z</time>
      </trkpt>
      <trkpt lat="45.08733" lon="5.10535">
        <ele>214.81599426269</ele>
        <time>2009-11-18T13:01:50Z</time>
      </trkpt>
      <trkpt lat="45.08755" lon="5.10627">
        <ele>214.28300476074</ele>
        <time>2009-11-18T13:01:59Z</time>
      </trkpt>
      <trkpt lat="45.08776" lon="5.10717">
        <ele>213.62399291992</ele>
        <time>2009-11-18T13:02:08Z</time>
      </trkpt>
      <trkpt lat="45.08781" lon="5.1081">
        <ele>213.74800109863</ele>
        <time>2009-11-18T13:02:17Z</time>
      </trkpt>
      <trkpt lat="45.08786" lon="5.10926">
        <ele>213.44900512695</ele>
        <time>2009-11-18T13:02:28Z</time>
      </trkpt>
      <trkpt lat="45.08797" lon="5.11018">
        <ele>213.39900207519</ele>
        <time>2009-11-18T13:02:37Z</time>
      </trkpt>
      <trkpt lat="45.08809" lon="5.11087">
        <ele>212.75199890137</ele>
        <time>2009-11-18T13:02:44Z</time>
      </trkpt>
      <trkpt lat="45.0882" lon="5.11155">
        <ele>213.35499572754</ele>
        <time>2009-11-18T13:02:51Z</time>
      </trkpt>
      <trkpt lat="45.08828" lon="5.11234">
        <ele>213.93499755859</ele>
        <time>2009-11-18T13:02:59Z</time>
      </trkpt>
      <trkpt lat="45.08837" lon="5.11323">
        <ele>214.6609954834</ele>
        <time>2009-11-18T13:03:08Z</time>
      </trkpt>
      <trkpt lat="45.08847" lon="5.11432">
        <ele>215.22700500488</ele>
        <time>2009-11-18T13:03:19Z</time>
      </trkpt>
      <trkpt lat="45.08853" lon="5.11489">
        <ele>215.48399353027</ele>
        <time>2009-11-18T13:03:25Z</time>
      </trkpt>
      <trkpt lat="45.0886" lon="5.11556">
        <ele>216.26800537109</ele>
        <time>2009-11-18T13:03:32Z</time>
      </trkpt>
      <trkpt lat="45.08866" lon="5.11642">
        <ele>216.52499389648</ele>
        <time>2009-11-18T13:03:41Z</time>
      </trkpt>
      <trkpt lat="45.08875" lon="5.11764">
        <ele>216.14100646973</ele>
        <time>2009-11-18T13:03:53Z</time>
      </trkpt>
      <trkpt lat="45.08883" lon="5.11885">
        <ele>216.43699645996</ele>
        <time>2009-11-18T13:04:05Z</time>
      </trkpt>
      <trkpt lat="45.08892" lon="5.12022">
        <ele>217.33799743652</ele>
        <time>2009-11-18T13:04:19Z</time>
      </trkpt>
      <trkpt lat="45.08899" lon="5.12119">
        <ele>217.84700012207</ele>
        <time>2009-11-18T13:04:29Z</time>
      </trkpt>
      <trkpt lat="45.08904" lon="5.1224">
        <ele>220.11599731445</ele>
        <time>2009-11-18T13:04:42Z</time>
      </trkpt>
      <trkpt lat="45.08909" lon="5.12341">
        <ele>220.6190032959</ele>
        <time>2009-11-18T13:04:53Z</time>
      </trkpt>
      <trkpt lat="45.08913" lon="5.12426">
        <ele>221.80900573731</ele>
        <time>2009-11-18T13:05:03Z</time>
      </trkpt>
      <trkpt lat="45.08912" lon="5.12495">
        <ele>223.07899475098</ele>
        <time>2009-11-18T13:05:11Z</time>
      </trkpt>
      <trkpt lat="45.08905" lon="5.12538">
        <ele>223.63800048828</ele>
        <time>2009-11-18T13:05:17Z</time>
      </trkpt>
      <trkpt lat="45.08875" lon="5.12618">
        <ele>223.66999816894</ele>
        <time>2009-11-18T13:05:26Z</time>
      </trkpt>
      <trkpt lat="45.08857" lon="5.12681">
        <ele>222.50500488281</ele>
        <time>2009-11-18T13:05:33Z</time>
      </trkpt>
      <trkpt lat="45.0884" lon="5.12737">
        <ele>221.72399902344</ele>
        <time>2009-11-18T13:05:39Z</time>
      </trkpt>
      <trkpt lat="45.0882" lon="5.12813">
        <ele>221.00399780273</ele>
        <time>2009-11-18T13:05:47Z</time>
      </trkpt>
      <trkpt lat="45.08806" lon="5.12881">
        <ele>219.97599792481</ele>
        <time>2009-11-18T13:05:54Z</time>
      </trkpt>
      <trkpt lat="45.08802" lon="5.12931">
        <ele>219.06900024414</ele>
        <time>2009-11-18T13:05:59Z</time>
      </trkpt>
      <trkpt lat="45.08796" lon="5.12961">
        <ele>218.56700134277</ele>
        <time>2009-11-18T13:06:02Z</time>
      </trkpt>
      <trkpt lat="45.08789" lon="5.12984">
        <ele>217.65600585938</ele>
        <time>2009-11-18T13:06:06Z</time>
      </trkpt>
      <trkpt lat="45.08796" lon="5.13017">
        <ele>217.38200378418</ele>
        <time>2009-11-18T13:06:09Z</time>
      </trkpt>
      <trkpt lat="45.08792" lon="5.13061">
        <ele>216.83399963379</ele>
        <time>2009-11-18T13:06:15Z</time>
      </trkpt>
      <trkpt lat="45.0879" lon="5.13075">
        <ele>217.42799377441</ele>
        <time>2009-11-18T13:06:17Z</time>
      </trkpt>
      <trkpt lat="45.08776" lon="5.13133">
        <ele>217.12100219727</ele>
        <time>2009-11-18T13:06:25Z</time>
      </trkpt>
      <trkpt lat="45.08772" lon="5.1315">
        <ele>217.20700073242</ele>
        <time>2009-11-18T13:06:28Z</time>
      </trkpt>
      <trkpt lat="45.08776" lon="5.13154">
        <ele>217.08399963379</ele>
        <time>2009-11-18T13:06:32Z</time>
      </trkpt>
      <trkpt lat="45.08784" lon="5.13159">
        <ele>217.5059967041</ele>
        <time>2009-11-18T13:06:36Z</time>
      </trkpt>
      <trkpt lat="45.08797" lon="5.13166">
        <ele>217.6190032959</ele>
        <time>2009-11-18T13:06:39Z</time>
      </trkpt>
      <trkpt lat="45.08806" lon="5.13169">
        <ele>218.16999816894</ele>
        <time>2009-11-18T13:06:41Z</time>
      </trkpt>
      <trkpt lat="45.08827" lon="5.13169">
        <ele>218.36999511719</ele>
        <time>2009-11-18T13:06:45Z</time>
      </trkpt>
      <trkpt lat="45.08861" lon="5.13159">
        <ele>219.08599853516</ele>
        <time>2009-11-18T13:06:52Z</time>
      </trkpt>
      <trkpt lat="45.08879" lon="5.13149">
        <ele>220.24200439453</ele>
        <time>2009-11-18T13:06:56Z</time>
      </trkpt>
      <trkpt lat="45.08899" lon="5.13152">
        <ele>220.93400573731</ele>
        <time>2009-11-18T13:07:00Z</time>
      </trkpt>
      <trkpt lat="45.08941" lon="5.13182">
        <ele>221.68200683594</ele>
        <time>2009-11-18T13:07:09Z</time>
      </trkpt>
      <trkpt lat="45.08973" lon="5.13201">
        <ele>221.67100524902</ele>
        <time>2009-11-18T13:07:15Z</time>
      </trkpt>
      <trkpt lat="45.09021" lon="5.13224">
        <ele>221.06399536133</ele>
        <time>2009-11-18T13:07:24Z</time>
      </trkpt>
      <trkpt lat="45.0906" lon="5.13246">
        <ele>220.72099304199</ele>
        <time>2009-11-18T13:07:31Z</time>
      </trkpt>
      <trkpt lat="45.09081" lon="5.13263">
        <ele>220.19700622559</ele>
        <time>2009-11-18T13:07:36Z</time>
      </trkpt>
      <trkpt lat="45.09081" lon="5.13263">
        <ele>220.26100158691</ele>
        <time>2009-11-18T13:07:37Z</time>
      </trkpt>
      <trkpt lat="45.09096" lon="5.13266">
        <ele>220.19000244141</ele>
        <time>2009-11-18T13:07:39Z</time>
      </trkpt>
      <trkpt lat="45.09143" lon="5.13276">
        <ele>220.50500488281</ele>
        <time>2009-11-18T13:07:47Z</time>
      </trkpt>
      <trkpt lat="45.09183" lon="5.13284">
        <ele>220.74699401856</ele>
        <time>2009-11-18T13:07:54Z</time>
      </trkpt>
      <trkpt lat="45.09212" lon="5.13285">
        <ele>220.75999450684</ele>
        <time>2009-11-18T13:07:59Z</time>
      </trkpt>
      <trkpt lat="45.09231" lon="5.13285">
        <ele>220.77299499512</ele>
        <time>2009-11-18T13:08:06Z</time>
      </trkpt>
      <trkpt lat="45.09303" lon="5.13274">
        <ele>221.125</ele>
        <time>2009-11-18T13:08:14Z</time>
      </trkpt>
      <trkpt lat="45.09355" lon="5.13266">
        <ele>221.7440032959</ele>
        <time>2009-11-18T13:08:23Z</time>
      </trkpt>
      <trkpt lat="45.09373" lon="5.13263">
        <ele>222.0299987793</ele>
        <time>2009-11-18T13:08:30Z</time>
      </trkpt>
      <trkpt lat="45.09451" lon="5.1325">
        <ele>222.26300048828</ele>
        <time>2009-11-18T13:08:39Z</time>
      </trkpt>
      <trkpt lat="45.09459" lon="5.1325">
        <ele>222.5059967041</ele>
        <time>2009-11-18T13:08:44Z</time>
      </trkpt>
      <trkpt lat="45.09536" lon="5.13291">
        <ele>222.85499572754</ele>
        <time>2009-11-18T13:08:53Z</time>
      </trkpt>
      <trkpt lat="45.09592" lon="5.13331">
        <ele>223.7859954834</ele>
        <time>2009-11-18T13:09:03Z</time>
      </trkpt>
      <trkpt lat="45.09636" lon="5.13362">
        <ele>224.96699523926</ele>
        <time>2009-11-18T13:09:12Z</time>
      </trkpt>
      <trkpt lat="45.09665" lon="5.13382">
        <ele>225.81399536133</ele>
        <time>2009-11-18T13:09:18Z</time>
      </trkpt>
      <trkpt lat="45.09711" lon="5.13415">
        <ele>227.03799438477</ele>
        <time>2009-11-18T13:09:28Z</time>
      </trkpt>
      <trkpt lat="45.09756" lon="5.13447">
        <ele>228.09100341797</ele>
        <time>2009-11-18T13:09:38Z</time>
      </trkpt>
      <trkpt lat="45.098" lon="5.13478">
        <ele>229.48599243164</ele>
        <time>2009-11-18T13:09:48Z</time>
      </trkpt>
      <trkpt lat="45.09843" lon="5.13511">
        <ele>230.66700744629</ele>
        <time>2009-11-18T13:09:58Z</time>
      </trkpt>
      <trkpt lat="45.09889" lon="5.13549">
        <ele>231.55999755859</ele>
        <time>2009-11-18T13:10:09Z</time>
      </trkpt>
      <trkpt lat="45.09918" lon="5.13579">
        <ele>231.2859954834</ele>
        <time>2009-11-18T13:10:16Z</time>
      </trkpt>
      <trkpt lat="45.09967" lon="5.13636">
        <ele>231.18499755859</ele>
        <time>2009-11-18T13:10:27Z</time>
      </trkpt>
      <trkpt lat="45.10003" lon="5.13683">
        <ele>230.64599609375</ele>
        <time>2009-11-18T13:10:35Z</time>
      </trkpt>
      <trkpt lat="45.10057" lon="5.13752">
        <ele>231.48300170898</ele>
        <time>2009-11-18T13:10:47Z</time>
      </trkpt>
      <trkpt lat="45.10106" lon="5.13808">
        <ele>231.32299804688</ele>
        <time>2009-11-18T13:10:58Z</time>
      </trkpt>
      <trkpt lat="45.10136" lon="5.13845">
        <ele>231.69000244141</ele>
        <time>2009-11-18T13:11:05Z</time>
      </trkpt>
      <trkpt lat="45.10186" lon="5.13898">
        <ele>231.3809967041</ele>
        <time>2009-11-18T13:11:15Z</time>
      </trkpt>
      <trkpt lat="45.10232" lon="5.13937">
        <ele>231.69900512695</ele>
        <time>2009-11-18T13:11:24Z</time>
      </trkpt>
      <trkpt lat="45.103" lon="5.13994">
        <ele>231.83000183106</ele>
        <time>2009-11-18T13:11:37Z</time>
      </trkpt>
      <trkpt lat="45.10358" lon="5.14042">
        <ele>231.85499572754</ele>
        <time>2009-11-18T13:11:48Z</time>
      </trkpt>
      <trkpt lat="45.10415" lon="5.1409">
        <ele>232.58200073242</ele>
        <time>2009-11-18T13:11:59Z</time>
      </trkpt>
      <trkpt lat="45.10469" lon="5.14135">
        <ele>233.40100097656</ele>
        <time>2009-11-18T13:12:10Z</time>
      </trkpt>
      <trkpt lat="45.10522" lon="5.14179">
        <ele>234.59199523926</ele>
        <time>2009-11-18T13:12:21Z</time>
      </trkpt>
      <trkpt lat="45.10577" lon="5.14224">
        <ele>235.19400024414</ele>
        <time>2009-11-18T13:12:32Z</time>
      </trkpt>
      <trkpt lat="45.10618" lon="5.1426">
        <ele>236.24200439453</ele>
        <time>2009-11-18T13:12:41Z</time>
      </trkpt>
      <trkpt lat="45.10667" lon="5.14303">
        <ele>237.06599426269</ele>
        <time>2009-11-18T13:12:52Z</time>
      </trkpt>
      <trkpt lat="45.107" lon="5.14331">
        <ele>237.39900207519</ele>
        <time>2009-11-18T13:12:59Z</time>
      </trkpt>
      <trkpt lat="45.10738" lon="5.14362">
        <ele>237.65400695801</ele>
        <time>2009-11-18T13:13:07Z</time>
      </trkpt>
      <trkpt lat="45.10786" lon="5.14404">
        <ele>238.75300598144</ele>
        <time>2009-11-18T13:13:18Z</time>
      </trkpt>
      <trkpt lat="45.10816" lon="5.14429">
        <ele>239.35800170898</ele>
        <time>2009-11-18T13:13:25Z</time>
      </trkpt>
      <trkpt lat="45.1085" lon="5.14457">
        <ele>240.17300415039</ele>
        <time>2009-11-18T13:13:33Z</time>
      </trkpt>
      <trkpt lat="45.10895" lon="5.14499">
        <ele>241.25900268555</ele>
        <time>2009-11-18T13:13:44Z</time>
      </trkpt>
      <trkpt lat="45.10928" lon="5.14536">
        <ele>242.63299560547</ele>
        <time>2009-11-18T13:13:53Z</time>
      </trkpt>
      <trkpt lat="45.10955" lon="5.14566">
        <ele>244.06599426269</ele>
        <time>2009-11-18T13:14:01Z</time>
      </trkpt>
      <trkpt lat="45.10974" lon="5.14586">
        <ele>245.2619934082</ele>
        <time>2009-11-18T13:14:07Z</time>
      </trkpt>
      <trkpt lat="45.10996" lon="5.14607">
        <ele>246.80200195312</ele>
        <time>2009-11-18T13:14:14Z</time>
      </trkpt>
      <trkpt lat="45.11008" lon="5.14618">
        <ele>247.47399902344</ele>
        <time>2009-11-18T13:14:19Z</time>
      </trkpt>
      <trkpt lat="45.11027" lon="5.14628">
        <ele>247.67399597168</ele>
        <time>2009-11-18T13:14:24Z</time>
      </trkpt>
      <trkpt lat="45.11052" lon="5.14648">
        <ele>247.39500427246</ele>
        <time>2009-11-18T13:14:30Z</time>
      </trkpt>
      <trkpt lat="45.11055" lon="5.14651">
        <ele>247.26699829102</ele>
        <time>2009-11-18T13:14:31Z</time>
      </trkpt>
      <trkpt lat="45.11063" lon="5.1466">
        <ele>246.97399902344</ele>
        <time>2009-11-18T13:14:33Z</time>
      </trkpt>
      <trkpt lat="45.11091" lon="5.14692">
        <ele>245.88600158691</ele>
        <time>2009-11-18T13:14:40Z</time>
      </trkpt>
      <trkpt lat="45.11108" lon="5.14712">
        <ele>245.62600708008</ele>
        <time>2009-11-18T13:14:44Z</time>
      </trkpt>
      <trkpt lat="45.1112" lon="5.14729">
        <ele>245.44000244141</ele>
        <time>2009-11-18T13:14:47Z</time>
      </trkpt>
      <trkpt lat="45.11139" lon="5.14758">
        <ele>245.12199401856</ele>
        <time>2009-11-18T13:14:52Z</time>
      </trkpt>
      <trkpt lat="45.11143" lon="5.14764">
        <ele>244.72799682617</ele>
        <time>2009-11-18T13:14:53Z</time>
      </trkpt>
      <trkpt lat="45.11166" lon="5.14805">
        <ele>243.78500366211</ele>
        <time>2009-11-18T13:15:00Z</time>
      </trkpt>
      <trkpt lat="45.11177" lon="5.14824">
        <ele>243.58299255371</ele>
        <time>2009-11-18T13:15:04Z</time>
      </trkpt>
      <trkpt lat="45.1118" lon="5.14828">
        <ele>243.39399719238</ele>
        <time>2009-11-18T13:15:05Z</time>
      </trkpt>
      <trkpt lat="45.11204" lon="5.14817">
        <ele>244.90699768066</ele>
        <time>2009-11-18T13:15:10Z</time>
      </trkpt>
      <trkpt lat="45.11211" lon="5.14815">
        <ele>245.8630065918</ele>
        <time>2009-11-18T13:15:12Z</time>
      </trkpt>
      <trkpt lat="45.11214" lon="5.14815">
        <ele>246.13499450684</ele>
        <time>2009-11-18T13:15:13Z</time>
      </trkpt>
      <trkpt lat="45.11234" lon="5.14812">
        <ele>248.46200561523</ele>
        <time>2009-11-18T13:15:19Z</time>
      </trkpt>
      <trkpt lat="45.11249" lon="5.1481">
        <ele>249.01300048828</ele>
        <time>2009-11-18T13:15:23Z</time>
      </trkpt>
      <trkpt lat="45.11269" lon="5.1481">
        <ele>248.8690032959</ele>
        <time>2009-11-18T13:15:28Z</time>
      </trkpt>
      <trkpt lat="45.11291" lon="5.14813">
        <ele>248.49800109863</ele>
        <time>2009-11-18T13:15:36Z</time>
      </trkpt>
      <trkpt lat="45.11348" lon="5.1481">
        <ele>248.64300537109</ele>
        <time>2009-11-18T13:15:44Z</time>
      </trkpt>
      <trkpt lat="45.11391" lon="5.14805">
        <ele>249.10200500488</ele>
        <time>2009-11-18T13:15:53Z</time>
      </trkpt>
      <trkpt lat="45.11419" lon="5.14798">
        <ele>249.98399353027</ele>
        <time>2009-11-18T13:15:59Z</time>
      </trkpt>
      <trkpt lat="45.11447" lon="5.14791">
        <ele>251.22500610352</ele>
        <time>2009-11-18T13:16:06Z</time>
      </trkpt>
      <trkpt lat="45.11481" lon="5.14782">
        <ele>252.16400146484</ele>
        <time>2009-11-18T13:16:14Z</time>
      </trkpt>
      <trkpt lat="45.11489" lon="5.1478">
        <ele>252.48300170898</ele>
        <time>2009-11-18T13:16:16Z</time>
      </trkpt>
      <trkpt lat="45.11524" lon="5.14771">
        <ele>253.09800720215</ele>
        <time>2009-11-18T13:16:24Z</time>
      </trkpt>
      <trkpt lat="45.11558" lon="5.1476">
        <ele>253.65400695801</ele>
        <time>2009-11-18T13:16:31Z</time>
      </trkpt>
      <trkpt lat="45.11602" lon="5.14745">
        <ele>253.74499511719</ele>
        <time>2009-11-18T13:16:40Z</time>
      </trkpt>
      <trkpt lat="45.11634" lon="5.14735">
        <ele>254.77799987793</ele>
        <time>2009-11-18T13:16:47Z</time>
      </trkpt>
      <trkpt lat="45.11666" lon="5.14723">
        <ele>255.78500366211</ele>
        <time>2009-11-18T13:16:54Z</time>
      </trkpt>
      <trkpt lat="45.11703" lon="5.14714">
        <ele>256.58999633789</ele>
        <time>2009-11-18T13:17:02Z</time>
      </trkpt>
      <trkpt lat="45.11731" lon="5.1471">
        <ele>257.13198852539</ele>
        <time>2009-11-18T13:17:08Z</time>
      </trkpt>
      <trkpt lat="45.11773" lon="5.14703">
        <ele>257.70199584961</ele>
        <time>2009-11-18T13:17:16Z</time>
      </trkpt>
      <trkpt lat="45.11824" lon="5.14691">
        <ele>258.46600341797</ele>
        <time>2009-11-18T13:17:26Z</time>
      </trkpt>
      <trkpt lat="45.11874" lon="5.1468">
        <ele>258.27499389648</ele>
        <time>2009-11-18T13:17:35Z</time>
      </trkpt>
      <trkpt lat="45.1193" lon="5.14681">
        <ele>258.60598754883</ele>
        <time>2009-11-18T13:17:45Z</time>
      </trkpt>
      <trkpt lat="45.11963" lon="5.14682">
        <ele>258.21200561523</ele>
        <time>2009-11-18T13:17:51Z</time>
      </trkpt>
      <trkpt lat="45.12006" lon="5.14683">
        <ele>257.89898681641</ele>
        <time>2009-11-18T13:17:59Z</time>
      </trkpt>
      <trkpt lat="45.12036" lon="5.14691">
        <ele>257.07299804688</ele>
        <time>2009-11-18T13:18:04Z</time>
      </trkpt>
      <trkpt lat="45.1208" lon="5.14714">
        <ele>256.58499145508</ele>
        <time>2009-11-18T13:18:11Z</time>
      </trkpt>
      <trkpt lat="45.12127" lon="5.14746">
        <ele>255.91000366211</ele>
        <time>2009-11-18T13:18:19Z</time>
      </trkpt>
      <trkpt lat="45.12178" lon="5.14782">
        <ele>255.68400573731</ele>
        <time>2009-11-18T13:18:28Z</time>
      </trkpt>
      <trkpt lat="45.12216" lon="5.14808">
        <ele>256.03500366211</ele>
        <time>2009-11-18T13:18:35Z</time>
      </trkpt>
      <trkpt lat="45.12242" lon="5.14826">
        <ele>256.33898925781</ele>
        <time>2009-11-18T13:18:40Z</time>
      </trkpt>
      <trkpt lat="45.12292" lon="5.14861">
        <ele>256.87298583984</ele>
        <time>2009-11-18T13:18:50Z</time>
      </trkpt>
      <trkpt lat="45.12307" lon="5.14871">
        <ele>257.03298950195</ele>
        <time>2009-11-18T13:18:53Z</time>
      </trkpt>
      <trkpt lat="45.1235" lon="5.14901">
        <ele>257.26501464844</ele>
        <time>2009-11-18T13:19:02Z</time>
      </trkpt>
      <trkpt lat="45.12392" lon="5.1493">
        <ele>257.81600952148</ele>
        <time>2009-11-18T13:19:11Z</time>
      </trkpt>
      <trkpt lat="45.12434" lon="5.14958">
        <ele>258.76300048828</ele>
        <time>2009-11-18T13:19:20Z</time>
      </trkpt>
      <trkpt lat="45.1245" lon="5.1497">
        <ele>259.05499267578</ele>
        <time>2009-11-18T13:19:24Z</time>
      </trkpt>
      <trkpt lat="45.12477" lon="5.14989">
        <ele>259.51501464844</ele>
        <time>2009-11-18T13:19:30Z</time>
      </trkpt>
      <trkpt lat="45.12531" lon="5.15026">
        <ele>260.73901367188</ele>
        <time>2009-11-18T13:19:41Z</time>
      </trkpt>
      <trkpt lat="45.12573" lon="5.15055">
        <ele>261.42401123047</ele>
        <time>2009-11-18T13:19:50Z</time>
      </trkpt>
      <trkpt lat="45.12606" lon="5.15078">
        <ele>262.39401245117</ele>
        <time>2009-11-18T13:19:57Z</time>
      </trkpt>
      <trkpt lat="45.1264" lon="5.15102">
        <ele>263.40200805664</ele>
        <time>2009-11-18T13:20:05Z</time>
      </trkpt>
      <trkpt lat="45.12679" lon="5.15129">
        <ele>264.80200195312</ele>
        <time>2009-11-18T13:20:14Z</time>
      </trkpt>
      <trkpt lat="45.12715" lon="5.15153">
        <ele>265.72500610352</ele>
        <time>2009-11-18T13:20:22Z</time>
      </trkpt>
      <trkpt lat="45.12759" lon="5.15182">
        <ele>266.67401123047</ele>
        <time>2009-11-18T13:20:32Z</time>
      </trkpt>
      <trkpt lat="45.12778" lon="5.15196">
        <ele>267.44100952148</ele>
        <time>2009-11-18T13:20:37Z</time>
      </trkpt>
      <trkpt lat="45.12789" lon="5.15203">
        <ele>268.09100341797</ele>
        <time>2009-11-18T13:20:44Z</time>
      </trkpt>
      <trkpt lat="45.12846" lon="5.15215">
        <ele>269.20999145508</ele>
        <time>2009-11-18T13:20:52Z</time>
      </trkpt>
      <trkpt lat="45.12877" lon="5.15208">
        <ele>270.69400024414</ele>
        <time>2009-11-18T13:20:59Z</time>
      </trkpt>
      <trkpt lat="45.12908" lon="5.15201">
        <ele>272.40701293945</ele>
        <time>2009-11-18T13:21:07Z</time>
      </trkpt>
      <trkpt lat="45.12924" lon="5.15198">
        <ele>273.74099731445</ele>
        <time>2009-11-18T13:21:12Z</time>
      </trkpt>
      <trkpt lat="45.12947" lon="5.15193">
        <ele>275.13101196289</ele>
        <time>2009-11-18T13:21:19Z</time>
      </trkpt>
      <trkpt lat="45.12968" lon="5.15188">
        <ele>276.39300537109</ele>
        <time>2009-11-18T13:21:26Z</time>
      </trkpt>
      <trkpt lat="45.12983" lon="5.15185">
        <ele>277.50698852539</ele>
        <time>2009-11-18T13:21:31Z</time>
      </trkpt>
      <trkpt lat="45.13005" lon="5.1518">
        <ele>279.0539855957</ele>
        <time>2009-11-18T13:21:38Z</time>
      </trkpt>
      <trkpt lat="45.13026" lon="5.15175">
        <ele>280.46499633789</ele>
        <time>2009-11-18T13:21:45Z</time>
      </trkpt>
      <trkpt lat="45.13044" lon="5.15174">
        <ele>281.7799987793</ele>
        <time>2009-11-18T13:21:51Z</time>
      </trkpt>
      <trkpt lat="45.13065" lon="5.15175">
        <ele>283.10998535156</ele>
        <time>2009-11-18T13:21:57Z</time>
      </trkpt>
      <trkpt lat="45.13092" lon="5.15178">
        <ele>284.35400390625</ele>
        <time>2009-11-18T13:22:05Z</time>
      </trkpt>
      <trkpt lat="45.13117" lon="5.1518">
        <ele>285.76599121094</ele>
        <time>2009-11-18T13:22:12Z</time>
      </trkpt>
      <trkpt lat="45.13145" lon="5.15179">
        <ele>287.14498901367</ele>
        <time>2009-11-18T13:22:20Z</time>
      </trkpt>
      <trkpt lat="45.13171" lon="5.15173">
        <ele>288.23199462891</ele>
        <time>2009-11-18T13:22:27Z</time>
      </trkpt>
      <trkpt lat="45.13199" lon="5.15167">
        <ele>289.72299194336</ele>
        <time>2009-11-18T13:22:35Z</time>
      </trkpt>
      <trkpt lat="45.13219" lon="5.15159">
        <ele>290.89999389648</ele>
        <time>2009-11-18T13:22:41Z</time>
      </trkpt>
      <trkpt lat="45.13235" lon="5.15141">
        <ele>292.25399780273</ele>
        <time>2009-11-18T13:22:47Z</time>
      </trkpt>
      <trkpt lat="45.1324" lon="5.15121">
        <ele>293.16299438477</ele>
        <time>2009-11-18T13:22:52Z</time>
      </trkpt>
      <trkpt lat="45.13242" lon="5.15098">
        <ele>293.85900878906</ele>
        <time>2009-11-18T13:22:57Z</time>
      </trkpt>
      <trkpt lat="45.13247" lon="5.15076">
        <ele>295.07400512695</ele>
        <time>2009-11-18T13:23:02Z</time>
      </trkpt>
      <trkpt lat="45.13258" lon="5.15053">
        <ele>296.05200195312</ele>
        <time>2009-11-18T13:23:08Z</time>
      </trkpt>
      <trkpt lat="45.1327" lon="5.15028">
        <ele>297.43099975586</ele>
        <time>2009-11-18T13:23:14Z</time>
      </trkpt>
      <trkpt lat="45.13284" lon="5.14998">
        <ele>298.875</ele>
        <time>2009-11-18T13:23:21Z</time>
      </trkpt>
      <trkpt lat="45.13296" lon="5.1498">
        <ele>299.63101196289</ele>
        <time>2009-11-18T13:23:26Z</time>
      </trkpt>
      <trkpt lat="45.13318" lon="5.14958">
        <ele>301.03799438477</ele>
        <time>2009-11-18T13:23:33Z</time>
      </trkpt>
      <trkpt lat="45.13334" lon="5.14944">
        <ele>302.03100585938</ele>
        <time>2009-11-18T13:23:38Z</time>
      </trkpt>
      <trkpt lat="45.13355" lon="5.14923">
        <ele>303.58999633789</ele>
        <time>2009-11-18T13:23:45Z</time>
      </trkpt>
      <trkpt lat="45.13371" lon="5.14909">
        <ele>304.37600708008</ele>
        <time>2009-11-18T13:23:50Z</time>
      </trkpt>
      <trkpt lat="45.13389" lon="5.14895">
        <ele>305.5530090332</ele>
        <time>2009-11-18T13:23:56Z</time>
      </trkpt>
      <trkpt lat="45.13412" lon="5.14882">
        <ele>307.10198974609</ele>
        <time>2009-11-18T13:24:03Z</time>
      </trkpt>
      <trkpt lat="45.13432" lon="5.1487">
        <ele>308.42599487305</ele>
        <time>2009-11-18T13:24:09Z</time>
      </trkpt>
      <trkpt lat="45.13454" lon="5.14858">
        <ele>309.45098876953</ele>
        <time>2009-11-18T13:24:15Z</time>
      </trkpt>
      <trkpt lat="45.13473" lon="5.14847">
        <ele>310.59100341797</ele>
        <time>2009-11-18T13:24:21Z</time>
      </trkpt>
      <trkpt lat="45.13488" lon="5.14839">
        <ele>311.61199951172</ele>
        <time>2009-11-18T13:24:26Z</time>
      </trkpt>
      <trkpt lat="45.13508" lon="5.14816">
        <ele>313.05899047852</ele>
        <time>2009-11-18T13:24:33Z</time>
      </trkpt>
      <trkpt lat="45.13524" lon="5.14794">
        <ele>314.14199829102</ele>
        <time>2009-11-18T13:24:39Z</time>
      </trkpt>
      <trkpt lat="45.13537" lon="5.14772">
        <ele>315.14099121094</ele>
        <time>2009-11-18T13:24:45Z</time>
      </trkpt>
      <trkpt lat="45.13549" lon="5.14749">
        <ele>316.61099243164</ele>
        <time>2009-11-18T13:24:51Z</time>
      </trkpt>
      <trkpt lat="45.1356" lon="5.14728">
        <ele>317.36999511719</ele>
        <time>2009-11-18T13:24:56Z</time>
      </trkpt>
      <trkpt lat="45.13575" lon="5.14713">
        <ele>318.23199462891</ele>
        <time>2009-11-18T13:25:01Z</time>
      </trkpt>
      <trkpt lat="45.13596" lon="5.14692">
        <ele>319.42300415039</ele>
        <time>2009-11-18T13:25:07Z</time>
      </trkpt>
      <trkpt lat="45.13617" lon="5.1467">
        <ele>320.28201293945</ele>
        <time>2009-11-18T13:25:13Z</time>
      </trkpt>
      <trkpt lat="45.1362" lon="5.14665">
        <ele>320.32699584961</ele>
        <time>2009-11-18T13:25:14Z</time>
      </trkpt>
      <trkpt lat="45.13628" lon="5.14644">
        <ele>320.58700561523</ele>
        <time>2009-11-18T13:25:18Z</time>
      </trkpt>
      <trkpt lat="45.13634" lon="5.14609">
        <ele>320.39999389648</ele>
        <time>2009-11-18T13:25:24Z</time>
      </trkpt>
      <trkpt lat="45.13634" lon="5.14552">
        <ele>320.01000976562</ele>
        <time>2009-11-18T13:25:32Z</time>
      </trkpt>
      <trkpt lat="45.13634" lon="5.14508">
        <ele>320.66598510742</ele>
        <time>2009-11-18T13:25:38Z</time>
      </trkpt>
      <trkpt lat="45.13634" lon="5.14436">
        <ele>320.17599487305</ele>
        <time>2009-11-18T13:25:47Z</time>
      </trkpt>
      <trkpt lat="45.13638" lon="5.14391">
        <ele>320.1969909668</ele>
        <time>2009-11-18T13:25:53Z</time>
      </trkpt>
      <trkpt lat="45.13643" lon="5.14345">
        <ele>320.75698852539</ele>
        <time>2009-11-18T13:25:59Z</time>
      </trkpt>
      <trkpt lat="45.13656" lon="5.14312">
        <ele>322.4460144043</ele>
        <time>2009-11-18T13:26:05Z</time>
      </trkpt>
      <trkpt lat="45.13675" lon="5.1428">
        <ele>324.03601074219</ele>
        <time>2009-11-18T13:26:12Z</time>
      </trkpt>
      <trkpt lat="45.1369" lon="5.14257">
        <ele>324.98599243164</ele>
        <time>2009-11-18T13:26:17Z</time>
      </trkpt>
      <trkpt lat="45.13696" lon="5.14248">
        <ele>325.26800537109</ele>
        <time>2009-11-18T13:26:19Z</time>
      </trkpt>
      <trkpt lat="45.13716" lon="5.14218">
        <ele>326.4289855957</ele>
        <time>2009-11-18T13:26:26Z</time>
      </trkpt>
      <trkpt lat="45.13737" lon="5.14187">
        <ele>327.50399780273</ele>
        <time>2009-11-18T13:26:33Z</time>
      </trkpt>
      <trkpt lat="45.1376" lon="5.14153">
        <ele>328.51000976562</ele>
        <time>2009-11-18T13:26:41Z</time>
      </trkpt>
      <trkpt lat="45.13783" lon="5.14136">
        <ele>329.66299438477</ele>
        <time>2009-11-18T13:26:46Z</time>
      </trkpt>
      <trkpt lat="45.13792" lon="5.14143">
        <ele>330.07598876953</ele>
        <time>2009-11-18T13:26:49Z</time>
      </trkpt>
      <trkpt lat="45.13798" lon="5.14152">
        <ele>330.65899658203</ele>
        <time>2009-11-18T13:26:51Z</time>
      </trkpt>
      <trkpt lat="45.13801" lon="5.14171">
        <ele>331.36199951172</ele>
        <time>2009-11-18T13:26:54Z</time>
      </trkpt>
      <trkpt lat="45.13798" lon="5.14211">
        <ele>332.64898681641</ele>
        <time>2009-11-18T13:27:01Z</time>
      </trkpt>
      <trkpt lat="45.13802" lon="5.14237">
        <ele>333.81799316406</ele>
        <time>2009-11-18T13:27:07Z</time>
      </trkpt>
      <trkpt lat="45.13819" lon="5.14266">
        <ele>335.16198730469</ele>
        <time>2009-11-18T13:27:14Z</time>
      </trkpt>
      <trkpt lat="45.13846" lon="5.14303">
        <ele>336.85598754883</ele>
        <time>2009-11-18T13:27:24Z</time>
      </trkpt>
      <trkpt lat="45.1387" lon="5.14333">
        <ele>338.61700439453</ele>
        <time>2009-11-18T13:27:32Z</time>
      </trkpt>
      <trkpt lat="45.13899" lon="5.14368">
        <ele>340.41500854492</ele>
        <time>2009-11-18T13:27:42Z</time>
      </trkpt>
      <trkpt lat="45.13922" lon="5.14396">
        <ele>342.40899658203</ele>
        <time>2009-11-18T13:27:50Z</time>
      </trkpt>
      <trkpt lat="45.1395" lon="5.14428">
        <ele>344.20599365234</ele>
        <time>2009-11-18T13:27:59Z</time>
      </trkpt>
      <trkpt lat="45.13956" lon="5.14435">
        <ele>345.15899658203</ele>
        <time>2009-11-18T13:28:05Z</time>
      </trkpt>
      <trkpt lat="45.13998" lon="5.14442">
        <ele>346.74798583984</ele>
        <time>2009-11-18T13:28:13Z</time>
      </trkpt>
      <trkpt lat="45.1403" lon="5.14435">
        <ele>348.62701416016</ele>
        <time>2009-11-18T13:28:22Z</time>
      </trkpt>
      <trkpt lat="45.14053" lon="5.14426">
        <ele>349.4880065918</ele>
        <time>2009-11-18T13:28:28Z</time>
      </trkpt>
      <trkpt lat="45.1408" lon="5.14405">
        <ele>351.09201049805</ele>
        <time>2009-11-18T13:28:36Z</time>
      </trkpt>
      <trkpt lat="45.14107" lon="5.14388">
        <ele>352.44100952148</ele>
        <time>2009-11-18T13:28:43Z</time>
      </trkpt>
      <trkpt lat="45.14135" lon="5.14388">
        <ele>354.29400634766</ele>
        <time>2009-11-18T13:28:50Z</time>
      </trkpt>
      <trkpt lat="45.14139" lon="5.14388">
        <ele>353.99099731445</ele>
        <time>2009-11-18T13:28:51Z</time>
      </trkpt>
      <trkpt lat="45.14156" lon="5.14408">
        <ele>355.04098510742</ele>
        <time>2009-11-18T13:28:56Z</time>
      </trkpt>
      <trkpt lat="45.14166" lon="5.14446">
        <ele>356.5950012207</ele>
        <time>2009-11-18T13:29:03Z</time>
      </trkpt>
      <trkpt lat="45.14183" lon="5.14468">
        <ele>357.9289855957</ele>
        <time>2009-11-18T13:29:09Z</time>
      </trkpt>
      <trkpt lat="45.14193" lon="5.14477">
        <ele>358.03298950195</ele>
        <time>2009-11-18T13:29:12Z</time>
      </trkpt>
      <trkpt lat="45.14215" lon="5.14486">
        <ele>357.88000488281</ele>
        <time>2009-11-18T13:29:17Z</time>
      </trkpt>
      <trkpt lat="45.14259" lon="5.14479">
        <ele>356.98199462891</ele>
        <time>2009-11-18T13:29:25Z</time>
      </trkpt>
      <trkpt lat="45.14291" lon="5.14472">
        <ele>356.75698852539</ele>
        <time>2009-11-18T13:29:31Z</time>
      </trkpt>
      <trkpt lat="45.14341" lon="5.14463">
        <ele>356.19000244141</ele>
        <time>2009-11-18T13:29:39Z</time>
      </trkpt>
      <trkpt lat="45.14367" lon="5.14457">
        <ele>356.03601074219</ele>
        <time>2009-11-18T13:29:43Z</time>
      </trkpt>
      <trkpt lat="45.14404" lon="5.14449">
        <ele>355.64498901367</ele>
        <time>2009-11-18T13:29:49Z</time>
      </trkpt>
      <trkpt lat="45.14433" lon="5.14428">
        <ele>355.33200073242</ele>
        <time>2009-11-18T13:29:54Z</time>
      </trkpt>
      <trkpt lat="45.14439" lon="5.14423">
        <ele>355.3030090332</ele>
        <time>2009-11-18T13:29:55Z</time>
      </trkpt>
      <trkpt lat="45.14464" lon="5.14413">
        <ele>355.15301513672</ele>
        <time>2009-11-18T13:29:59Z</time>
      </trkpt>
      <trkpt lat="45.14483" lon="5.14424">
        <ele>355.18798828125</ele>
        <time>2009-11-18T13:30:02Z</time>
      </trkpt>
      <trkpt lat="45.14532" lon="5.14455">
        <ele>355.5</ele>
        <time>2009-11-18T13:30:10Z</time>
      </trkpt>
      <trkpt lat="45.14561" lon="5.14473">
        <ele>355.99600219727</ele>
        <time>2009-11-18T13:30:18Z</time>
      </trkpt>
      <trkpt lat="45.14625" lon="5.14513">
        <ele>356.32998657227</ele>
        <time>2009-11-18T13:30:27Z</time>
      </trkpt>
      <trkpt lat="45.14635" lon="5.14519">
        <ele>356.4169921875</ele>
        <time>2009-11-18T13:30:29Z</time>
      </trkpt>
      <trkpt lat="45.14639" lon="5.14521">
        <ele>356.14999389648</ele>
        <time>2009-11-18T13:30:32Z</time>
      </trkpt>
      <trkpt lat="45.14681" lon="5.14514">
        <ele>356.35598754883</ele>
        <time>2009-11-18T13:30:37Z</time>
      </trkpt>
      <trkpt lat="45.147" lon="5.14507">
        <ele>355.89001464844</ele>
        <time>2009-11-18T13:30:40Z</time>
      </trkpt>
      <trkpt lat="45.14737" lon="5.14457">
        <ele>355.57299804688</ele>
        <time>2009-11-18T13:30:48Z</time>
      </trkpt>
      <trkpt lat="45.14754" lon="5.1443">
        <ele>355.3869934082</ele>
        <time>2009-11-18T13:30:52Z</time>
      </trkpt>
      <trkpt lat="45.14771" lon="5.14391">
        <ele>354.87701416016</ele>
        <time>2009-11-18T13:30:57Z</time>
      </trkpt>
      <trkpt lat="45.14775" lon="5.14373">
        <ele>354.81698608398</ele>
        <time>2009-11-18T13:30:59Z</time>
      </trkpt>
      <trkpt lat="45.14776" lon="5.14343">
        <ele>354.33700561523</ele>
        <time>2009-11-18T13:31:02Z</time>
      </trkpt>
      <trkpt lat="45.14779" lon="5.14305">
        <ele>353.43701171875</ele>
        <time>2009-11-18T13:31:06Z</time>
      </trkpt>
      <trkpt lat="45.14796" lon="5.14289">
        <ele>353.90701293945</ele>
        <time>2009-11-18T13:31:09Z</time>
      </trkpt>
      <trkpt lat="45.14836" lon="5.14268">
        <ele>355.59298706055</ele>
        <time>2009-11-18T13:31:16Z</time>
      </trkpt>
      <trkpt lat="45.1485" lon="5.1426">
        <ele>356.21099853516</ele>
        <time>2009-11-18T13:31:19Z</time>
      </trkpt>
      <trkpt lat="45.14868" lon="5.14244">
        <ele>357.47698974609</ele>
        <time>2009-11-18T13:31:23Z</time>
      </trkpt>
      <trkpt lat="45.14882" lon="5.14231">
        <ele>358.21398925781</ele>
        <time>2009-11-18T13:31:26Z</time>
      </trkpt>
      <trkpt lat="45.1489" lon="5.14222">
        <ele>359.01098632812</ele>
        <time>2009-11-18T13:31:28Z</time>
      </trkpt>
      <trkpt lat="45.14909" lon="5.1421">
        <ele>360.20401000977</ele>
        <time>2009-11-18T13:31:32Z</time>
      </trkpt>
      <trkpt lat="45.14925" lon="5.14207">
        <ele>361.00100708008</ele>
        <time>2009-11-18T13:31:35Z</time>
      </trkpt>
      <trkpt lat="45.1496" lon="5.14207">
        <ele>363.01000976562</ele>
        <time>2009-11-18T13:31:42Z</time>
      </trkpt>
      <trkpt lat="45.14991" lon="5.14211">
        <ele>364.67098999023</ele>
        <time>2009-11-18T13:31:48Z</time>
      </trkpt>
      <trkpt lat="45.15009" lon="5.14225">
        <ele>366.05499267578</ele>
        <time>2009-11-18T13:31:52Z</time>
      </trkpt>
      <trkpt lat="45.15041" lon="5.14256">
        <ele>368.09100341797</ele>
        <time>2009-11-18T13:32:00Z</time>
      </trkpt>
      <trkpt lat="45.15055" lon="5.14285">
        <ele>369.18899536133</ele>
        <time>2009-11-18T13:32:05Z</time>
      </trkpt>
      <trkpt lat="45.15078" lon="5.14346">
        <ele>371.6669921875</ele>
        <time>2009-11-18T13:32:15Z</time>
      </trkpt>
      <trkpt lat="45.15099" lon="5.14417">
        <ele>374.83999633789</ele>
        <time>2009-11-18T13:32:26Z</time>
      </trkpt>
      <trkpt lat="45.15106" lon="5.14473">
        <ele>376.60299682617</ele>
        <time>2009-11-18T13:32:34Z</time>
      </trkpt>
      <trkpt lat="45.15107" lon="5.14544">
        <ele>379.31600952148</ele>
        <time>2009-11-18T13:32:44Z</time>
      </trkpt>
      <trkpt lat="45.15118" lon="5.14613">
        <ele>381.83700561523</ele>
        <time>2009-11-18T13:32:54Z</time>
      </trkpt>
      <trkpt lat="45.1512" lon="5.14619">
        <ele>382.21499633789</ele>
        <time>2009-11-18T13:32:55Z</time>
      </trkpt>
      <trkpt lat="45.15137" lon="5.14641">
        <ele>383.56799316406</ele>
        <time>2009-11-18T13:33:00Z</time>
      </trkpt>
      <trkpt lat="45.15154" lon="5.14655">
        <ele>384.65100097656</ele>
        <time>2009-11-18T13:33:04Z</time>
      </trkpt>
      <trkpt lat="45.15169" lon="5.14656">
        <ele>385.5530090332</ele>
        <time>2009-11-18T13:33:07Z</time>
      </trkpt>
      <trkpt lat="45.15208" lon="5.14642">
        <ele>388.08700561523</ele>
        <time>2009-11-18T13:33:14Z</time>
      </trkpt>
      <trkpt lat="45.15232" lon="5.14639">
        <ele>388.74398803711</ele>
        <time>2009-11-18T13:33:18Z</time>
      </trkpt>
      <trkpt lat="45.15274" lon="5.14658">
        <ele>391.10000610352</ele>
        <time>2009-11-18T13:33:26Z</time>
      </trkpt>
      <trkpt lat="45.15282" lon="5.14662">
        <ele>391.84698486328</ele>
        <time>2009-11-18T13:33:28Z</time>
      </trkpt>
      <trkpt lat="45.15315" lon="5.14676">
        <ele>393.24600219727</ele>
        <time>2009-11-18T13:33:35Z</time>
      </trkpt>
      <trkpt lat="45.15331" lon="5.14682">
        <ele>393.96398925781</ele>
        <time>2009-11-18T13:33:40Z</time>
      </trkpt>
      <trkpt lat="45.15343" lon="5.14686">
        <ele>394.40399169922</ele>
        <time>2009-11-18T13:33:45Z</time>
      </trkpt>
      <trkpt lat="45.15358" lon="5.1469">
        <ele>394.56201171875</ele>
        <time>2009-11-18T13:33:52Z</time>
      </trkpt>
      <trkpt lat="45.15368" lon="5.14692">
        <ele>395.08099365234</ele>
        <time>2009-11-18T13:33:59Z</time>
      </trkpt>
      <trkpt lat="45.15375" lon="5.14708">
        <ele>395.52700805664</ele>
        <time>2009-11-18T13:34:07Z</time>
      </trkpt>
      <trkpt lat="45.15377" lon="5.14712">
        <ele>395.70901489258</ele>
        <time>2009-11-18T13:34:10Z</time>
      </trkpt>
      <trkpt lat="45.1538" lon="5.14721">
        <ele>396.16101074219</ele>
        <time>2009-11-18T13:34:17Z</time>
      </trkpt>
      <trkpt lat="45.15381" lon="5.14722">
        <ele>396.26300048828</ele>
        <time>2009-11-18T13:34:18Z</time>
      </trkpt>
      <trkpt lat="45.15385" lon="5.14728">
        <ele>396.61199951172</ele>
        <time>2009-11-18T13:34:24Z</time>
      </trkpt>
      <trkpt lat="45.15385" lon="5.14729">
        <ele>396.78298950195</ele>
        <time>2009-11-18T13:34:26Z</time>
      </trkpt>
      <trkpt lat="45.1539" lon="5.14737">
        <ele>397.35101318359</ele>
        <time>2009-11-18T13:34:32Z</time>
      </trkpt>
      <trkpt lat="45.15392" lon="5.14741">
        <ele>397.43200683594</ele>
        <time>2009-11-18T13:34:34Z</time>
      </trkpt>
      <trkpt lat="45.15397" lon="5.14754">
        <ele>398.44100952148</ele>
        <time>2009-11-18T13:34:41Z</time>
      </trkpt>
      <trkpt lat="45.15401" lon="5.14766">
        <ele>399.24700927734</ele>
        <time>2009-11-18T13:34:47Z</time>
      </trkpt>
      <trkpt lat="45.15408" lon="5.14784">
        <ele>400.07000732422</ele>
        <time>2009-11-18T13:34:55Z</time>
      </trkpt>
      <trkpt lat="45.15419" lon="5.14811">
        <ele>401.52600097656</ele>
        <time>2009-11-18T13:35:05Z</time>
      </trkpt>
      <trkpt lat="45.15423" lon="5.14819">
        <ele>402.10000610352</ele>
        <time>2009-11-18T13:35:09Z</time>
      </trkpt>
      <trkpt lat="45.15428" lon="5.14854">
        <ele>401.94299316406</ele>
        <time>2009-11-18T13:35:15Z</time>
      </trkpt>
      <trkpt lat="45.15427" lon="5.14856">
        <ele>401.89099121094</ele>
        <time>2009-11-18T13:35:16Z</time>
      </trkpt>
      <trkpt lat="45.15425" lon="5.14857">
        <ele>401.9169921875</ele>
        <time>2009-11-18T13:35:21Z</time>
      </trkpt>
      <trkpt lat="45.15432" lon="5.14849">
        <ele>402.01699829102</ele>
        <time>2009-11-18T13:35:28Z</time>
      </trkpt>
      <trkpt lat="45.1543" lon="5.14831">
        <ele>402.38198852539</ele>
        <time>2009-11-18T13:35:32Z</time>
      </trkpt>
      <trkpt lat="45.15446" lon="5.14867">
        <ele>403.40600585938</ele>
        <time>2009-11-18T13:35:40Z</time>
      </trkpt>
      <trkpt lat="45.15453" lon="5.14896">
        <ele>404.11898803711</ele>
        <time>2009-11-18T13:35:46Z</time>
      </trkpt>
      <trkpt lat="45.15457" lon="5.14919">
        <ele>404.49301147461</ele>
        <time>2009-11-18T13:35:50Z</time>
      </trkpt>
      <trkpt lat="45.15468" lon="5.14957">
        <ele>403.92300415039</ele>
        <time>2009-11-18T13:35:57Z</time>
      </trkpt>
      <trkpt lat="45.15479" lon="5.14982">
        <ele>403.46701049805</ele>
        <time>2009-11-18T13:36:02Z</time>
      </trkpt>
      <trkpt lat="45.1548" lon="5.14983">
        <ele>403.82998657227</ele>
        <time>2009-11-18T13:36:08Z</time>
      </trkpt>
      <trkpt lat="45.15485" lon="5.14985">
        <ele>403.33401489258</ele>
        <time>2009-11-18T13:36:13Z</time>
      </trkpt>
      <trkpt lat="45.15481" lon="5.14985">
        <ele>403.62799072266</ele>
        <time>2009-11-18T13:36:17Z</time>
      </trkpt>
      <trkpt lat="45.15484" lon="5.14985">
        <ele>403.47799682617</ele>
        <time>2009-11-18T13:36:20Z</time>
      </trkpt>
      <trkpt lat="45.15487" lon="5.14987">
        <ele>403.44799804688</ele>
        <time>2009-11-18T13:36:24Z</time>
      </trkpt>
      <trkpt lat="45.1549" lon="5.14989">
        <ele>403.50299072266</ele>
        <time>2009-11-18T13:36:27Z</time>
      </trkpt>
      <trkpt lat="45.15491" lon="5.14989">
        <ele>403.36499023438</ele>
        <time>2009-11-18T13:36:28Z</time>
      </trkpt>
      <trkpt lat="45.15494" lon="5.14991">
        <ele>403.51098632812</ele>
        <time>2009-11-18T13:36:30Z</time>
      </trkpt>
      <trkpt lat="45.15498" lon="5.14995">
        <ele>403.51599121094</ele>
        <time>2009-11-18T13:36:34Z</time>
      </trkpt>
      <trkpt lat="45.15504" lon="5.15005">
        <ele>403.83999633789</ele>
        <time>2009-11-18T13:36:41Z</time>
      </trkpt>
      <trkpt lat="45.15513" lon="5.15019">
        <ele>403.97601318359</ele>
        <time>2009-11-18T13:36:48Z</time>
      </trkpt>
      <trkpt lat="45.15522" lon="5.15037">
        <ele>404.34600830078</ele>
        <time>2009-11-18T13:36:54Z</time>
      </trkpt>
      <trkpt lat="45.15527" lon="5.15053">
        <ele>405.15301513672</ele>
        <time>2009-11-18T13:36:58Z</time>
      </trkpt>
      <trkpt lat="45.15533" lon="5.15085">
        <ele>406.03799438477</ele>
        <time>2009-11-18T13:37:05Z</time>
      </trkpt>
      <trkpt lat="45.15542" lon="5.15115">
        <ele>407.03298950195</ele>
        <time>2009-11-18T13:37:12Z</time>
      </trkpt>
      <trkpt lat="45.15557" lon="5.15142">
        <ele>408.05801391602</ele>
        <time>2009-11-18T13:37:19Z</time>
      </trkpt>
      <trkpt lat="45.15578" lon="5.15177">
        <ele>408.88900756836</ele>
        <time>2009-11-18T13:37:28Z</time>
      </trkpt>
      <trkpt lat="45.15598" lon="5.15222">
        <ele>410.19299316406</ele>
        <time>2009-11-18T13:37:37Z</time>
      </trkpt>
      <trkpt lat="45.15604" lon="5.1525">
        <ele>411.12899780273</ele>
        <time>2009-11-18T13:37:45Z</time>
      </trkpt>
      <trkpt lat="45.15604" lon="5.1525">
        <ele>410.77700805664</ele>
        <time>2009-11-18T13:37:51Z</time>
      </trkpt>
      <trkpt lat="45.15616" lon="5.15286">
        <ele>410.75900268555</ele>
        <time>2009-11-18T13:37:53Z</time>
      </trkpt>
      <trkpt lat="45.15623" lon="5.1532">
        <ele>411.93200683594</ele>
        <time>2009-11-18T13:37:59Z</time>
      </trkpt>
      <trkpt lat="45.15625" lon="5.15332">
        <ele>412.79598999023</ele>
        <time>2009-11-18T13:38:05Z</time>
      </trkpt>
      <trkpt lat="45.15651" lon="5.15396">
        <ele>414.41101074219</ele>
        <time>2009-11-18T13:38:14Z</time>
      </trkpt>
      <trkpt lat="45.15659" lon="5.15437">
        <ele>415.53601074219</ele>
        <time>2009-11-18T13:38:21Z</time>
      </trkpt>
      <trkpt lat="45.15662" lon="5.15498">
        <ele>416.82000732422</ele>
        <time>2009-11-18T13:38:30Z</time>
      </trkpt>
      <trkpt lat="45.15663" lon="5.15556">
        <ele>417.97299194336</ele>
        <time>2009-11-18T13:38:39Z</time>
      </trkpt>
      <trkpt lat="45.15668" lon="5.15613">
        <ele>419.11401367188</ele>
        <time>2009-11-18T13:38:48Z</time>
      </trkpt>
      <trkpt lat="45.15676" lon="5.15665">
        <ele>420.08700561523</ele>
        <time>2009-11-18T13:38:56Z</time>
      </trkpt>
      <trkpt lat="45.15694" lon="5.15739">
        <ele>421.47100830078</ele>
        <time>2009-11-18T13:39:08Z</time>
      </trkpt>
      <trkpt lat="45.15712" lon="5.15801">
        <ele>423.21499633789</ele>
        <time>2009-11-18T13:39:18Z</time>
      </trkpt>
      <trkpt lat="45.15736" lon="5.15852">
        <ele>424.46701049805</ele>
        <time>2009-11-18T13:39:27Z</time>
      </trkpt>
      <trkpt lat="45.15763" lon="5.159">
        <ele>425.30999755859</ele>
        <time>2009-11-18T13:39:36Z</time>
      </trkpt>
      <trkpt lat="45.1578" lon="5.15941">
        <ele>426.60900878906</ele>
        <time>2009-11-18T13:39:43Z</time>
      </trkpt>
      <trkpt lat="45.15791" lon="5.15991">
        <ele>427.34399414062</ele>
        <time>2009-11-18T13:39:50Z</time>
      </trkpt>
      <trkpt lat="45.15802" lon="5.16046">
        <ele>428.45199584961</ele>
        <time>2009-11-18T13:39:58Z</time>
      </trkpt>
      <trkpt lat="45.15804" lon="5.16061">
        <ele>428.89700317383</ele>
        <time>2009-11-18T13:40:00Z</time>
      </trkpt>
      <trkpt lat="45.1581" lon="5.16138">
        <ele>431.02200317383</ele>
        <time>2009-11-18T13:40:11Z</time>
      </trkpt>
      <trkpt lat="45.15809" lon="5.16159">
        <ele>430.91400146484</ele>
        <time>2009-11-18T13:40:14Z</time>
      </trkpt>
      <trkpt lat="45.15807" lon="5.16207">
        <ele>431.95700073242</ele>
        <time>2009-11-18T13:40:21Z</time>
      </trkpt>
      <trkpt lat="45.15806" lon="5.16278">
        <ele>433.24600219727</ele>
        <time>2009-11-18T13:40:31Z</time>
      </trkpt>
      <trkpt lat="45.15806" lon="5.16315">
        <ele>434.06298828125</ele>
        <time>2009-11-18T13:40:40Z</time>
      </trkpt>
      <trkpt lat="45.15812" lon="5.16393">
        <ele>435.20199584961</ele>
        <time>2009-11-18T13:40:47Z</time>
      </trkpt>
      <trkpt lat="45.15818" lon="5.16465">
        <ele>437.02301025391</ele>
        <time>2009-11-18T13:40:57Z</time>
      </trkpt>
      <trkpt lat="45.15823" lon="5.16523">
        <ele>437.93600463867</ele>
        <time>2009-11-18T13:41:05Z</time>
      </trkpt>
      <trkpt lat="45.15819" lon="5.16575">
        <ele>439.15100097656</ele>
        <time>2009-11-18T13:41:12Z</time>
      </trkpt>
      <trkpt lat="45.15815" lon="5.16628">
        <ele>440.5299987793</ele>
        <time>2009-11-18T13:41:23Z</time>
      </trkpt>
      <trkpt lat="45.15815" lon="5.16697">
        <ele>441.23001098633</ele>
        <time>2009-11-18T13:41:29Z</time>
      </trkpt>
      <trkpt lat="45.15823" lon="5.16735">
        <ele>442.75900268555</ele>
        <time>2009-11-18T13:41:39Z</time>
      </trkpt>
      <trkpt lat="45.15848" lon="5.16842">
        <ele>444.52499389648</ele>
        <time>2009-11-18T13:41:50Z</time>
      </trkpt>
      <trkpt lat="45.15863" lon="5.16921">
        <ele>445.96499633789</ele>
        <time>2009-11-18T13:42:01Z</time>
      </trkpt>
      <trkpt lat="45.15876" lon="5.16994">
        <ele>447.49798583984</ele>
        <time>2009-11-18T13:42:11Z</time>
      </trkpt>
      <trkpt lat="45.15883" lon="5.17031">
        <ele>448.51998901367</ele>
        <time>2009-11-18T13:42:20Z</time>
      </trkpt>
      <trkpt lat="45.15896" lon="5.17143">
        <ele>449.83599853516</ele>
        <time>2009-11-18T13:42:31Z</time>
      </trkpt>
      <trkpt lat="45.15899" lon="5.17219">
        <ele>451.8210144043</ele>
        <time>2009-11-18T13:42:40Z</time>
      </trkpt>
      <trkpt lat="45.15903" lon="5.17299">
        <ele>453.36401367188</ele>
        <time>2009-11-18T13:42:50Z</time>
      </trkpt>
      <trkpt lat="45.15913" lon="5.17371">
        <ele>454.86898803711</ele>
        <time>2009-11-18T13:42:59Z</time>
      </trkpt>
      <trkpt lat="45.15931" lon="5.17455">
        <ele>456.5530090332</ele>
        <time>2009-11-18T13:43:10Z</time>
      </trkpt>
      <trkpt lat="45.1595" lon="5.1754">
        <ele>458.8630065918</ele>
        <time>2009-11-18T13:43:21Z</time>
      </trkpt>
      <trkpt lat="45.15961" lon="5.17592">
        <ele>460.01998901367</ele>
        <time>2009-11-18T13:43:28Z</time>
      </trkpt>
      <trkpt lat="45.15989" lon="5.17664">
        <ele>460.78500366211</ele>
        <time>2009-11-18T13:43:38Z</time>
      </trkpt>
      <trkpt lat="45.15999" lon="5.17701">
        <ele>461.5119934082</ele>
        <time>2009-11-18T13:43:43Z</time>
      </trkpt>
      <trkpt lat="45.15998" lon="5.17749">
        <ele>462.24499511719</ele>
        <time>2009-11-18T13:43:49Z</time>
      </trkpt>
      <trkpt lat="45.15983" lon="5.17837">
        <ele>464.20498657227</ele>
        <time>2009-11-18T13:44:00Z</time>
      </trkpt>
      <trkpt lat="45.15972" lon="5.179">
        <ele>464.79098510742</ele>
        <time>2009-11-18T13:44:08Z</time>
      </trkpt>
      <trkpt lat="45.15967" lon="5.17959">
        <ele>465.36898803711</ele>
        <time>2009-11-18T13:44:15Z</time>
      </trkpt>
      <trkpt lat="45.15958" lon="5.18009">
        <ele>465.35299682617</ele>
        <time>2009-11-18T13:44:21Z</time>
      </trkpt>
      <trkpt lat="45.15938" lon="5.18071">
        <ele>466.0419921875</ele>
        <time>2009-11-18T13:44:29Z</time>
      </trkpt>
      <trkpt lat="45.15921" lon="5.18118">
        <ele>466.09100341797</ele>
        <time>2009-11-18T13:44:35Z</time>
      </trkpt>
      <trkpt lat="45.15897" lon="5.18159">
        <ele>466.74499511719</ele>
        <time>2009-11-18T13:44:41Z</time>
      </trkpt>
      <trkpt lat="45.15888" lon="5.18171">
        <ele>466.90100097656</ele>
        <time>2009-11-18T13:44:43Z</time>
      </trkpt>
      <trkpt lat="45.15879" lon="5.18192">
        <ele>467.12200927734</ele>
        <time>2009-11-18T13:44:46Z</time>
      </trkpt>
      <trkpt lat="45.15871" lon="5.18224">
        <ele>467.36401367188</ele>
        <time>2009-11-18T13:44:50Z</time>
      </trkpt>
      <trkpt lat="45.15861" lon="5.18255">
        <ele>467.31600952148</ele>
        <time>2009-11-18T13:44:54Z</time>
      </trkpt>
      <trkpt lat="45.15858" lon="5.18261">
        <ele>467.64498901367</ele>
        <time>2009-11-18T13:44:55Z</time>
      </trkpt>
      <trkpt lat="45.15829" lon="5.18316">
        <ele>468.17498779297</ele>
        <time>2009-11-18T13:45:03Z</time>
      </trkpt>
      <trkpt lat="45.15815" lon="5.18344">
        <ele>468.63800048828</ele>
        <time>2009-11-18T13:45:07Z</time>
      </trkpt>
      <trkpt lat="45.1581" lon="5.18381">
        <ele>469.40600585938</ele>
        <time>2009-11-18T13:45:12Z</time>
      </trkpt>
      <trkpt lat="45.15815" lon="5.18399">
        <ele>469.82998657227</ele>
        <time>2009-11-18T13:45:15Z</time>
      </trkpt>
      <trkpt lat="45.15818" lon="5.18406">
        <ele>469.93399047852</ele>
        <time>2009-11-18T13:45:16Z</time>
      </trkpt>
      <trkpt lat="45.15858" lon="5.18438">
        <ele>471.03399658203</ele>
        <time>2009-11-18T13:45:25Z</time>
      </trkpt>
      <trkpt lat="45.15886" lon="5.18466">
        <ele>472.09100341797</ele>
        <time>2009-11-18T13:45:32Z</time>
      </trkpt>
      <trkpt lat="45.1591" lon="5.18493">
        <ele>472.93798828125</ele>
        <time>2009-11-18T13:45:38Z</time>
      </trkpt>
      <trkpt lat="45.15914" lon="5.18498">
        <ele>472.92300415039</ele>
        <time>2009-11-18T13:45:39Z</time>
      </trkpt>
      <trkpt lat="45.15939" lon="5.18518">
        <ele>473.75500488281</ele>
        <time>2009-11-18T13:45:45Z</time>
      </trkpt>
      <trkpt lat="45.15963" lon="5.18529">
        <ele>474.57299804688</ele>
        <time>2009-11-18T13:45:50Z</time>
      </trkpt>
      <trkpt lat="45.15968" lon="5.18533">
        <ele>474.8210144043</ele>
        <time>2009-11-18T13:45:51Z</time>
      </trkpt>
      <trkpt lat="45.15994" lon="5.18568">
        <ele>476.02499389648</ele>
        <time>2009-11-18T13:45:58Z</time>
      </trkpt>
      <trkpt lat="45.16021" lon="5.18617">
        <ele>475.92498779297</ele>
        <time>2009-11-18T13:46:06Z</time>
      </trkpt>
      <trkpt lat="45.16049" lon="5.18694">
        <ele>475.46099853516</ele>
        <time>2009-11-18T13:46:16Z</time>
      </trkpt>
      <trkpt lat="45.16059" lon="5.18747">
        <ele>475.10998535156</ele>
        <time>2009-11-18T13:46:22Z</time>
      </trkpt>
      <trkpt lat="45.16057" lon="5.18794">
        <ele>475.28900146484</ele>
        <time>2009-11-18T13:46:27Z</time>
      </trkpt>
      <trkpt lat="45.16049" lon="5.18847">
        <ele>475.14999389648</ele>
        <time>2009-11-18T13:46:33Z</time>
      </trkpt>
      <trkpt lat="45.1604" lon="5.1891">
        <ele>474.84600830078</ele>
        <time>2009-11-18T13:46:40Z</time>
      </trkpt>
      <trkpt lat="45.16019" lon="5.18977">
        <ele>473.91299438477</ele>
        <time>2009-11-18T13:46:48Z</time>
      </trkpt>
      <trkpt lat="45.15999" lon="5.19026">
        <ele>473.29299926758</ele>
        <time>2009-11-18T13:46:54Z</time>
      </trkpt>
      <trkpt lat="45.15986" lon="5.1907">
        <ele>472.84899902344</ele>
        <time>2009-11-18T13:46:59Z</time>
      </trkpt>
      <trkpt lat="45.15986" lon="5.19078">
        <ele>472.74200439453</ele>
        <time>2009-11-18T13:47:02Z</time>
      </trkpt>
      <trkpt lat="45.16025" lon="5.19153">
        <ele>473.52099609375</ele>
        <time>2009-11-18T13:47:10Z</time>
      </trkpt>
      <trkpt lat="45.16032" lon="5.19167">
        <ele>472.56298828125</ele>
        <time>2009-11-18T13:47:12Z</time>
      </trkpt>
      <trkpt lat="45.16046" lon="5.19194">
        <ele>471.69100952148</ele>
        <time>2009-11-18T13:47:18Z</time>
      </trkpt>
      <trkpt lat="45.16095" lon="5.19259">
        <ele>471.92498779297</ele>
        <time>2009-11-18T13:47:26Z</time>
      </trkpt>
      <trkpt lat="45.1613" lon="5.19311">
        <ele>472.45901489258</ele>
        <time>2009-11-18T13:47:34Z</time>
      </trkpt>
      <trkpt lat="45.16149" lon="5.19347">
        <ele>472.01599121094</ele>
        <time>2009-11-18T13:47:39Z</time>
      </trkpt>
      <trkpt lat="45.16171" lon="5.19388">
        <ele>471.68301391602</ele>
        <time>2009-11-18T13:47:45Z</time>
      </trkpt>
      <trkpt lat="45.1619" lon="5.19435">
        <ele>471.65899658203</ele>
        <time>2009-11-18T13:47:51Z</time>
      </trkpt>
      <trkpt lat="45.16203" lon="5.1947">
        <ele>471.59698486328</ele>
        <time>2009-11-18T13:47:55Z</time>
      </trkpt>
      <trkpt lat="45.16231" lon="5.19515">
        <ele>471.01300048828</ele>
        <time>2009-11-18T13:48:01Z</time>
      </trkpt>
      <trkpt lat="45.16236" lon="5.19522">
        <ele>471.08599853516</ele>
        <time>2009-11-18T13:48:02Z</time>
      </trkpt>
      <trkpt lat="45.1626" lon="5.19566">
        <ele>472.05801391602</ele>
        <time>2009-11-18T13:48:08Z</time>
      </trkpt>
      <trkpt lat="45.16262" lon="5.19573">
        <ele>472.31399536133</ele>
        <time>2009-11-18T13:48:09Z</time>
      </trkpt>
      <trkpt lat="45.16271" lon="5.19636">
        <ele>472.63000488281</ele>
        <time>2009-11-18T13:48:16Z</time>
      </trkpt>
      <trkpt lat="45.16281" lon="5.19727">
        <ele>473.43798828125</ele>
        <time>2009-11-18T13:48:26Z</time>
      </trkpt>
      <trkpt lat="45.16289" lon="5.19829">
        <ele>473.8210144043</ele>
        <time>2009-11-18T13:48:37Z</time>
      </trkpt>
      <trkpt lat="45.16294" lon="5.19903">
        <ele>473.75299072266</ele>
        <time>2009-11-18T13:48:45Z</time>
      </trkpt>
      <trkpt lat="45.16301" lon="5.19967">
        <ele>474.51300048828</ele>
        <time>2009-11-18T13:48:52Z</time>
      </trkpt>
      <trkpt lat="45.16306" lon="5.20045">
        <ele>475.64300537109</ele>
        <time>2009-11-18T13:49:01Z</time>
      </trkpt>
      <trkpt lat="45.16302" lon="5.20099">
        <ele>476.32800292969</ele>
        <time>2009-11-18T13:49:07Z</time>
      </trkpt>
      <trkpt lat="45.16298" lon="5.20148">
        <ele>477.22698974609</ele>
        <time>2009-11-18T13:49:13Z</time>
      </trkpt>
      <trkpt lat="45.16298" lon="5.20155">
        <ele>476.98901367188</ele>
        <time>2009-11-18T13:49:14Z</time>
      </trkpt>
      <trkpt lat="45.16299" lon="5.20193">
        <ele>477.4280090332</ele>
        <time>2009-11-18T13:49:21Z</time>
      </trkpt>
      <trkpt lat="45.16306" lon="5.202">
        <ele>477.60900878906</ele>
        <time>2009-11-18T13:49:26Z</time>
      </trkpt>
      <trkpt lat="45.16307" lon="5.20201">
        <ele>477.50900268555</ele>
        <time>2009-11-18T13:49:29Z</time>
      </trkpt>
      <trkpt lat="45.16309" lon="5.20203">
        <ele>477.42300415039</ele>
        <time>2009-11-18T13:50:08Z</time>
      </trkpt>
      <trkpt lat="45.16311" lon="5.20203">
        <ele>477.39401245117</ele>
        <time>2009-11-18T13:50:09Z</time>
      </trkpt>
      <trkpt lat="45.1632" lon="5.20203">
        <ele>477.72299194336</ele>
        <time>2009-11-18T13:50:13Z</time>
      </trkpt>
      <trkpt lat="45.16344" lon="5.20204">
        <ele>478.35800170898</ele>
        <time>2009-11-18T13:50:18Z</time>
      </trkpt>
      <trkpt lat="45.16385" lon="5.20206">
        <ele>478.91400146484</ele>
        <time>2009-11-18T13:50:25Z</time>
      </trkpt>
      <trkpt lat="45.16433" lon="5.20209">
        <ele>479.49200439453</ele>
        <time>2009-11-18T13:50:33Z</time>
      </trkpt>
      <trkpt lat="45.16484" lon="5.20211">
        <ele>480.00399780273</ele>
        <time>2009-11-18T13:50:41Z</time>
      </trkpt>
      <trkpt lat="45.16547" lon="5.20214">
        <ele>481.02398681641</ele>
        <time>2009-11-18T13:50:51Z</time>
      </trkpt>
      <trkpt lat="45.1659" lon="5.20215">
        <ele>481.91198730469</ele>
        <time>2009-11-18T13:50:58Z</time>
      </trkpt>
      <trkpt lat="45.16609" lon="5.20213">
        <ele>482.54501342773</ele>
        <time>2009-11-18T13:51:01Z</time>
      </trkpt>
      <trkpt lat="45.16632" lon="5.20204">
        <ele>483.41598510742</ele>
        <time>2009-11-18T13:51:05Z</time>
      </trkpt>
      <trkpt lat="45.16637" lon="5.20191">
        <ele>483.39498901367</ele>
        <time>2009-11-18T13:51:07Z</time>
      </trkpt>
      <trkpt lat="45.16654" lon="5.20123">
        <ele>483.89300537109</ele>
        <time>2009-11-18T13:51:15Z</time>
      </trkpt>
      <trkpt lat="45.16669" lon="5.20064">
        <ele>484.48699951172</ele>
        <time>2009-11-18T13:51:22Z</time>
      </trkpt>
      <trkpt lat="45.16691" lon="5.2003">
        <ele>485.20498657227</ele>
        <time>2009-11-18T13:51:27Z</time>
      </trkpt>
      <trkpt lat="45.16696" lon="5.20025">
        <ele>485.19198608398</ele>
        <time>2009-11-18T13:51:28Z</time>
      </trkpt>
      <trkpt lat="45.16729" lon="5.20008">
        <ele>485.58499145508</ele>
        <time>2009-11-18T13:51:33Z</time>
      </trkpt>
      <trkpt lat="45.16804" lon="5.20009">
        <ele>487.0710144043</ele>
        <time>2009-11-18T13:51:44Z</time>
      </trkpt>
      <trkpt lat="45.16867" lon="5.20013">
        <ele>488.45999145508</ele>
        <time>2009-11-18T13:51:53Z</time>
      </trkpt>
      <trkpt lat="45.16893" lon="5.20023">
        <ele>488.19299316406</ele>
        <time>2009-11-18T13:51:57Z</time>
      </trkpt>
      <trkpt lat="45.16925" lon="5.20061">
        <ele>489.00399780273</ele>
        <time>2009-11-18T13:52:03Z</time>
      </trkpt>
      <trkpt lat="45.16971" lon="5.20129">
        <ele>490.35299682617</ele>
        <time>2009-11-18T13:52:13Z</time>
      </trkpt>
      <trkpt lat="45.16986" lon="5.20142">
        <ele>490.44198608398</ele>
        <time>2009-11-18T13:52:16Z</time>
      </trkpt>
      <trkpt lat="45.17017" lon="5.20155">
        <ele>491.20999145508</ele>
        <time>2009-11-18T13:52:21Z</time>
      </trkpt>
      <trkpt lat="45.17036" lon="5.20156">
        <ele>491.60900878906</ele>
        <time>2009-11-18T13:52:24Z</time>
      </trkpt>
      <trkpt lat="45.17077" lon="5.20129">
        <ele>491.40798950195</ele>
        <time>2009-11-18T13:52:31Z</time>
      </trkpt>
      <trkpt lat="45.1711" lon="5.20091">
        <ele>490.81698608398</ele>
        <time>2009-11-18T13:52:37Z</time>
      </trkpt>
      <trkpt lat="45.17128" lon="5.20069">
        <ele>490.54901123047</ele>
        <time>2009-11-18T13:52:40Z</time>
      </trkpt>
      <trkpt lat="45.17157" lon="5.20052">
        <ele>489.8330078125</ele>
        <time>2009-11-18T13:52:44Z</time>
      </trkpt>
      <trkpt lat="45.17165" lon="5.20052">
        <ele>489.6369934082</ele>
        <time>2009-11-18T13:52:45Z</time>
      </trkpt>
      <trkpt lat="45.17215" lon="5.20052">
        <ele>489.03298950195</ele>
        <time>2009-11-18T13:52:51Z</time>
      </trkpt>
      <trkpt lat="45.17242" lon="5.20041">
        <ele>487.45599365234</ele>
        <time>2009-11-18T13:52:55Z</time>
      </trkpt>
      <trkpt lat="45.17258" lon="5.20026">
        <ele>486.52899169922</ele>
        <time>2009-11-18T13:52:57Z</time>
      </trkpt>
      <trkpt lat="45.173" lon="5.20012">
        <ele>484.20599365234</ele>
        <time>2009-11-18T13:53:01Z</time>
      </trkpt>
      <trkpt lat="45.17329" lon="5.19995">
        <ele>482.90798950195</ele>
        <time>2009-11-18T13:53:04Z</time>
      </trkpt>
      <trkpt lat="45.17359" lon="5.19977">
        <ele>479.49600219727</ele>
        <time>2009-11-18T13:53:07Z</time>
      </trkpt>
      <trkpt lat="45.17403" lon="5.19963">
        <ele>476.22900390625</ele>
        <time>2009-11-18T13:53:11Z</time>
      </trkpt>
      <trkpt lat="45.17421" lon="5.19981">
        <ele>474.03698730469</ele>
        <time>2009-11-18T13:53:13Z</time>
      </trkpt>
      <trkpt lat="45.17429" lon="5.19992">
        <ele>473.55999755859</ele>
        <time>2009-11-18T13:53:14Z</time>
      </trkpt>
      <trkpt lat="45.17492" lon="5.20072">
        <ele>468.58599853516</ele>
        <time>2009-11-18T13:53:21Z</time>
      </trkpt>
      <trkpt lat="45.175" lon="5.20084">
        <ele>467.5299987793</ele>
        <time>2009-11-18T13:53:22Z</time>
      </trkpt>
      <trkpt lat="45.17534" lon="5.20157">
        <ele>462.24798583984</ele>
        <time>2009-11-18T13:53:27Z</time>
      </trkpt>
      <trkpt lat="45.17546" lon="5.2019">
        <ele>460.85000610352</ele>
        <time>2009-11-18T13:53:29Z</time>
      </trkpt>
      <trkpt lat="45.17564" lon="5.20238">
        <ele>457.23999023438</ele>
        <time>2009-11-18T13:53:32Z</time>
      </trkpt>
      <trkpt lat="45.17577" lon="5.2031">
        <ele>454.05700683594</ele>
        <time>2009-11-18T13:53:36Z</time>
      </trkpt>
      <trkpt lat="45.17579" lon="5.20363">
        <ele>451.04800415039</ele>
        <time>2009-11-18T13:53:39Z</time>
      </trkpt>
      <trkpt lat="45.17607" lon="5.20399">
        <ele>448.43701171875</ele>
        <time>2009-11-18T13:53:42Z</time>
      </trkpt>
      <trkpt lat="45.17668" lon="5.20471">
        <ele>443.24798583984</ele>
        <time>2009-11-18T13:53:48Z</time>
      </trkpt>
      <trkpt lat="45.17747" lon="5.20563">
        <ele>436.72698974609</ele>
        <time>2009-11-18T13:53:56Z</time>
      </trkpt>
      <trkpt lat="45.17766" lon="5.20586">
        <ele>435.28799438477</ele>
        <time>2009-11-18T13:53:58Z</time>
      </trkpt>
      <trkpt lat="45.17775" lon="5.20615">
        <ele>432.90399169922</ele>
        <time>2009-11-18T13:54:00Z</time>
      </trkpt>
      <trkpt lat="45.17772" lon="5.20644">
        <ele>431.90899658203</ele>
        <time>2009-11-18T13:54:02Z</time>
      </trkpt>
      <trkpt lat="45.17757" lon="5.20711">
        <ele>428.45300292969</ele>
        <time>2009-11-18T13:54:06Z</time>
      </trkpt>
      <trkpt lat="45.17748" lon="5.2078">
        <ele>423.96798706055</ele>
        <time>2009-11-18T13:54:10Z</time>
      </trkpt>
      <trkpt lat="45.17746" lon="5.20802">
        <ele>423.34899902344</ele>
        <time>2009-11-18T13:54:11Z</time>
      </trkpt>
      <trkpt lat="45.17763" lon="5.20848">
        <ele>420.00201416016</ele>
        <time>2009-11-18T13:54:14Z</time>
      </trkpt>
      <trkpt lat="45.17772" lon="5.2086">
        <ele>419.53500366211</ele>
        <time>2009-11-18T13:54:15Z</time>
      </trkpt>
      <trkpt lat="45.17812" lon="5.20908">
        <ele>416.12600708008</ele>
        <time>2009-11-18T13:54:19Z</time>
      </trkpt>
      <trkpt lat="45.17849" lon="5.20959">
        <ele>411.7200012207</ele>
        <time>2009-11-18T13:54:23Z</time>
      </trkpt>
      <trkpt lat="45.17873" lon="5.21027">
        <ele>408.11599731445</ele>
        <time>2009-11-18T13:54:27Z</time>
      </trkpt>
      <trkpt lat="45.17887" lon="5.21101">
        <ele>402.6789855957</ele>
        <time>2009-11-18T13:54:31Z</time>
      </trkpt>
      <trkpt lat="45.17879" lon="5.21156">
        <ele>398.37899780273</ele>
        <time>2009-11-18T13:54:34Z</time>
      </trkpt>
      <trkpt lat="45.17859" lon="5.2118">
        <ele>396.75698852539</ele>
        <time>2009-11-18T13:54:36Z</time>
      </trkpt>
      <trkpt lat="45.1778" lon="5.21215">
        <ele>388.76400756836</ele>
        <time>2009-11-18T13:54:43Z</time>
      </trkpt>
      <trkpt lat="45.1778" lon="5.21215">
        <ele>385.85598754883</ele>
        <time>2009-11-18T13:54:46Z</time>
      </trkpt>
      <trkpt lat="45.17708" lon="5.21258">
        <ele>383.83401489258</ele>
        <time>2009-11-18T13:54:48Z</time>
      </trkpt>
      <trkpt lat="45.17694" lon="5.21267">
        <ele>378.29501342773</ele>
        <time>2009-11-18T13:54:53Z</time>
      </trkpt>
      <trkpt lat="45.17573" lon="5.21365">
        <ele>371.15798950195</ele>
        <time>2009-11-18T13:54:59Z</time>
      </trkpt>
      <trkpt lat="45.17518" lon="5.2139">
        <ele>366.48901367188</ele>
        <time>2009-11-18T13:55:03Z</time>
      </trkpt>
      <trkpt lat="45.17492" lon="5.21408">
        <ele>363.81698608398</ele>
        <time>2009-11-18T13:55:05Z</time>
      </trkpt>
      <trkpt lat="45.17434" lon="5.21464">
        <ele>357.76599121094</ele>
        <time>2009-11-18T13:55:10Z</time>
      </trkpt>
      <trkpt lat="45.17424" lon="5.21473">
        <ele>356.0710144043</ele>
        <time>2009-11-18T13:55:13Z</time>
      </trkpt>
      <trkpt lat="45.17413" lon="5.21508">
        <ele>355.09899902344</ele>
        <time>2009-11-18T13:55:15Z</time>
      </trkpt>
      <trkpt lat="45.17417" lon="5.21521">
        <ele>353.74798583984</ele>
        <time>2009-11-18T13:55:18Z</time>
      </trkpt>
      <trkpt lat="45.17429" lon="5.21527">
        <ele>353.23498535156</ele>
        <time>2009-11-18T13:55:20Z</time>
      </trkpt>
      <trkpt lat="45.17477" lon="5.21537">
        <ele>353.50601196289</ele>
        <time>2009-11-18T13:55:27Z</time>
      </trkpt>
      <trkpt lat="45.17487" lon="5.21537">
        <ele>353.85101318359</ele>
        <time>2009-11-18T13:55:31Z</time>
      </trkpt>
      <trkpt lat="45.17488" lon="5.21537">
        <ele>353.8219909668</ele>
        <time>2009-11-18T13:55:34Z</time>
      </trkpt>
      <trkpt lat="45.17488" lon="5.21537">
        <ele>353.48999023438</ele>
        <time>2009-11-18T13:55:39Z</time>
      </trkpt>
      <trkpt lat="45.17503" lon="5.21521">
        <ele>353.48699951172</ele>
        <time>2009-11-18T13:55:41Z</time>
      </trkpt>
      <trkpt lat="45.17524" lon="5.21498">
        <ele>353.35501098633</ele>
        <time>2009-11-18T13:55:46Z</time>
      </trkpt>
      <trkpt lat="45.17549" lon="5.2148">
        <ele>353.02301025391</ele>
        <time>2009-11-18T13:55:51Z</time>
      </trkpt>
      <trkpt lat="45.1756" lon="5.21472">
        <ele>352.83200073242</ele>
        <time>2009-11-18T13:55:53Z</time>
      </trkpt>
      <trkpt lat="45.1759" lon="5.21454">
        <ele>352.85501098633</ele>
        <time>2009-11-18T13:55:58Z</time>
      </trkpt>
      <trkpt lat="45.17619" lon="5.21451">
        <ele>353.8039855957</ele>
        <time>2009-11-18T13:56:03Z</time>
      </trkpt>
      <trkpt lat="45.17651" lon="5.21458">
        <ele>355.29000854492</ele>
        <time>2009-11-18T13:56:09Z</time>
      </trkpt>
      <trkpt lat="45.17664" lon="5.21461">
        <ele>355.65701293945</ele>
        <time>2009-11-18T13:56:12Z</time>
      </trkpt>
      <trkpt lat="45.17677" lon="5.21464">
        <ele>356.66598510742</ele>
        <time>2009-11-18T13:56:16Z</time>
      </trkpt>
      <trkpt lat="45.17707" lon="5.21447">
        <ele>358.25698852539</ele>
        <time>2009-11-18T13:56:22Z</time>
      </trkpt>
      <trkpt lat="45.17742" lon="5.21401">
        <ele>358.75299072266</ele>
        <time>2009-11-18T13:56:30Z</time>
      </trkpt>
      <trkpt lat="45.17751" lon="5.21391">
        <ele>358.82800292969</ele>
        <time>2009-11-18T13:56:32Z</time>
      </trkpt>
      <trkpt lat="45.1777" lon="5.21375">
        <ele>358.88400268555</ele>
        <time>2009-11-18T13:56:36Z</time>
      </trkpt>
      <trkpt lat="45.17823" lon="5.21366">
        <ele>359.05099487305</ele>
        <time>2009-11-18T13:56:46Z</time>
      </trkpt>
      <trkpt lat="45.17873" lon="5.21351">
        <ele>360.85800170898</ele>
        <time>2009-11-18T13:56:53Z</time>
      </trkpt>
      <trkpt lat="45.1789" lon="5.2135">
        <ele>361.44100952148</ele>
        <time>2009-11-18T13:56:56Z</time>
      </trkpt>
      <trkpt lat="45.17911" lon="5.21358">
        <ele>362.31399536133</ele>
        <time>2009-11-18T13:57:00Z</time>
      </trkpt>
      <trkpt lat="45.17951" lon="5.21387">
        <ele>364.1969909668</ele>
        <time>2009-11-18T13:57:08Z</time>
      </trkpt>
      <trkpt lat="45.17996" lon="5.21419">
        <ele>366.24200439453</ele>
        <time>2009-11-18T13:57:17Z</time>
      </trkpt>
      <trkpt lat="45.18028" lon="5.2143">
        <ele>367.66198730469</ele>
        <time>2009-11-18T13:57:23Z</time>
      </trkpt>
      <trkpt lat="45.1806" lon="5.21428">
        <ele>369.59399414062</ele>
        <time>2009-11-18T13:57:29Z</time>
      </trkpt>
      <trkpt lat="45.1808" lon="5.21423">
        <ele>370.46099853516</ele>
        <time>2009-11-18T13:57:33Z</time>
      </trkpt>
      <trkpt lat="45.18127" lon="5.21427">
        <ele>372.14700317383</ele>
        <time>2009-11-18T13:57:42Z</time>
      </trkpt>
      <trkpt lat="45.18163" lon="5.21432">
        <ele>374.01400756836</ele>
        <time>2009-11-18T13:57:49Z</time>
      </trkpt>
      <trkpt lat="45.18213" lon="5.21439">
        <ele>376.78799438477</ele>
        <time>2009-11-18T13:57:59Z</time>
      </trkpt>
      <trkpt lat="45.18217" lon="5.21438">
        <ele>376.98300170898</ele>
        <time>2009-11-18T13:58:00Z</time>
      </trkpt>
      <trkpt lat="45.18236" lon="5.21434">
        <ele>378.55599975586</ele>
        <time>2009-11-18T13:58:04Z</time>
      </trkpt>
      <trkpt lat="45.1828" lon="5.21414">
        <ele>381.4049987793</ele>
        <time>2009-11-18T13:58:14Z</time>
      </trkpt>
      <trkpt lat="45.1832" lon="5.21397">
        <ele>383.88000488281</ele>
        <time>2009-11-18T13:58:23Z</time>
      </trkpt>
      <trkpt lat="45.18372" lon="5.21369">
        <ele>387.5119934082</ele>
        <time>2009-11-18T13:58:35Z</time>
      </trkpt>
      <trkpt lat="45.18398" lon="5.21353">
        <ele>389.44900512695</ele>
        <time>2009-11-18T13:58:41Z</time>
      </trkpt>
      <trkpt lat="45.18438" lon="5.2133">
        <ele>391.95999145508</ele>
        <time>2009-11-18T13:58:50Z</time>
      </trkpt>
      <trkpt lat="45.18486" lon="5.21302">
        <ele>395.09298706055</ele>
        <time>2009-11-18T13:59:01Z</time>
      </trkpt>
      <trkpt lat="45.18528" lon="5.21277">
        <ele>398.11898803711</ele>
        <time>2009-11-18T13:59:11Z</time>
      </trkpt>
      <trkpt lat="45.18555" lon="5.21262">
        <ele>399.95700073242</ele>
        <time>2009-11-18T13:59:17Z</time>
      </trkpt>
      <trkpt lat="45.18591" lon="5.21241">
        <ele>402.36801147461</ele>
        <time>2009-11-18T13:59:25Z</time>
      </trkpt>
      <trkpt lat="45.18635" lon="5.21215">
        <ele>405.02700805664</ele>
        <time>2009-11-18T13:59:35Z</time>
      </trkpt>
      <trkpt lat="45.18672" lon="5.21193">
        <ele>407.59100341797</ele>
        <time>2009-11-18T13:59:44Z</time>
      </trkpt>
      <trkpt lat="45.18723" lon="5.21166">
        <ele>411.14801025391</ele>
        <time>2009-11-18T13:59:57Z</time>
      </trkpt>
      <trkpt lat="45.18742" lon="5.21158">
        <ele>412.32000732422</ele>
        <time>2009-11-18T14:00:02Z</time>
      </trkpt>
      <trkpt lat="45.18778" lon="5.21143">
        <ele>414.81100463867</ele>
        <time>2009-11-18T14:00:11Z</time>
      </trkpt>
      <trkpt lat="45.18795" lon="5.2114">
        <ele>415.95300292969</ele>
        <time>2009-11-18T14:00:15Z</time>
      </trkpt>
      <trkpt lat="45.18819" lon="5.21135">
        <ele>417.52700805664</ele>
        <time>2009-11-18T14:00:21Z</time>
      </trkpt>
      <trkpt lat="45.18844" lon="5.2113">
        <ele>419.27099609375</ele>
        <time>2009-11-18T14:00:27Z</time>
      </trkpt>
      <trkpt lat="45.18875" lon="5.21116">
        <ele>421.24398803711</ele>
        <time>2009-11-18T14:00:35Z</time>
      </trkpt>
      <trkpt lat="45.18914" lon="5.21099">
        <ele>423.71899414062</ele>
        <time>2009-11-18T14:00:45Z</time>
      </trkpt>
      <trkpt lat="45.18943" lon="5.21086">
        <ele>425.85900878906</ele>
        <time>2009-11-18T14:00:53Z</time>
      </trkpt>
      <trkpt lat="45.18968" lon="5.21066">
        <ele>427.95901489258</ele>
        <time>2009-11-18T14:01:01Z</time>
      </trkpt>
      <trkpt lat="45.18978" lon="5.21056">
        <ele>428.60198974609</ele>
        <time>2009-11-18T14:01:04Z</time>
      </trkpt>
      <trkpt lat="45.19006" lon="5.21028">
        <ele>430.55999755859</ele>
        <time>2009-11-18T14:01:12Z</time>
      </trkpt>
      <trkpt lat="45.19029" lon="5.21005">
        <ele>432.38500976562</ele>
        <time>2009-11-18T14:01:19Z</time>
      </trkpt>
      <trkpt lat="45.19039" lon="5.20991">
        <ele>433.57598876953</ele>
        <time>2009-11-18T14:01:23Z</time>
      </trkpt>
      <trkpt lat="45.19044" lon="5.20981">
        <ele>433.8330078125</ele>
        <time>2009-11-18T14:01:25Z</time>
      </trkpt>
      <trkpt lat="45.19066" lon="5.20934">
        <ele>435.41198730469</ele>
        <time>2009-11-18T14:01:34Z</time>
      </trkpt>
      <trkpt lat="45.19088" lon="5.20875">
        <ele>437.05801391602</ele>
        <time>2009-11-18T14:01:43Z</time>
      </trkpt>
      <trkpt lat="45.19112" lon="5.20836">
        <ele>437.98599243164</ele>
        <time>2009-11-18T14:01:50Z</time>
      </trkpt>
      <trkpt lat="45.19142" lon="5.20793">
        <ele>440.16198730469</ele>
        <time>2009-11-18T14:01:58Z</time>
      </trkpt>
      <trkpt lat="45.19186" lon="5.20751">
        <ele>442.02301025391</ele>
        <time>2009-11-18T14:02:09Z</time>
      </trkpt>
      <trkpt lat="45.19231" lon="5.20708">
        <ele>444.31201171875</ele>
        <time>2009-11-18T14:02:21Z</time>
      </trkpt>
      <trkpt lat="45.1927" lon="5.20683">
        <ele>445.73001098633</ele>
        <time>2009-11-18T14:02:31Z</time>
      </trkpt>
      <trkpt lat="45.19305" lon="5.20666">
        <ele>447.2380065918</ele>
        <time>2009-11-18T14:02:39Z</time>
      </trkpt>
      <trkpt lat="45.19342" lon="5.20655">
        <ele>448.60198974609</ele>
        <time>2009-11-18T14:02:47Z</time>
      </trkpt>
      <trkpt lat="45.19388" lon="5.20642">
        <ele>450.77200317383</ele>
        <time>2009-11-18T14:02:57Z</time>
      </trkpt>
      <trkpt lat="45.19436" lon="5.20628">
        <ele>453.03799438477</ele>
        <time>2009-11-18T14:03:08Z</time>
      </trkpt>
      <trkpt lat="45.19465" lon="5.20603">
        <ele>455.07901000977</ele>
        <time>2009-11-18T14:03:16Z</time>
      </trkpt>
      <trkpt lat="45.19496" lon="5.20576">
        <ele>457.68701171875</ele>
        <time>2009-11-18T14:03:25Z</time>
      </trkpt>
      <trkpt lat="45.19499" lon="5.20573">
        <ele>457.83898925781</ele>
        <time>2009-11-18T14:03:26Z</time>
      </trkpt>
      <trkpt lat="45.19511" lon="5.20554">
        <ele>458.83200073242</ele>
        <time>2009-11-18T14:03:30Z</time>
      </trkpt>
      <trkpt lat="45.19531" lon="5.20506">
        <ele>461.84100341797</ele>
        <time>2009-11-18T14:03:39Z</time>
      </trkpt>
      <trkpt lat="45.19537" lon="5.20461">
        <ele>463.61599731445</ele>
        <time>2009-11-18T14:03:47Z</time>
      </trkpt>
      <trkpt lat="45.19541" lon="5.20408">
        <ele>465.96200561523</ele>
        <time>2009-11-18T14:03:56Z</time>
      </trkpt>
      <trkpt lat="45.19546" lon="5.20361">
        <ele>468.30999755859</ele>
        <time>2009-11-18T14:04:04Z</time>
      </trkpt>
      <trkpt lat="45.19563" lon="5.20319">
        <ele>470.45999145508</ele>
        <time>2009-11-18T14:04:12Z</time>
      </trkpt>
      <trkpt lat="45.1958" lon="5.20272">
        <ele>472.86401367188</ele>
        <time>2009-11-18T14:04:20Z</time>
      </trkpt>
      <trkpt lat="45.19587" lon="5.20261">
        <ele>473.68200683594</ele>
        <time>2009-11-18T14:04:22Z</time>
      </trkpt>
      <trkpt lat="45.19607" lon="5.20234">
        <ele>476.18600463867</ele>
        <time>2009-11-18T14:04:28Z</time>
      </trkpt>
      <trkpt lat="45.19613" lon="5.20232">
        <ele>476.49499511719</ele>
        <time>2009-11-18T14:04:29Z</time>
      </trkpt>
      <trkpt lat="45.19643" lon="5.20225">
        <ele>478.30200195312</ele>
        <time>2009-11-18T14:04:36Z</time>
      </trkpt>
      <trkpt lat="45.19665" lon="5.20214">
        <ele>480.21600341797</ele>
        <time>2009-11-18T14:04:43Z</time>
      </trkpt>
      <trkpt lat="45.1967" lon="5.20193">
        <ele>480.92199707031</ele>
        <time>2009-11-18T14:04:48Z</time>
      </trkpt>
      <trkpt lat="45.19667" lon="5.20176">
        <ele>481.78601074219</ele>
        <time>2009-11-18T14:04:53Z</time>
      </trkpt>
      <trkpt lat="45.19656" lon="5.20155">
        <ele>483.06600952148</ele>
        <time>2009-11-18T14:04:58Z</time>
      </trkpt>
      <trkpt lat="45.19646" lon="5.20137">
        <ele>483.76800537109</ele>
        <time>2009-11-18T14:05:03Z</time>
      </trkpt>
      <trkpt lat="45.19638" lon="5.2011">
        <ele>484.8869934082</ele>
        <time>2009-11-18T14:05:09Z</time>
      </trkpt>
      <trkpt lat="45.19634" lon="5.20079">
        <ele>486.73498535156</ele>
        <time>2009-11-18T14:05:16Z</time>
      </trkpt>
      <trkpt lat="45.19634" lon="5.20056">
        <ele>487.55801391602</ele>
        <time>2009-11-18T14:05:21Z</time>
      </trkpt>
      <trkpt lat="45.19634" lon="5.20027">
        <ele>488.86499023438</ele>
        <time>2009-11-18T14:05:28Z</time>
      </trkpt>
      <trkpt lat="45.19634" lon="5.19999">
        <ele>489.97500610352</ele>
        <time>2009-11-18T14:05:35Z</time>
      </trkpt>
      <trkpt lat="45.19634" lon="5.19972">
        <ele>490.07501220703</ele>
        <time>2009-11-18T14:05:42Z</time>
      </trkpt>
      <trkpt lat="45.19634" lon="5.19948">
        <ele>490.03298950195</ele>
        <time>2009-11-18T14:05:47Z</time>
      </trkpt>
      <trkpt lat="45.19634" lon="5.19936">
        <ele>489.84698486328</ele>
        <time>2009-11-18T14:05:49Z</time>
      </trkpt>
      <trkpt lat="45.19629" lon="5.19879">
        <ele>489.79800415039</ele>
        <time>2009-11-18T14:05:57Z</time>
      </trkpt>
      <trkpt lat="45.19622" lon="5.1982">
        <ele>489.19299316406</ele>
        <time>2009-11-18T14:06:04Z</time>
      </trkpt>
      <trkpt lat="45.19612" lon="5.19742">
        <ele>488.25</ele>
        <time>2009-11-18T14:06:12Z</time>
      </trkpt>
      <trkpt lat="45.19604" lon="5.19666">
        <ele>486.46200561523</ele>
        <time>2009-11-18T14:06:19Z</time>
      </trkpt>
      <trkpt lat="45.19608" lon="5.19584">
        <ele>484.5530090332</ele>
        <time>2009-11-18T14:06:26Z</time>
      </trkpt>
      <trkpt lat="45.1961" lon="5.19442">
        <ele>482.4469909668</ele>
        <time>2009-11-18T14:06:37Z</time>
      </trkpt>
      <trkpt lat="45.19612" lon="5.19327">
        <ele>481.03500366211</ele>
        <time>2009-11-18T14:06:46Z</time>
      </trkpt>
      <trkpt lat="45.19619" lon="5.19249">
        <ele>479.47299194336</ele>
        <time>2009-11-18T14:06:52Z</time>
      </trkpt>
      <trkpt lat="45.19629" lon="5.1915">
        <ele>476.91198730469</ele>
        <time>2009-11-18T14:06:59Z</time>
      </trkpt>
      <trkpt lat="45.19642" lon="5.19012">
        <ele>473.23300170898</ele>
        <time>2009-11-18T14:07:08Z</time>
      </trkpt>
      <trkpt lat="45.19642" lon="5.18918">
        <ele>471.15798950195</ele>
        <time>2009-11-18T14:07:14Z</time>
      </trkpt>
      <trkpt lat="45.19642" lon="5.18901">
        <ele>470.93499755859</ele>
        <time>2009-11-18T14:07:15Z</time>
      </trkpt>
      <trkpt lat="45.19657" lon="5.18825">
        <ele>469.00799560547</ele>
        <time>2009-11-18T14:07:20Z</time>
      </trkpt>
      <trkpt lat="45.19666" lon="5.18795">
        <ele>468.02398681641</ele>
        <time>2009-11-18T14:07:22Z</time>
      </trkpt>
      <trkpt lat="45.19666" lon="5.18763">
        <ele>467.29901123047</ele>
        <time>2009-11-18T14:07:24Z</time>
      </trkpt>
      <trkpt lat="45.19657" lon="5.1867">
        <ele>464.96600341797</ele>
        <time>2009-11-18T14:07:30Z</time>
      </trkpt>
      <trkpt lat="45.19659" lon="5.18545">
        <ele>462</ele>
        <time>2009-11-18T14:07:38Z</time>
      </trkpt>
      <trkpt lat="45.19663" lon="5.1845">
        <ele>459.94799804688</ele>
        <time>2009-11-18T14:07:44Z</time>
      </trkpt>
      <trkpt lat="45.19667" lon="5.1842">
        <ele>459.04598999023</ele>
        <time>2009-11-18T14:07:46Z</time>
      </trkpt>
      <trkpt lat="45.19678" lon="5.18391">
        <ele>458.55899047852</ele>
        <time>2009-11-18T14:07:48Z</time>
      </trkpt>
      <trkpt lat="45.19704" lon="5.18318">
        <ele>456.87100219727</ele>
        <time>2009-11-18T14:07:53Z</time>
      </trkpt>
      <trkpt lat="45.19719" lon="5.18221">
        <ele>454.07000732422</ele>
        <time>2009-11-18T14:07:59Z</time>
      </trkpt>
      <trkpt lat="45.19735" lon="5.1804">
        <ele>450.31799316406</ele>
        <time>2009-11-18T14:08:10Z</time>
      </trkpt>
      <trkpt lat="45.19735" lon="5.17978">
        <ele>448.9580078125</ele>
        <time>2009-11-18T14:08:14Z</time>
      </trkpt>
      <trkpt lat="45.19733" lon="5.17962">
        <ele>448.64401245117</ele>
        <time>2009-11-18T14:08:15Z</time>
      </trkpt>
      <trkpt lat="45.19728" lon="5.17915">
        <ele>447.39300537109</ele>
        <time>2009-11-18T14:08:18Z</time>
      </trkpt>
      <trkpt lat="45.19723" lon="5.17902">
        <ele>447.01800537109</ele>
        <time>2009-11-18T14:08:19Z</time>
      </trkpt>
      <trkpt lat="45.19713" lon="5.17859">
        <ele>445.60198974609</ele>
        <time>2009-11-18T14:08:22Z</time>
      </trkpt>
      <trkpt lat="45.1972" lon="5.17831">
        <ele>445.4580078125</ele>
        <time>2009-11-18T14:08:24Z</time>
      </trkpt>
      <trkpt lat="45.1975" lon="5.17716">
        <ele>443.30700683594</ele>
        <time>2009-11-18T14:08:32Z</time>
      </trkpt>
      <trkpt lat="45.19769" lon="5.17646">
        <ele>441.88101196289</ele>
        <time>2009-11-18T14:08:37Z</time>
      </trkpt>
      <trkpt lat="45.19772" lon="5.17633">
        <ele>441.82299804688</ele>
        <time>2009-11-18T14:08:38Z</time>
      </trkpt>
      <trkpt lat="45.19783" lon="5.17578">
        <ele>441.57299804688</ele>
        <time>2009-11-18T14:08:42Z</time>
      </trkpt>
      <trkpt lat="45.1978" lon="5.17503">
        <ele>439.90899658203</ele>
        <time>2009-11-18T14:08:47Z</time>
      </trkpt>
      <trkpt lat="45.1981" lon="5.17407">
        <ele>438.5299987793</ele>
        <time>2009-11-18T14:08:54Z</time>
      </trkpt>
      <trkpt lat="45.19848" lon="5.17315">
        <ele>437.29598999023</ele>
        <time>2009-11-18T14:09:01Z</time>
      </trkpt>
      <trkpt lat="45.19869" lon="5.17265">
        <ele>436.38000488281</ele>
        <time>2009-11-18T14:09:05Z</time>
      </trkpt>
      <trkpt lat="45.19875" lon="5.17252">
        <ele>436.21701049805</ele>
        <time>2009-11-18T14:09:06Z</time>
      </trkpt>
      <trkpt lat="45.19883" lon="5.17211">
        <ele>435.55599975586</ele>
        <time>2009-11-18T14:09:09Z</time>
      </trkpt>
      <trkpt lat="45.19886" lon="5.17125">
        <ele>434.27200317383</ele>
        <time>2009-11-18T14:09:15Z</time>
      </trkpt>
      <trkpt lat="45.19884" lon="5.16995">
        <ele>432.60598754883</ele>
        <time>2009-11-18T14:09:24Z</time>
      </trkpt>
      <trkpt lat="45.19887" lon="5.16878">
        <ele>431.16299438477</ele>
        <time>2009-11-18T14:09:32Z</time>
      </trkpt>
      <trkpt lat="45.19887" lon="5.16872">
        <ele>430.54699707031</ele>
        <time>2009-11-18T14:09:33Z</time>
      </trkpt>
      <trkpt lat="45.19873" lon="5.16811">
        <ele>429.85501098633</ele>
        <time>2009-11-18T14:09:37Z</time>
      </trkpt>
      <trkpt lat="45.19839" lon="5.16735">
        <ele>428.48999023438</ele>
        <time>2009-11-18T14:09:43Z</time>
      </trkpt>
      <trkpt lat="45.19807" lon="5.16641">
        <ele>426.40899658203</ele>
        <time>2009-11-18T14:09:50Z</time>
      </trkpt>
      <trkpt lat="45.19797" lon="5.16612">
        <ele>425.69299316406</ele>
        <time>2009-11-18T14:09:52Z</time>
      </trkpt>
      <trkpt lat="45.19786" lon="5.16583">
        <ele>424.51800537109</ele>
        <time>2009-11-18T14:09:54Z</time>
      </trkpt>
      <trkpt lat="45.19788" lon="5.16518">
        <ele>423.00900268555</ele>
        <time>2009-11-18T14:09:58Z</time>
      </trkpt>
      <trkpt lat="45.19794" lon="5.16468">
        <ele>421.50100708008</ele>
        <time>2009-11-18T14:10:01Z</time>
      </trkpt>
      <trkpt lat="45.19802" lon="5.16367">
        <ele>417.9169921875</ele>
        <time>2009-11-18T14:10:07Z</time>
      </trkpt>
      <trkpt lat="45.19806" lon="5.16327">
        <ele>416.21200561523</ele>
        <time>2009-11-18T14:10:10Z</time>
      </trkpt>
      <trkpt lat="45.19815" lon="5.16252">
        <ele>415.49600219727</ele>
        <time>2009-11-18T14:10:14Z</time>
      </trkpt>
      <trkpt lat="45.19838" lon="5.16186">
        <ele>416.39999389648</ele>
        <time>2009-11-18T14:10:19Z</time>
      </trkpt>
      <trkpt lat="45.1987" lon="5.16093">
        <ele>417.52301025391</ele>
        <time>2009-11-18T14:10:27Z</time>
      </trkpt>
      <trkpt lat="45.1989" lon="5.16017">
        <ele>418.33401489258</ele>
        <time>2009-11-18T14:10:34Z</time>
      </trkpt>
      <trkpt lat="45.19898" lon="5.15953">
        <ele>419.32901000977</ele>
        <time>2009-11-18T14:10:40Z</time>
      </trkpt>
      <trkpt lat="45.19901" lon="5.15868">
        <ele>420.03500366211</ele>
        <time>2009-11-18T14:10:48Z</time>
      </trkpt>
      <trkpt lat="45.19904" lon="5.15759">
        <ele>420.86199951172</ele>
        <time>2009-11-18T14:10:58Z</time>
      </trkpt>
      <trkpt lat="45.19898" lon="5.15685">
        <ele>421.41500854492</ele>
        <time>2009-11-18T14:11:05Z</time>
      </trkpt>
      <trkpt lat="45.19883" lon="5.15577">
        <ele>420.81799316406</ele>
        <time>2009-11-18T14:11:15Z</time>
      </trkpt>
      <trkpt lat="45.19864" lon="5.15499">
        <ele>420.40301513672</ele>
        <time>2009-11-18T14:11:22Z</time>
      </trkpt>
      <trkpt lat="45.19841" lon="5.1542">
        <ele>419.24798583984</ele>
        <time>2009-11-18T14:11:29Z</time>
      </trkpt>
      <trkpt lat="45.19814" lon="5.15331">
        <ele>418.7200012207</ele>
        <time>2009-11-18T14:11:37Z</time>
      </trkpt>
      <trkpt lat="45.19791" lon="5.15252">
        <ele>418.20098876953</ele>
        <time>2009-11-18T14:11:44Z</time>
      </trkpt>
      <trkpt lat="45.19761" lon="5.15149">
        <ele>417.45599365234</ele>
        <time>2009-11-18T14:11:53Z</time>
      </trkpt>
      <trkpt lat="45.19743" lon="5.15091">
        <ele>415.6780090332</ele>
        <time>2009-11-18T14:11:58Z</time>
      </trkpt>
      <trkpt lat="45.19735" lon="5.15002">
        <ele>415.02499389648</ele>
        <time>2009-11-18T14:12:05Z</time>
      </trkpt>
      <trkpt lat="45.19729" lon="5.14918">
        <ele>413.70300292969</ele>
        <time>2009-11-18T14:12:12Z</time>
      </trkpt>
      <trkpt lat="45.19725" lon="5.14823">
        <ele>412.40100097656</ele>
        <time>2009-11-18T14:12:20Z</time>
      </trkpt>
      <trkpt lat="45.19717" lon="5.14767">
        <ele>411.18600463867</ele>
        <time>2009-11-18T14:12:25Z</time>
      </trkpt>
      <trkpt lat="45.19698" lon="5.14727">
        <ele>410.40600585938</ele>
        <time>2009-11-18T14:12:29Z</time>
      </trkpt>
      <trkpt lat="45.19694" lon="5.14722">
        <ele>409.47900390625</ele>
        <time>2009-11-18T14:12:31Z</time>
      </trkpt>
      <trkpt lat="45.19633" lon="5.14672">
        <ele>407.51800537109</ele>
        <time>2009-11-18T14:12:37Z</time>
      </trkpt>
      <trkpt lat="45.19624" lon="5.14665">
        <ele>407.57400512695</ele>
        <time>2009-11-18T14:12:38Z</time>
      </trkpt>
      <trkpt lat="45.19599" lon="5.14625">
        <ele>408.29800415039</ele>
        <time>2009-11-18T14:12:42Z</time>
      </trkpt>
      <trkpt lat="45.19595" lon="5.14603">
        <ele>408.63598632812</ele>
        <time>2009-11-18T14:12:44Z</time>
      </trkpt>
      <trkpt lat="45.19595" lon="5.14585">
        <ele>409.47198486328</ele>
        <time>2009-11-18T14:12:50Z</time>
      </trkpt>
      <trkpt lat="45.19593" lon="5.14496">
        <ele>409.82299804688</ele>
        <time>2009-11-18T14:12:56Z</time>
      </trkpt>
      <trkpt lat="45.19592" lon="5.14469">
        <ele>409.16198730469</ele>
        <time>2009-11-18T14:12:59Z</time>
      </trkpt>
      <trkpt lat="45.19584" lon="5.1443">
        <ele>407.12399291992</ele>
        <time>2009-11-18T14:13:04Z</time>
      </trkpt>
      <trkpt lat="45.19573" lon="5.14416">
        <ele>405.99798583984</ele>
        <time>2009-11-18T14:13:06Z</time>
      </trkpt>
      <trkpt lat="45.19561" lon="5.14403">
        <ele>404.91799926758</ele>
        <time>2009-11-18T14:13:08Z</time>
      </trkpt>
      <trkpt lat="45.19536" lon="5.14377">
        <ele>403.12200927734</ele>
        <time>2009-11-18T14:13:12Z</time>
      </trkpt>
      <trkpt lat="45.19513" lon="5.14341">
        <ele>399.42001342773</ele>
        <time>2009-11-18T14:13:17Z</time>
      </trkpt>
      <trkpt lat="45.19506" lon="5.14304">
        <ele>398.71099853516</ele>
        <time>2009-11-18T14:13:21Z</time>
      </trkpt>
      <trkpt lat="45.19509" lon="5.14295">
        <ele>398.53399658203</ele>
        <time>2009-11-18T14:13:22Z</time>
      </trkpt>
      <trkpt lat="45.19513" lon="5.14286">
        <ele>398.8039855957</ele>
        <time>2009-11-18T14:13:23Z</time>
      </trkpt>
      <trkpt lat="45.19529" lon="5.14248">
        <ele>399.59298706055</ele>
        <time>2009-11-18T14:13:28Z</time>
      </trkpt>
      <trkpt lat="45.19531" lon="5.14223">
        <ele>400.35101318359</ele>
        <time>2009-11-18T14:13:31Z</time>
      </trkpt>
      <trkpt lat="45.1953" lon="5.1418">
        <ele>401.05099487305</ele>
        <time>2009-11-18T14:13:36Z</time>
      </trkpt>
      <trkpt lat="45.19525" lon="5.14152">
        <ele>400.60000610352</ele>
        <time>2009-11-18T14:13:39Z</time>
      </trkpt>
      <trkpt lat="45.19522" lon="5.14139">
        <ele>399.96099853516</ele>
        <time>2009-11-18T14:13:42Z</time>
      </trkpt>
      <trkpt lat="45.1951" lon="5.14052">
        <ele>396.47100830078</ele>
        <time>2009-11-18T14:13:48Z</time>
      </trkpt>
      <trkpt lat="45.19496" lon="5.13943">
        <ele>394.13000488281</ele>
        <time>2009-11-18T14:13:57Z</time>
      </trkpt>
      <trkpt lat="45.19485" lon="5.13864">
        <ele>391.90600585938</ele>
        <time>2009-11-18T14:14:03Z</time>
      </trkpt>
      <trkpt lat="45.19479" lon="5.13806">
        <ele>389.73901367188</ele>
        <time>2009-11-18T14:14:07Z</time>
      </trkpt>
      <trkpt lat="45.19478" lon="5.13747">
        <ele>387.10501098633</ele>
        <time>2009-11-18T14:14:11Z</time>
      </trkpt>
      <trkpt lat="45.19477" lon="5.13684">
        <ele>384.04098510742</ele>
        <time>2009-11-18T14:14:15Z</time>
      </trkpt>
      <trkpt lat="45.19475" lon="5.13565">
        <ele>379.50201416016</ele>
        <time>2009-11-18T14:14:22Z</time>
      </trkpt>
      <trkpt lat="45.19472" lon="5.1343">
        <ele>377.99798583984</ele>
        <time>2009-11-18T14:14:30Z</time>
      </trkpt>
      <trkpt lat="45.19471" lon="5.13342">
        <ele>377.66101074219</ele>
        <time>2009-11-18T14:14:36Z</time>
      </trkpt>
      <trkpt lat="45.19473" lon="5.13314">
        <ele>377.41500854492</ele>
        <time>2009-11-18T14:14:38Z</time>
      </trkpt>
      <trkpt lat="45.19487" lon="5.13206">
        <ele>376.48001098633</ele>
        <time>2009-11-18T14:14:46Z</time>
      </trkpt>
      <trkpt lat="45.19506" lon="5.13094">
        <ele>373.83700561523</ele>
        <time>2009-11-18T14:14:54Z</time>
      </trkpt>
      <trkpt lat="45.19513" lon="5.13015">
        <ele>371.17999267578</ele>
        <time>2009-11-18T14:14:59Z</time>
      </trkpt>
      <trkpt lat="45.19522" lon="5.12887">
        <ele>368.74899291992</ele>
        <time>2009-11-18T14:15:07Z</time>
      </trkpt>
      <trkpt lat="45.19519" lon="5.12764">
        <ele>365.75799560547</ele>
        <time>2009-11-18T14:15:15Z</time>
      </trkpt>
      <trkpt lat="45.19525" lon="5.12702">
        <ele>361.69100952148</ele>
        <time>2009-11-18T14:15:19Z</time>
      </trkpt>
      <trkpt lat="45.19535" lon="5.12656">
        <ele>359.53601074219</ele>
        <time>2009-11-18T14:15:22Z</time>
      </trkpt>
      <trkpt lat="45.19555" lon="5.12632">
        <ele>357.28601074219</ele>
        <time>2009-11-18T14:15:24Z</time>
      </trkpt>
      <trkpt lat="45.19622" lon="5.12591">
        <ele>356.73300170898</ele>
        <time>2009-11-18T14:15:30Z</time>
      </trkpt>
      <trkpt lat="45.19643" lon="5.12578">
        <ele>356.06100463867</ele>
        <time>2009-11-18T14:15:32Z</time>
      </trkpt>
      <trkpt lat="45.19672" lon="5.12545">
        <ele>355.52301025391</ele>
        <time>2009-11-18T14:15:36Z</time>
      </trkpt>
      <trkpt lat="45.19681" lon="5.12508">
        <ele>354.98498535156</ele>
        <time>2009-11-18T14:15:39Z</time>
      </trkpt>
      <trkpt lat="45.19678" lon="5.12495">
        <ele>354.68600463867</ele>
        <time>2009-11-18T14:15:40Z</time>
      </trkpt>
      <trkpt lat="45.19643" lon="5.12346">
        <ele>353.14599609375</ele>
        <time>2009-11-18T14:15:51Z</time>
      </trkpt>
      <trkpt lat="45.19611" lon="5.12212">
        <ele>351.93899536133</ele>
        <time>2009-11-18T14:16:01Z</time>
      </trkpt>
      <trkpt lat="45.19582" lon="5.12088">
        <ele>350.78399658203</ele>
        <time>2009-11-18T14:16:10Z</time>
      </trkpt>
      <trkpt lat="45.19574" lon="5.12053">
        <ele>351.17999267578</ele>
        <time>2009-11-18T14:16:14Z</time>
      </trkpt>
      <trkpt lat="45.19588" lon="5.11999">
        <ele>351.80200195312</ele>
        <time>2009-11-18T14:16:17Z</time>
      </trkpt>
      <trkpt lat="45.19591" lon="5.11993">
        <ele>351.76800537109</ele>
        <time>2009-11-18T14:16:20Z</time>
      </trkpt>
      <trkpt lat="45.19601" lon="5.1195">
        <ele>351.83700561523</ele>
        <time>2009-11-18T14:16:21Z</time>
      </trkpt>
      <trkpt lat="45.19598" lon="5.11867">
        <ele>353.45401000977</ele>
        <time>2009-11-18T14:16:27Z</time>
      </trkpt>
      <trkpt lat="45.1959" lon="5.11794">
        <ele>355.50698852539</ele>
        <time>2009-11-18T14:16:32Z</time>
      </trkpt>
      <trkpt lat="45.19588" lon="5.11749">
        <ele>355.57400512695</ele>
        <time>2009-11-18T14:16:36Z</time>
      </trkpt>
      <trkpt lat="45.19591" lon="5.11731">
        <ele>355.94799804688</ele>
        <time>2009-11-18T14:16:40Z</time>
      </trkpt>
      <trkpt lat="45.19571" lon="5.11716">
        <ele>355.81500244141</ele>
        <time>2009-11-18T14:16:45Z</time>
      </trkpt>
      <trkpt lat="45.1954" lon="5.11693">
        <ele>355.21398925781</ele>
        <time>2009-11-18T14:16:52Z</time>
      </trkpt>
      <trkpt lat="45.19523" lon="5.11678">
        <ele>355.03201293945</ele>
        <time>2009-11-18T14:16:55Z</time>
      </trkpt>
      <trkpt lat="45.19502" lon="5.11631">
        <ele>354.22799682617</ele>
        <time>2009-11-18T14:17:01Z</time>
      </trkpt>
      <trkpt lat="45.19484" lon="5.11569">
        <ele>353.70901489258</ele>
        <time>2009-11-18T14:17:08Z</time>
      </trkpt>
      <trkpt lat="45.19461" lon="5.11497">
        <ele>353.01501464844</ele>
        <time>2009-11-18T14:17:16Z</time>
      </trkpt>
      <trkpt lat="45.19441" lon="5.11431">
        <ele>352.32998657227</ele>
        <time>2009-11-18T14:17:23Z</time>
      </trkpt>
      <trkpt lat="45.19427" lon="5.11379">
        <ele>351.72198486328</ele>
        <time>2009-11-18T14:17:28Z</time>
      </trkpt>
      <trkpt lat="45.19401" lon="5.11289">
        <ele>350.56698608398</ele>
        <time>2009-11-18T14:17:37Z</time>
      </trkpt>
      <trkpt lat="45.1937" lon="5.11183">
        <ele>348.16598510742</ele>
        <time>2009-11-18T14:17:47Z</time>
      </trkpt>
      <trkpt lat="45.19357" lon="5.11137">
        <ele>346.98098754883</ele>
        <time>2009-11-18T14:17:51Z</time>
      </trkpt>
      <trkpt lat="45.19344" lon="5.11091">
        <ele>345.50201416016</ele>
        <time>2009-11-18T14:17:55Z</time>
      </trkpt>
      <trkpt lat="45.1933" lon="5.11043">
        <ele>343.66299438477</ele>
        <time>2009-11-18T14:17:59Z</time>
      </trkpt>
      <trkpt lat="45.19311" lon="5.10976">
        <ele>343.87701416016</ele>
        <time>2009-11-18T14:18:05Z</time>
      </trkpt>
      <trkpt lat="45.19308" lon="5.10967">
        <ele>343.14498901367</ele>
        <time>2009-11-18T14:18:06Z</time>
      </trkpt>
      <trkpt lat="45.19304" lon="5.10951">
        <ele>342.52200317383</ele>
        <time>2009-11-18T14:18:08Z</time>
      </trkpt>
      <trkpt lat="45.19287" lon="5.10959">
        <ele>341.89199829102</ele>
        <time>2009-11-18T14:18:11Z</time>
      </trkpt>
      <trkpt lat="45.19233" lon="5.1099">
        <ele>338.94299316406</ele>
        <time>2009-11-18T14:18:19Z</time>
      </trkpt>
      <trkpt lat="45.19196" lon="5.11007">
        <ele>336.47299194336</ele>
        <time>2009-11-18T14:18:24Z</time>
      </trkpt>
      <trkpt lat="45.19145" lon="5.1102">
        <ele>335.67599487305</ele>
        <time>2009-11-18T14:18:30Z</time>
      </trkpt>
      <trkpt lat="45.19138" lon="5.11021">
        <ele>336.02301025391</ele>
        <time>2009-11-18T14:18:31Z</time>
      </trkpt>
      <trkpt lat="45.1911" lon="5.1102">
        <ele>336.78799438477</ele>
        <time>2009-11-18T14:18:35Z</time>
      </trkpt>
      <trkpt lat="45.19076" lon="5.11002">
        <ele>336.93600463867</ele>
        <time>2009-11-18T14:18:43Z</time>
      </trkpt>
      <trkpt lat="45.19037" lon="5.10959">
        <ele>338.2380065918</ele>
        <time>2009-11-18T14:18:49Z</time>
      </trkpt>
      <trkpt lat="45.19011" lon="5.10931">
        <ele>339.33099365234</ele>
        <time>2009-11-18T14:18:55Z</time>
      </trkpt>
      <trkpt lat="45.18988" lon="5.10905">
        <ele>340.41299438477</ele>
        <time>2009-11-18T14:19:01Z</time>
      </trkpt>
      <trkpt lat="45.18986" lon="5.10903">
        <ele>341.35900878906</ele>
        <time>2009-11-18T14:19:07Z</time>
      </trkpt>
      <trkpt lat="45.18949" lon="5.10854">
        <ele>342.46499633789</ele>
        <time>2009-11-18T14:19:12Z</time>
      </trkpt>
      <trkpt lat="45.18925" lon="5.10823">
        <ele>343.38101196289</ele>
        <time>2009-11-18T14:19:19Z</time>
      </trkpt>
      <trkpt lat="45.18901" lon="5.10791">
        <ele>344.10299682617</ele>
        <time>2009-11-18T14:19:26Z</time>
      </trkpt>
      <trkpt lat="45.18891" lon="5.10778">
        <ele>344.93200683594</ele>
        <time>2009-11-18T14:19:29Z</time>
      </trkpt>
      <trkpt lat="45.18866" lon="5.10744">
        <ele>346.46600341797</ele>
        <time>2009-11-18T14:19:37Z</time>
      </trkpt>
      <trkpt lat="45.1885" lon="5.1073">
        <ele>347.41598510742</ele>
        <time>2009-11-18T14:19:42Z</time>
      </trkpt>
      <trkpt lat="45.18826" lon="5.10713">
        <ele>348.35598754883</ele>
        <time>2009-11-18T14:19:48Z</time>
      </trkpt>
      <trkpt lat="45.18817" lon="5.10709">
        <ele>348.38500976562</ele>
        <time>2009-11-18T14:19:50Z</time>
      </trkpt>
      <trkpt lat="45.18801" lon="5.10701">
        <ele>348.98400878906</ele>
        <time>2009-11-18T14:19:54Z</time>
      </trkpt>
      <trkpt lat="45.18781" lon="5.10712">
        <ele>349.64001464844</ele>
        <time>2009-11-18T14:19:59Z</time>
      </trkpt>
      <trkpt lat="45.18771" lon="5.10736">
        <ele>350.72100830078</ele>
        <time>2009-11-18T14:20:09Z</time>
      </trkpt>
      <trkpt lat="45.18735" lon="5.10797">
        <ele>351.85101318359</ele>
        <time>2009-11-18T14:20:16Z</time>
      </trkpt>
      <trkpt lat="45.18718" lon="5.10826">
        <ele>352.62200927734</ele>
        <time>2009-11-18T14:20:22Z</time>
      </trkpt>
      <trkpt lat="45.1869" lon="5.10856">
        <ele>353.47900390625</ele>
        <time>2009-11-18T14:20:30Z</time>
      </trkpt>
      <trkpt lat="45.18663" lon="5.10879">
        <ele>354.43099975586</ele>
        <time>2009-11-18T14:20:37Z</time>
      </trkpt>
      <trkpt lat="45.18633" lon="5.10904">
        <ele>355.95300292969</ele>
        <time>2009-11-18T14:20:45Z</time>
      </trkpt>
      <trkpt lat="45.18616" lon="5.10924">
        <ele>356.67700195312</ele>
        <time>2009-11-18T14:20:50Z</time>
      </trkpt>
      <trkpt lat="45.18592" lon="5.10971">
        <ele>357.33499145508</ele>
        <time>2009-11-18T14:20:59Z</time>
      </trkpt>
      <trkpt lat="45.18585" lon="5.10988">
        <ele>357.48300170898</ele>
        <time>2009-11-18T14:21:02Z</time>
      </trkpt>
      <trkpt lat="45.18581" lon="5.10999">
        <ele>357.47799682617</ele>
        <time>2009-11-18T14:21:04Z</time>
      </trkpt>
      <trkpt lat="45.18566" lon="5.11006">
        <ele>357.41799926758</ele>
        <time>2009-11-18T14:21:08Z</time>
      </trkpt>
      <trkpt lat="45.18553" lon="5.11002">
        <ele>357.39300537109</ele>
        <time>2009-11-18T14:21:11Z</time>
      </trkpt>
      <trkpt lat="45.18544" lon="5.10986">
        <ele>357.49700927734</ele>
        <time>2009-11-18T14:21:14Z</time>
      </trkpt>
      <trkpt lat="45.18547" lon="5.10963">
        <ele>357.97299194336</ele>
        <time>2009-11-18T14:21:17Z</time>
      </trkpt>
      <trkpt lat="45.1855" lon="5.10949">
        <ele>358.27801513672</ele>
        <time>2009-11-18T14:21:19Z</time>
      </trkpt>
      <trkpt lat="45.18554" lon="5.10937">
        <ele>358.51400756836</ele>
        <time>2009-11-18T14:21:21Z</time>
      </trkpt>
      <trkpt lat="45.1856" lon="5.10906">
        <ele>359.72900390625</ele>
        <time>2009-11-18T14:21:26Z</time>
      </trkpt>
      <trkpt lat="45.18559" lon="5.10895">
        <ele>360.29501342773</ele>
        <time>2009-11-18T14:21:28Z</time>
      </trkpt>
      <trkpt lat="45.18553" lon="5.10858">
        <ele>361.56298828125</ele>
        <time>2009-11-18T14:21:34Z</time>
      </trkpt>
      <trkpt lat="45.18552" lon="5.1082">
        <ele>363.06698608398</ele>
        <time>2009-11-18T14:21:40Z</time>
      </trkpt>
      <trkpt lat="45.18559" lon="5.10803">
        <ele>363.59298706055</ele>
        <time>2009-11-18T14:21:43Z</time>
      </trkpt>
      <trkpt lat="45.18576" lon="5.10762">
        <ele>364.6130065918</ele>
        <time>2009-11-18T14:21:51Z</time>
      </trkpt>
      <trkpt lat="45.18587" lon="5.10722">
        <ele>365.46301269531</ele>
        <time>2009-11-18T14:21:58Z</time>
      </trkpt>
      <trkpt lat="45.1859" lon="5.10692">
        <ele>366.09298706055</ele>
        <time>2009-11-18T14:22:03Z</time>
      </trkpt>
      <trkpt lat="45.18584" lon="5.10628">
        <ele>367.64801025391</ele>
        <time>2009-11-18T14:22:13Z</time>
      </trkpt>
      <trkpt lat="45.18576" lon="5.1057">
        <ele>368.92098999023</ele>
        <time>2009-11-18T14:22:22Z</time>
      </trkpt>
      <trkpt lat="45.18567" lon="5.10517">
        <ele>369.3219909668</ele>
        <time>2009-11-18T14:22:30Z</time>
      </trkpt>
      <trkpt lat="45.1855" lon="5.10454">
        <ele>370.90798950195</ele>
        <time>2009-11-18T14:22:40Z</time>
      </trkpt>
      <trkpt lat="45.1853" lon="5.10407">
        <ele>371.79299926758</ele>
        <time>2009-11-18T14:22:48Z</time>
      </trkpt>
      <trkpt lat="45.18507" lon="5.10362">
        <ele>372.74200439453</ele>
        <time>2009-11-18T14:22:56Z</time>
      </trkpt>
      <trkpt lat="45.18502" lon="5.10351">
        <ele>373.22799682617</ele>
        <time>2009-11-18T14:22:58Z</time>
      </trkpt>
      <trkpt lat="45.18464" lon="5.10319">
        <ele>374.39599609375</ele>
        <time>2009-11-18T14:23:07Z</time>
      </trkpt>
      <trkpt lat="45.18434" lon="5.10293">
        <ele>376.02099609375</ele>
        <time>2009-11-18T14:23:15Z</time>
      </trkpt>
      <trkpt lat="45.18397" lon="5.10263">
        <ele>378.03399658203</ele>
        <time>2009-11-18T14:23:25Z</time>
      </trkpt>
      <trkpt lat="45.18369" lon="5.10246">
        <ele>379.07299804688</ele>
        <time>2009-11-18T14:23:32Z</time>
      </trkpt>
      <trkpt lat="45.18342" lon="5.10224">
        <ele>380.10501098633</ele>
        <time>2009-11-18T14:23:39Z</time>
      </trkpt>
      <trkpt lat="45.18307" lon="5.10185">
        <ele>380.17999267578</ele>
        <time>2009-11-18T14:23:48Z</time>
      </trkpt>
      <trkpt lat="45.18287" lon="5.10148">
        <ele>380.16799926758</ele>
        <time>2009-11-18T14:23:55Z</time>
      </trkpt>
      <trkpt lat="45.18282" lon="5.10138">
        <ele>380.02600097656</ele>
        <time>2009-11-18T14:23:57Z</time>
      </trkpt>
      <trkpt lat="45.18263" lon="5.10098">
        <ele>378.23599243164</ele>
        <time>2009-11-18T14:24:04Z</time>
      </trkpt>
      <trkpt lat="45.1826" lon="5.10091">
        <ele>378.00201416016</ele>
        <time>2009-11-18T14:24:05Z</time>
      </trkpt>
      <trkpt lat="45.18247" lon="5.10071">
        <ele>377.28100585938</ele>
        <time>2009-11-18T14:24:08Z</time>
      </trkpt>
      <trkpt lat="45.18242" lon="5.10063">
        <ele>376.8030090332</ele>
        <time>2009-11-18T14:24:09Z</time>
      </trkpt>
      <trkpt lat="45.18232" lon="5.10052">
        <ele>376.45700073242</ele>
        <time>2009-11-18T14:24:11Z</time>
      </trkpt>
      <trkpt lat="45.18216" lon="5.10046">
        <ele>376.14599609375</ele>
        <time>2009-11-18T14:24:14Z</time>
      </trkpt>
      <trkpt lat="45.18201" lon="5.1002">
        <ele>376.84698486328</ele>
        <time>2009-11-18T14:24:20Z</time>
      </trkpt>
      <trkpt lat="45.1818" lon="5.10039">
        <ele>377.19100952148</ele>
        <time>2009-11-18T14:24:23Z</time>
      </trkpt>
      <trkpt lat="45.18159" lon="5.10066">
        <ele>378.25201416016</ele>
        <time>2009-11-18T14:24:30Z</time>
      </trkpt>
      <trkpt lat="45.18139" lon="5.10089">
        <ele>379.06298828125</ele>
        <time>2009-11-18T14:24:37Z</time>
      </trkpt>
      <trkpt lat="45.18136" lon="5.10092">
        <ele>379.70700073242</ele>
        <time>2009-11-18T14:24:42Z</time>
      </trkpt>
      <trkpt lat="45.18092" lon="5.10143">
        <ele>380.98498535156</ele>
        <time>2009-11-18T14:24:50Z</time>
      </trkpt>
      <trkpt lat="45.1806" lon="5.10172">
        <ele>382.43701171875</ele>
        <time>2009-11-18T14:24:58Z</time>
      </trkpt>
      <trkpt lat="45.18044" lon="5.10186">
        <ele>383.17599487305</ele>
        <time>2009-11-18T14:25:02Z</time>
      </trkpt>
      <trkpt lat="45.18013" lon="5.10211">
        <ele>384.28900146484</ele>
        <time>2009-11-18T14:25:10Z</time>
      </trkpt>
      <trkpt lat="45.18005" lon="5.10219">
        <ele>384.46099853516</ele>
        <time>2009-11-18T14:25:12Z</time>
      </trkpt>
      <trkpt lat="45.1799" lon="5.10244">
        <ele>385.14898681641</ele>
        <time>2009-11-18T14:25:17Z</time>
      </trkpt>
      <trkpt lat="45.17984" lon="5.10262">
        <ele>385.78399658203</ele>
        <time>2009-11-18T14:25:20Z</time>
      </trkpt>
      <trkpt lat="45.17976" lon="5.10311">
        <ele>386.69500732422</ele>
        <time>2009-11-18T14:25:28Z</time>
      </trkpt>
      <trkpt lat="45.17973" lon="5.10368">
        <ele>387.9289855957</ele>
        <time>2009-11-18T14:25:37Z</time>
      </trkpt>
      <trkpt lat="45.17973" lon="5.10433">
        <ele>389.60900878906</ele>
        <time>2009-11-18T14:25:47Z</time>
      </trkpt>
      <trkpt lat="45.17973" lon="5.1044">
        <ele>389.8030090332</ele>
        <time>2009-11-18T14:25:48Z</time>
      </trkpt>
      <trkpt lat="45.17973" lon="5.10492">
        <ele>390.34100341797</ele>
        <time>2009-11-18T14:25:56Z</time>
      </trkpt>
      <trkpt lat="45.17962" lon="5.10536">
        <ele>390.94299316406</ele>
        <time>2009-11-18T14:26:03Z</time>
      </trkpt>
      <trkpt lat="45.17942" lon="5.10577">
        <ele>391.98999023438</ele>
        <time>2009-11-18T14:26:11Z</time>
      </trkpt>
      <trkpt lat="45.17929" lon="5.10596">
        <ele>392.58801269531</ele>
        <time>2009-11-18T14:26:16Z</time>
      </trkpt>
      <trkpt lat="45.17913" lon="5.10594">
        <ele>393.27801513672</ele>
        <time>2009-11-18T14:26:20Z</time>
      </trkpt>
      <trkpt lat="45.17899" lon="5.10581">
        <ele>394.00201416016</ele>
        <time>2009-11-18T14:26:24Z</time>
      </trkpt>
      <trkpt lat="45.1787" lon="5.10525">
        <ele>395.65301513672</ele>
        <time>2009-11-18T14:26:35Z</time>
      </trkpt>
      <trkpt lat="45.17851" lon="5.10482">
        <ele>396.80099487305</ele>
        <time>2009-11-18T14:26:43Z</time>
      </trkpt>
      <trkpt lat="45.17833" lon="5.10441">
        <ele>398.39001464844</ele>
        <time>2009-11-18T14:26:51Z</time>
      </trkpt>
      <trkpt lat="45.1781" lon="5.10407">
        <ele>399.9289855957</ele>
        <time>2009-11-18T14:26:59Z</time>
      </trkpt>
      <trkpt lat="45.17795" lon="5.10394">
        <ele>400.56201171875</ele>
        <time>2009-11-18T14:27:03Z</time>
      </trkpt>
      <trkpt lat="45.17756" lon="5.10381">
        <ele>402.06698608398</ele>
        <time>2009-11-18T14:27:12Z</time>
      </trkpt>
      <trkpt lat="45.17706" lon="5.10377">
        <ele>404.2380065918</ele>
        <time>2009-11-18T14:27:24Z</time>
      </trkpt>
      <trkpt lat="45.17683" lon="5.1039">
        <ele>405.54000854492</ele>
        <time>2009-11-18T14:27:30Z</time>
      </trkpt>
      <trkpt lat="45.17655" lon="5.10418">
        <ele>406.60699462891</ele>
        <time>2009-11-18T14:27:38Z</time>
      </trkpt>
      <trkpt lat="45.17624" lon="5.1045">
        <ele>408.22100830078</ele>
        <time>2009-11-18T14:27:47Z</time>
      </trkpt>
      <trkpt lat="45.17595" lon="5.10478">
        <ele>410.48599243164</ele>
        <time>2009-11-18T14:27:57Z</time>
      </trkpt>
      <trkpt lat="45.17553" lon="5.10521">
        <ele>413.02200317383</ele>
        <time>2009-11-18T14:28:09Z</time>
      </trkpt>
      <trkpt lat="45.17528" lon="5.10544">
        <ele>414.89999389648</ele>
        <time>2009-11-18T14:28:17Z</time>
      </trkpt>
      <trkpt lat="45.17505" lon="5.1056">
        <ele>417.16198730469</ele>
        <time>2009-11-18T14:28:26Z</time>
      </trkpt>
      <trkpt lat="45.17475" lon="5.10566">
        <ele>418.4280090332</ele>
        <time>2009-11-18T14:28:32Z</time>
      </trkpt>
      <trkpt lat="45.17457" lon="5.10556">
        <ele>419.86999511719</ele>
        <time>2009-11-18T14:28:38Z</time>
      </trkpt>
      <trkpt lat="45.17441" lon="5.10544">
        <ele>420.71701049805</ele>
        <time>2009-11-18T14:28:44Z</time>
      </trkpt>
      <trkpt lat="45.17419" lon="5.10527">
        <ele>422.52600097656</ele>
        <time>2009-11-18T14:28:52Z</time>
      </trkpt>
      <trkpt lat="45.17405" lon="5.10516">
        <ele>423.49600219727</ele>
        <time>2009-11-18T14:28:57Z</time>
      </trkpt>
      <trkpt lat="45.17394" lon="5.10507">
        <ele>424.27398681641</ele>
        <time>2009-11-18T14:29:01Z</time>
      </trkpt>
      <trkpt lat="45.1738" lon="5.10496">
        <ele>425.29901123047</ele>
        <time>2009-11-18T14:29:06Z</time>
      </trkpt>
      <trkpt lat="45.17367" lon="5.10486">
        <ele>426.20901489258</ele>
        <time>2009-11-18T14:29:11Z</time>
      </trkpt>
      <trkpt lat="45.17357" lon="5.10479">
        <ele>426.77398681641</ele>
        <time>2009-11-18T14:29:16Z</time>
      </trkpt>
      <trkpt lat="45.17356" lon="5.10478">
        <ele>427.04800415039</ele>
        <time>2009-11-18T14:29:18Z</time>
      </trkpt>
      <trkpt lat="45.17344" lon="5.10471">
        <ele>427.7799987793</ele>
        <time>2009-11-18T14:29:25Z</time>
      </trkpt>
      <trkpt lat="45.17328" lon="5.10467">
        <ele>428.76000976562</ele>
        <time>2009-11-18T14:29:30Z</time>
      </trkpt>
      <trkpt lat="45.17301" lon="5.10459">
        <ele>430.30700683594</ele>
        <time>2009-11-18T14:29:38Z</time>
      </trkpt>
      <trkpt lat="45.17274" lon="5.1045">
        <ele>432.11599731445</ele>
        <time>2009-11-18T14:29:46Z</time>
      </trkpt>
      <trkpt lat="45.17241" lon="5.1044">
        <ele>434.55499267578</ele>
        <time>2009-11-18T14:29:56Z</time>
      </trkpt>
      <trkpt lat="45.17219" lon="5.10433">
        <ele>435.80599975586</ele>
        <time>2009-11-18T14:30:03Z</time>
      </trkpt>
      <trkpt lat="45.17197" lon="5.10427">
        <ele>437.35699462891</ele>
        <time>2009-11-18T14:30:10Z</time>
      </trkpt>
      <trkpt lat="45.17177" lon="5.10421">
        <ele>438.48300170898</ele>
        <time>2009-11-18T14:30:16Z</time>
      </trkpt>
      <trkpt lat="45.17147" lon="5.10411">
        <ele>440.43600463867</ele>
        <time>2009-11-18T14:30:25Z</time>
      </trkpt>
      <trkpt lat="45.17114" lon="5.10396">
        <ele>442.91299438477</ele>
        <time>2009-11-18T14:30:34Z</time>
      </trkpt>
      <trkpt lat="45.1711" lon="5.10394">
        <ele>443.29000854492</ele>
        <time>2009-11-18T14:30:35Z</time>
      </trkpt>
      <trkpt lat="45.17079" lon="5.10374">
        <ele>445.12899780273</ele>
        <time>2009-11-18T14:30:42Z</time>
      </trkpt>
      <trkpt lat="45.17056" lon="5.10353">
        <ele>446.76800537109</ele>
        <time>2009-11-18T14:30:50Z</time>
      </trkpt>
      <trkpt lat="45.17036" lon="5.10335">
        <ele>448.5299987793</ele>
        <time>2009-11-18T14:30:57Z</time>
      </trkpt>
      <trkpt lat="45.17019" lon="5.10316">
        <ele>450.02899169922</ele>
        <time>2009-11-18T14:31:04Z</time>
      </trkpt>
      <trkpt lat="45.17009" lon="5.10305">
        <ele>450.98599243164</ele>
        <time>2009-11-18T14:31:09Z</time>
      </trkpt>
      <trkpt lat="45.17005" lon="5.103">
        <ele>451.4169921875</ele>
        <time>2009-11-18T14:31:11Z</time>
      </trkpt>
      <trkpt lat="45.16991" lon="5.1028">
        <ele>452.98199462891</ele>
        <time>2009-11-18T14:31:18Z</time>
      </trkpt>
      <trkpt lat="45.16989" lon="5.10277">
        <ele>453.10000610352</ele>
        <time>2009-11-18T14:31:19Z</time>
      </trkpt>
      <trkpt lat="45.16978" lon="5.10251">
        <ele>454.28399658203</ele>
        <time>2009-11-18T14:31:26Z</time>
      </trkpt>
      <trkpt lat="45.16971" lon="5.10234">
        <ele>455.4460144043</ele>
        <time>2009-11-18T14:31:31Z</time>
      </trkpt>
      <trkpt lat="45.1696" lon="5.10215">
        <ele>456.54598999023</ele>
        <time>2009-11-18T14:31:36Z</time>
      </trkpt>
      <trkpt lat="45.16945" lon="5.1019">
        <ele>458.02099609375</ele>
        <time>2009-11-18T14:31:43Z</time>
      </trkpt>
      <trkpt lat="45.1693" lon="5.10167">
        <ele>458.89300537109</ele>
        <time>2009-11-18T14:31:48Z</time>
      </trkpt>
      <trkpt lat="45.16904" lon="5.10139">
        <ele>460.34600830078</ele>
        <time>2009-11-18T14:31:55Z</time>
      </trkpt>
      <trkpt lat="45.16867" lon="5.10124">
        <ele>460.90600585938</ele>
        <time>2009-11-18T14:32:04Z</time>
      </trkpt>
      <trkpt lat="45.16856" lon="5.1012">
        <ele>460.67401123047</ele>
        <time>2009-11-18T14:32:07Z</time>
      </trkpt>
      <trkpt lat="45.16836" lon="5.10114">
        <ele>459.91101074219</ele>
        <time>2009-11-18T14:32:12Z</time>
      </trkpt>
      <trkpt lat="45.1681" lon="5.10106">
        <ele>458.89300537109</ele>
        <time>2009-11-18T14:32:18Z</time>
      </trkpt>
      <trkpt lat="45.16802" lon="5.10103">
        <ele>458.71398925781</ele>
        <time>2009-11-18T14:32:21Z</time>
      </trkpt>
      <trkpt lat="45.16798" lon="5.10102">
        <ele>458.35000610352</ele>
        <time>2009-11-18T14:32:25Z</time>
      </trkpt>
      <trkpt lat="45.16795" lon="5.10101">
        <ele>458.6369934082</ele>
        <time>2009-11-18T14:34:02Z</time>
      </trkpt>
      <trkpt lat="45.16794" lon="5.10101">
        <ele>458.3630065918</ele>
        <time>2009-11-18T14:34:03Z</time>
      </trkpt>
      <trkpt lat="45.16793" lon="5.101">
        <ele>458.35699462891</ele>
        <time>2009-11-18T14:34:07Z</time>
      </trkpt>
      <trkpt lat="45.16793" lon="5.101">
        <ele>458.27600097656</ele>
        <time>2009-11-18T14:34:13Z</time>
      </trkpt>
      <trkpt lat="45.16793" lon="5.101">
        <ele>458.17999267578</ele>
        <time>2009-11-18T14:34:14Z</time>
      </trkpt>
      <trkpt lat="45.16793" lon="5.101">
        <ele>457.94198608398</ele>
        <time>2009-11-18T14:34:23Z</time>
      </trkpt>
      <trkpt lat="45.16793" lon="5.101">
        <ele>457.64099121094</ele>
        <time>2009-11-18T14:34:27Z</time>
      </trkpt>
      <trkpt lat="45.16752" lon="5.10054">
        <ele>456.95599365234</ele>
        <time>2009-11-18T14:34:34Z</time>
      </trkpt>
      <trkpt lat="45.16746" lon="5.10045">
        <ele>456.62298583984</ele>
        <time>2009-11-18T14:34:36Z</time>
      </trkpt>
      <trkpt lat="45.16736" lon="5.10039">
        <ele>456</ele>
        <time>2009-11-18T14:34:38Z</time>
      </trkpt>
      <trkpt lat="45.1672" lon="5.10029">
        <ele>455.65301513672</ele>
        <time>2009-11-18T14:34:43Z</time>
      </trkpt>
      <trkpt lat="45.16696" lon="5.10015">
        <ele>454.86099243164</ele>
        <time>2009-11-18T14:34:50Z</time>
      </trkpt>
      <trkpt lat="45.16676" lon="5.10003">
        <ele>453.86599731445</ele>
        <time>2009-11-18T14:34:55Z</time>
      </trkpt>
      <trkpt lat="45.16657" lon="5.0999">
        <ele>452.93399047852</ele>
        <time>2009-11-18T14:35:00Z</time>
      </trkpt>
      <trkpt lat="45.16642" lon="5.09971">
        <ele>451.85501098633</ele>
        <time>2009-11-18T14:35:04Z</time>
      </trkpt>
      <trkpt lat="45.16613" lon="5.09943">
        <ele>449.75799560547</ele>
        <time>2009-11-18T14:35:11Z</time>
      </trkpt>
      <trkpt lat="45.16603" lon="5.09934">
        <ele>449.54598999023</ele>
        <time>2009-11-18T14:35:13Z</time>
      </trkpt>
      <trkpt lat="45.16587" lon="5.09919">
        <ele>448.19500732422</ele>
        <time>2009-11-18T14:35:16Z</time>
      </trkpt>
      <trkpt lat="45.16559" lon="5.09892">
        <ele>446.29598999023</ele>
        <time>2009-11-18T14:35:21Z</time>
      </trkpt>
      <trkpt lat="45.16546" lon="5.0988">
        <ele>445.88000488281</ele>
        <time>2009-11-18T14:35:23Z</time>
      </trkpt>
      <trkpt lat="45.16511" lon="5.09847">
        <ele>444.06600952148</ele>
        <time>2009-11-18T14:35:28Z</time>
      </trkpt>
      <trkpt lat="45.16487" lon="5.09824">
        <ele>442.69100952148</ele>
        <time>2009-11-18T14:35:31Z</time>
      </trkpt>
      <trkpt lat="45.16458" lon="5.09801">
        <ele>440.68798828125</ele>
        <time>2009-11-18T14:35:35Z</time>
      </trkpt>
      <trkpt lat="45.16446" lon="5.09795">
        <ele>440.07299804688</ele>
        <time>2009-11-18T14:35:37Z</time>
      </trkpt>
      <trkpt lat="45.16424" lon="5.09783">
        <ele>438.35400390625</ele>
        <time>2009-11-18T14:35:43Z</time>
      </trkpt>
      <trkpt lat="45.16392" lon="5.09755">
        <ele>437.05801391602</ele>
        <time>2009-11-18T14:35:47Z</time>
      </trkpt>
      <trkpt lat="45.16386" lon="5.09725">
        <ele>435.58200073242</ele>
        <time>2009-11-18T14:35:50Z</time>
      </trkpt>
      <trkpt lat="45.16394" lon="5.09697">
        <ele>434.38598632812</ele>
        <time>2009-11-18T14:35:53Z</time>
      </trkpt>
      <trkpt lat="45.16414" lon="5.09676">
        <ele>433.57400512695</ele>
        <time>2009-11-18T14:35:56Z</time>
      </trkpt>
      <trkpt lat="45.1643" lon="5.09667">
        <ele>432.63500976562</ele>
        <time>2009-11-18T14:35:58Z</time>
      </trkpt>
      <trkpt lat="45.16437" lon="5.09665">
        <ele>431.96600341797</ele>
        <time>2009-11-18T14:35:59Z</time>
      </trkpt>
      <trkpt lat="45.16456" lon="5.0965">
        <ele>429.99899291992</ele>
        <time>2009-11-18T14:36:03Z</time>
      </trkpt>
      <trkpt lat="45.16458" lon="5.09641">
        <ele>429.36801147461</ele>
        <time>2009-11-18T14:36:05Z</time>
      </trkpt>
      <trkpt lat="45.1645" lon="5.0963">
        <ele>428.63598632812</ele>
        <time>2009-11-18T14:36:07Z</time>
      </trkpt>
      <trkpt lat="45.16402" lon="5.09606">
        <ele>426.81201171875</ele>
        <time>2009-11-18T14:36:14Z</time>
      </trkpt>
      <trkpt lat="45.16354" lon="5.09586">
        <ele>423.66198730469</ele>
        <time>2009-11-18T14:36:20Z</time>
      </trkpt>
      <trkpt lat="45.16346" lon="5.09583">
        <ele>423.54800415039</ele>
        <time>2009-11-18T14:36:21Z</time>
      </trkpt>
      <trkpt lat="45.16316" lon="5.09555">
        <ele>421.96899414062</ele>
        <time>2009-11-18T14:36:25Z</time>
      </trkpt>
      <trkpt lat="45.16286" lon="5.09534">
        <ele>419.11499023438</ele>
        <time>2009-11-18T14:36:29Z</time>
      </trkpt>
      <trkpt lat="45.16268" lon="5.09535">
        <ele>418.23300170898</ele>
        <time>2009-11-18T14:36:31Z</time>
      </trkpt>
      <trkpt lat="45.1623" lon="5.0957">
        <ele>415.10900878906</ele>
        <time>2009-11-18T14:36:36Z</time>
      </trkpt>
      <trkpt lat="45.16179" lon="5.09605">
        <ele>412.05801391602</ele>
        <time>2009-11-18T14:36:42Z</time>
      </trkpt>
      <trkpt lat="45.1614" lon="5.09608">
        <ele>410.85198974609</ele>
        <time>2009-11-18T14:36:46Z</time>
      </trkpt>
      <trkpt lat="45.16102" lon="5.09595">
        <ele>408.46701049805</ele>
        <time>2009-11-18T14:36:50Z</time>
      </trkpt>
      <trkpt lat="45.16067" lon="5.09568">
        <ele>407.1960144043</ele>
        <time>2009-11-18T14:36:54Z</time>
      </trkpt>
      <trkpt lat="45.16052" lon="5.0955">
        <ele>405.89001464844</ele>
        <time>2009-11-18T14:36:56Z</time>
      </trkpt>
      <trkpt lat="45.1603" lon="5.0952">
        <ele>404.38000488281</ele>
        <time>2009-11-18T14:36:59Z</time>
      </trkpt>
      <trkpt lat="45.16016" lon="5.09499">
        <ele>403.50399780273</ele>
        <time>2009-11-18T14:37:01Z</time>
      </trkpt>
      <trkpt lat="45.15979" lon="5.09448">
        <ele>399.95098876953</ele>
        <time>2009-11-18T14:37:06Z</time>
      </trkpt>
      <trkpt lat="45.15935" lon="5.09387">
        <ele>397.14199829102</ele>
        <time>2009-11-18T14:37:12Z</time>
      </trkpt>
      <trkpt lat="45.15913" lon="5.09357">
        <ele>395.82800292969</ele>
        <time>2009-11-18T14:37:15Z</time>
      </trkpt>
      <trkpt lat="45.15864" lon="5.09289">
        <ele>393.23999023438</ele>
        <time>2009-11-18T14:37:22Z</time>
      </trkpt>
      <trkpt lat="45.15828" lon="5.09238">
        <ele>392.9700012207</ele>
        <time>2009-11-18T14:37:28Z</time>
      </trkpt>
      <trkpt lat="45.15781" lon="5.09178">
        <ele>392.86099243164</ele>
        <time>2009-11-18T14:37:36Z</time>
      </trkpt>
      <trkpt lat="45.15722" lon="5.09103">
        <ele>392.36898803711</ele>
        <time>2009-11-18T14:37:46Z</time>
      </trkpt>
      <trkpt lat="45.15699" lon="5.09073">
        <ele>391.75900268555</ele>
        <time>2009-11-18T14:37:50Z</time>
      </trkpt>
      <trkpt lat="45.15637" lon="5.08994">
        <ele>391.55499267578</ele>
        <time>2009-11-18T14:38:00Z</time>
      </trkpt>
      <trkpt lat="45.15613" lon="5.08963">
        <ele>392.39099121094</ele>
        <time>2009-11-18T14:38:06Z</time>
      </trkpt>
      <trkpt lat="45.15565" lon="5.08893">
        <ele>392.42098999023</ele>
        <time>2009-11-18T14:38:15Z</time>
      </trkpt>
      <trkpt lat="45.15539" lon="5.0886">
        <ele>392.49398803711</ele>
        <time>2009-11-18T14:38:21Z</time>
      </trkpt>
      <trkpt lat="45.15511" lon="5.08822">
        <ele>390.08801269531</ele>
        <time>2009-11-18T14:38:27Z</time>
      </trkpt>
      <trkpt lat="45.15482" lon="5.08774">
        <ele>386.76098632812</ele>
        <time>2009-11-18T14:38:33Z</time>
      </trkpt>
      <trkpt lat="45.15475" lon="5.08765">
        <ele>386.57800292969</ele>
        <time>2009-11-18T14:38:34Z</time>
      </trkpt>
      <trkpt lat="45.1545" lon="5.08723">
        <ele>383.64099121094</ele>
        <time>2009-11-18T14:38:39Z</time>
      </trkpt>
      <trkpt lat="45.15417" lon="5.08674">
        <ele>381.58999633789</ele>
        <time>2009-11-18T14:38:43Z</time>
      </trkpt>
      <trkpt lat="45.15386" lon="5.08637">
        <ele>379.11999511719</ele>
        <time>2009-11-18T14:38:47Z</time>
      </trkpt>
      <trkpt lat="45.1535" lon="5.08609">
        <ele>375.96099853516</ele>
        <time>2009-11-18T14:38:51Z</time>
      </trkpt>
      <trkpt lat="45.15287" lon="5.08575">
        <ele>372.18701171875</ele>
        <time>2009-11-18T14:38:57Z</time>
      </trkpt>
      <trkpt lat="45.15266" lon="5.08563">
        <ele>370.88598632812</ele>
        <time>2009-11-18T14:38:59Z</time>
      </trkpt>
      <trkpt lat="45.15202" lon="5.08528">
        <ele>364.66299438477</ele>
        <time>2009-11-18T14:39:05Z</time>
      </trkpt>
      <trkpt lat="45.15192" lon="5.08521">
        <ele>364.51300048828</ele>
        <time>2009-11-18T14:39:06Z</time>
      </trkpt>
      <trkpt lat="45.15134" lon="5.08489">
        <ele>361.68399047852</ele>
        <time>2009-11-18T14:39:11Z</time>
      </trkpt>
      <trkpt lat="45.15063" lon="5.0845">
        <ele>357.49899291992</ele>
        <time>2009-11-18T14:39:17Z</time>
      </trkpt>
      <trkpt lat="45.14969" lon="5.08397">
        <ele>352.54598999023</ele>
        <time>2009-11-18T14:39:25Z</time>
      </trkpt>
      <trkpt lat="45.14905" lon="5.08361">
        <ele>351.73300170898</ele>
        <time>2009-11-18T14:39:31Z</time>
      </trkpt>
      <trkpt lat="45.14861" lon="5.08342">
        <ele>352.04598999023</ele>
        <time>2009-11-18T14:39:36Z</time>
      </trkpt>
      <trkpt lat="45.14853" lon="5.08337">
        <ele>352.35299682617</ele>
        <time>2009-11-18T14:39:37Z</time>
      </trkpt>
      <trkpt lat="45.14826" lon="5.08313">
        <ele>353.51501464844</ele>
        <time>2009-11-18T14:39:41Z</time>
      </trkpt>
      <trkpt lat="45.14811" lon="5.08291">
        <ele>354.45401000977</ele>
        <time>2009-11-18T14:39:44Z</time>
      </trkpt>
      <trkpt lat="45.14807" lon="5.08285">
        <ele>354.4049987793</ele>
        <time>2009-11-18T14:39:45Z</time>
      </trkpt>
      <trkpt lat="45.14803" lon="5.08278">
        <ele>354.63598632812</ele>
        <time>2009-11-18T14:39:46Z</time>
      </trkpt>
      <trkpt lat="45.14773" lon="5.08234">
        <ele>355.58099365234</ele>
        <time>2009-11-18T14:39:53Z</time>
      </trkpt>
      <trkpt lat="45.14767" lon="5.08225">
        <ele>355.28201293945</ele>
        <time>2009-11-18T14:39:59Z</time>
      </trkpt>
      <trkpt lat="45.14733" lon="5.08182">
        <ele>353.83700561523</ele>
        <time>2009-11-18T14:40:06Z</time>
      </trkpt>
      <trkpt lat="45.14674" lon="5.08105">
        <ele>352.60501098633</ele>
        <time>2009-11-18T14:40:13Z</time>
      </trkpt>
      <trkpt lat="45.14619" lon="5.08033">
        <ele>350.92300415039</ele>
        <time>2009-11-18T14:40:22Z</time>
      </trkpt>
      <trkpt lat="45.1457" lon="5.07968">
        <ele>349.80899047852</ele>
        <time>2009-11-18T14:40:30Z</time>
      </trkpt>
      <trkpt lat="45.14523" lon="5.07906">
        <ele>350.88198852539</ele>
        <time>2009-11-18T14:40:38Z</time>
      </trkpt>
      <trkpt lat="45.14471" lon="5.07844">
        <ele>352.15600585938</ele>
        <time>2009-11-18T14:40:47Z</time>
      </trkpt>
      <trkpt lat="45.14417" lon="5.07782">
        <ele>353.27801513672</ele>
        <time>2009-11-18T14:40:57Z</time>
      </trkpt>
      <trkpt lat="45.14366" lon="5.07722">
        <ele>353.22601318359</ele>
        <time>2009-11-18T14:41:07Z</time>
      </trkpt>
      <trkpt lat="45.14319" lon="5.07667">
        <ele>352.35900878906</ele>
        <time>2009-11-18T14:41:16Z</time>
      </trkpt>
      <trkpt lat="45.14286" lon="5.07625">
        <ele>351.33999633789</ele>
        <time>2009-11-18T14:41:23Z</time>
      </trkpt>
      <trkpt lat="45.14249" lon="5.0758">
        <ele>350.54598999023</ele>
        <time>2009-11-18T14:41:30Z</time>
      </trkpt>
      <trkpt lat="45.14206" lon="5.07526">
        <ele>348.35400390625</ele>
        <time>2009-11-18T14:41:37Z</time>
      </trkpt>
      <trkpt lat="45.14187" lon="5.07502">
        <ele>347.08099365234</ele>
        <time>2009-11-18T14:41:40Z</time>
      </trkpt>
      <trkpt lat="45.14174" lon="5.07486">
        <ele>346.13198852539</ele>
        <time>2009-11-18T14:41:42Z</time>
      </trkpt>
      <trkpt lat="45.14138" lon="5.0745">
        <ele>344.33700561523</ele>
        <time>2009-11-18T14:41:47Z</time>
      </trkpt>
      <trkpt lat="45.14076" lon="5.07388">
        <ele>341.27301025391</ele>
        <time>2009-11-18T14:41:55Z</time>
      </trkpt>
      <trkpt lat="45.14061" lon="5.07372">
        <ele>339.73498535156</ele>
        <time>2009-11-18T14:41:57Z</time>
      </trkpt>
      <trkpt lat="45.14004" lon="5.07316">
        <ele>337.58599853516</ele>
        <time>2009-11-18T14:42:04Z</time>
      </trkpt>
      <trkpt lat="45.13988" lon="5.073">
        <ele>336.6549987793</ele>
        <time>2009-11-18T14:42:06Z</time>
      </trkpt>
      <trkpt lat="45.13964" lon="5.07275">
        <ele>335.24099731445</ele>
        <time>2009-11-18T14:42:09Z</time>
      </trkpt>
      <trkpt lat="45.13914" lon="5.07226">
        <ele>332.71301269531</ele>
        <time>2009-11-18T14:42:15Z</time>
      </trkpt>
      <trkpt lat="45.13849" lon="5.07161">
        <ele>330.37298583984</ele>
        <time>2009-11-18T14:42:23Z</time>
      </trkpt>
      <trkpt lat="45.13783" lon="5.07095">
        <ele>329.39599609375</ele>
        <time>2009-11-18T14:42:32Z</time>
      </trkpt>
      <trkpt lat="45.1374" lon="5.07054">
        <ele>328.56399536133</ele>
        <time>2009-11-18T14:42:38Z</time>
      </trkpt>
      <trkpt lat="45.13699" lon="5.07026">
        <ele>328.09100341797</ele>
        <time>2009-11-18T14:42:43Z</time>
      </trkpt>
      <trkpt lat="45.13635" lon="5.06994">
        <ele>326.75100708008</ele>
        <time>2009-11-18T14:42:51Z</time>
      </trkpt>
      <trkpt lat="45.13581" lon="5.0695">
        <ele>325.71798706055</ele>
        <time>2009-11-18T14:42:58Z</time>
      </trkpt>
      <trkpt lat="45.13512" lon="5.06894">
        <ele>323.76400756836</ele>
        <time>2009-11-18T14:43:07Z</time>
      </trkpt>
      <trkpt lat="45.1346" lon="5.06848">
        <ele>322.81298828125</ele>
        <time>2009-11-18T14:43:14Z</time>
      </trkpt>
      <trkpt lat="45.13403" lon="5.06788">
        <ele>321.01098632812</ele>
        <time>2009-11-18T14:43:22Z</time>
      </trkpt>
      <trkpt lat="45.13374" lon="5.06753">
        <ele>319.375</ele>
        <time>2009-11-18T14:43:26Z</time>
      </trkpt>
      <trkpt lat="45.1331" lon="5.06674">
        <ele>316.12701416016</ele>
        <time>2009-11-18T14:43:35Z</time>
      </trkpt>
      <trkpt lat="45.13257" lon="5.06607">
        <ele>314.02499389648</ele>
        <time>2009-11-18T14:43:43Z</time>
      </trkpt>
      <trkpt lat="45.13202" lon="5.06538">
        <ele>312.58700561523</ele>
        <time>2009-11-18T14:43:51Z</time>
      </trkpt>
      <trkpt lat="45.13182" lon="5.06513">
        <ele>311.17599487305</ele>
        <time>2009-11-18T14:43:54Z</time>
      </trkpt>
      <trkpt lat="45.13161" lon="5.06481">
        <ele>310.43099975586</ele>
        <time>2009-11-18T14:43:58Z</time>
      </trkpt>
      <trkpt lat="45.13153" lon="5.06462">
        <ele>309.89999389648</ele>
        <time>2009-11-18T14:44:00Z</time>
      </trkpt>
      <trkpt lat="45.13126" lon="5.06391">
        <ele>308.51098632812</ele>
        <time>2009-11-18T14:44:08Z</time>
      </trkpt>
      <trkpt lat="45.13117" lon="5.06367">
        <ele>308.08599853516</ele>
        <time>2009-11-18T14:44:11Z</time>
      </trkpt>
      <trkpt lat="45.13091" lon="5.06298">
        <ele>307.43099975586</ele>
        <time>2009-11-18T14:44:19Z</time>
      </trkpt>
      <trkpt lat="45.13071" lon="5.06242">
        <ele>306.47399902344</ele>
        <time>2009-11-18T14:44:25Z</time>
      </trkpt>
      <trkpt lat="45.13037" lon="5.0615">
        <ele>305.05200195312</ele>
        <time>2009-11-18T14:44:34Z</time>
      </trkpt>
      <trkpt lat="45.13007" lon="5.06063">
        <ele>303.91598510742</ele>
        <time>2009-11-18T14:44:42Z</time>
      </trkpt>
      <trkpt lat="45.12973" lon="5.05975">
        <ele>302.78698730469</ele>
        <time>2009-11-18T14:44:50Z</time>
      </trkpt>
      <trkpt lat="45.12934" lon="5.05874">
        <ele>301.07501220703</ele>
        <time>2009-11-18T14:44:59Z</time>
      </trkpt>
      <trkpt lat="45.12895" lon="5.05774">
        <ele>299.61599731445</ele>
        <time>2009-11-18T14:45:08Z</time>
      </trkpt>
      <trkpt lat="45.12851" lon="5.05661">
        <ele>298.08898925781</ele>
        <time>2009-11-18T14:45:18Z</time>
      </trkpt>
      <trkpt lat="45.12806" lon="5.05544">
        <ele>296.19799804688</ele>
        <time>2009-11-18T14:45:28Z</time>
      </trkpt>
      <trkpt lat="45.12777" lon="5.0545">
        <ele>295.06298828125</ele>
        <time>2009-11-18T14:45:36Z</time>
      </trkpt>
      <trkpt lat="45.12757" lon="5.05383">
        <ele>294.7080078125</ele>
        <time>2009-11-18T14:45:42Z</time>
      </trkpt>
      <trkpt lat="45.12735" lon="5.05295">
        <ele>294.62799072266</ele>
        <time>2009-11-18T14:45:50Z</time>
      </trkpt>
      <trkpt lat="45.12713" lon="5.05225">
        <ele>294.61898803711</ele>
        <time>2009-11-18T14:45:57Z</time>
      </trkpt>
      <trkpt lat="45.12689" lon="5.05162">
        <ele>295.48400878906</ele>
        <time>2009-11-18T14:46:04Z</time>
      </trkpt>
      <trkpt lat="45.12667" lon="5.05111">
        <ele>295.5</ele>
        <time>2009-11-18T14:46:10Z</time>
      </trkpt>
      <trkpt lat="45.12658" lon="5.05092">
        <ele>295.17498779297</ele>
        <time>2009-11-18T14:46:13Z</time>
      </trkpt>
      <trkpt lat="45.12651" lon="5.05079">
        <ele>295.71899414062</ele>
        <time>2009-11-18T14:46:16Z</time>
      </trkpt>
      <trkpt lat="45.12663" lon="5.05069">
        <ele>296.16000366211</ele>
        <time>2009-11-18T14:46:19Z</time>
      </trkpt>
      <trkpt lat="45.12671" lon="5.05068">
        <ele>296.16101074219</ele>
        <time>2009-11-18T14:46:21Z</time>
      </trkpt>
      <trkpt lat="45.12701" lon="5.05064">
        <ele>297.01800537109</ele>
        <time>2009-11-18T14:46:28Z</time>
      </trkpt>
      <trkpt lat="45.12725" lon="5.05061">
        <ele>297.99099731445</ele>
        <time>2009-11-18T14:46:35Z</time>
      </trkpt>
      <trkpt lat="45.12747" lon="5.05058">
        <ele>298.91799926758</ele>
        <time>2009-11-18T14:46:41Z</time>
      </trkpt>
      <trkpt lat="45.12762" lon="5.05056">
        <ele>299.62701416016</ele>
        <time>2009-11-18T14:46:45Z</time>
      </trkpt>
      <trkpt lat="45.12781" lon="5.05054">
        <ele>300.20300292969</ele>
        <time>2009-11-18T14:46:50Z</time>
      </trkpt>
      <trkpt lat="45.128" lon="5.05052">
        <ele>301.01800537109</ele>
        <time>2009-11-18T14:46:55Z</time>
      </trkpt>
      <trkpt lat="45.12826" lon="5.05048">
        <ele>301.96798706055</ele>
        <time>2009-11-18T14:47:02Z</time>
      </trkpt>
      <trkpt lat="45.12852" lon="5.05045">
        <ele>303.15899658203</ele>
        <time>2009-11-18T14:47:09Z</time>
      </trkpt>
      <trkpt lat="45.12878" lon="5.05042">
        <ele>304.15100097656</ele>
        <time>2009-11-18T14:47:16Z</time>
      </trkpt>
      <trkpt lat="45.12904" lon="5.05039">
        <ele>305.71499633789</ele>
        <time>2009-11-18T14:47:23Z</time>
      </trkpt>
      <trkpt lat="45.12921" lon="5.05036">
        <ele>306.60501098633</ele>
        <time>2009-11-18T14:47:28Z</time>
      </trkpt>
      <trkpt lat="45.12922" lon="5.05036">
        <ele>307.60400390625</ele>
        <time>2009-11-18T14:47:34Z</time>
      </trkpt>
      <trkpt lat="45.12965" lon="5.05032">
        <ele>308.02801513672</ele>
        <time>2009-11-18T14:47:40Z</time>
      </trkpt>
      <trkpt lat="45.12992" lon="5.0503">
        <ele>309.58401489258</ele>
        <time>2009-11-18T14:47:48Z</time>
      </trkpt>
      <trkpt lat="45.13015" lon="5.05027">
        <ele>311.02899169922</ele>
        <time>2009-11-18T14:47:55Z</time>
      </trkpt>
      <trkpt lat="45.13035" lon="5.05026">
        <ele>311.97900390625</ele>
        <time>2009-11-18T14:48:01Z</time>
      </trkpt>
      <trkpt lat="45.13053" lon="5.05024">
        <ele>313.18701171875</ele>
        <time>2009-11-18T14:48:07Z</time>
      </trkpt>
      <trkpt lat="45.13067" lon="5.05022">
        <ele>313.96600341797</ele>
        <time>2009-11-18T14:48:12Z</time>
      </trkpt>
      <trkpt lat="45.13083" lon="5.05021">
        <ele>315.18899536133</ele>
        <time>2009-11-18T14:48:18Z</time>
      </trkpt>
      <trkpt lat="45.13103" lon="5.05019">
        <ele>315.91799926758</ele>
        <time>2009-11-18T14:48:24Z</time>
      </trkpt>
      <trkpt lat="45.13122" lon="5.05023">
        <ele>317.13500976562</ele>
        <time>2009-11-18T14:48:30Z</time>
      </trkpt>
      <trkpt lat="45.13137" lon="5.05025">
        <ele>317.74499511719</ele>
        <time>2009-11-18T14:48:35Z</time>
      </trkpt>
      <trkpt lat="45.13151" lon="5.05028">
        <ele>318.59100341797</ele>
        <time>2009-11-18T14:48:40Z</time>
      </trkpt>
      <trkpt lat="45.13168" lon="5.05031">
        <ele>319.31600952148</ele>
        <time>2009-11-18T14:48:45Z</time>
      </trkpt>
      <trkpt lat="45.1319" lon="5.05034">
        <ele>319.6130065918</ele>
        <time>2009-11-18T14:48:51Z</time>
      </trkpt>
      <trkpt lat="45.13215" lon="5.05039">
        <ele>320.8330078125</ele>
        <time>2009-11-18T14:48:58Z</time>
      </trkpt>
      <trkpt lat="45.13238" lon="5.05043">
        <ele>321.40301513672</ele>
        <time>2009-11-18T14:49:05Z</time>
      </trkpt>
      <trkpt lat="45.13257" lon="5.05046">
        <ele>322.10598754883</ele>
        <time>2009-11-18T14:49:11Z</time>
      </trkpt>
      <trkpt lat="45.13285" lon="5.05051">
        <ele>322.76300048828</ele>
        <time>2009-11-18T14:49:19Z</time>
      </trkpt>
      <trkpt lat="45.13287" lon="5.05052">
        <ele>322.90200805664</ele>
        <time>2009-11-18T14:49:20Z</time>
      </trkpt>
      <trkpt lat="45.13302" lon="5.05054">
        <ele>323.80200195312</ele>
        <time>2009-11-18T14:49:25Z</time>
      </trkpt>
      <trkpt lat="45.13325" lon="5.05058">
        <ele>324.66900634766</ele>
        <time>2009-11-18T14:49:32Z</time>
      </trkpt>
      <trkpt lat="45.13335" lon="5.0506">
        <ele>324.98001098633</ele>
        <time>2009-11-18T14:49:35Z</time>
      </trkpt>
      <trkpt lat="45.13353" lon="5.05063">
        <ele>325.92599487305</ele>
        <time>2009-11-18T14:49:40Z</time>
      </trkpt>
      <trkpt lat="45.13379" lon="5.0507">
        <ele>326.82299804688</ele>
        <time>2009-11-18T14:49:47Z</time>
      </trkpt>
      <trkpt lat="45.13399" lon="5.05085">
        <ele>327.51699829102</ele>
        <time>2009-11-18T14:49:53Z</time>
      </trkpt>
      <trkpt lat="45.13417" lon="5.05097">
        <ele>327.86401367188</ele>
        <time>2009-11-18T14:49:58Z</time>
      </trkpt>
      <trkpt lat="45.13438" lon="5.05111">
        <ele>328.45199584961</ele>
        <time>2009-11-18T14:50:04Z</time>
      </trkpt>
      <trkpt lat="45.13455" lon="5.05123">
        <ele>329.57501220703</ele>
        <time>2009-11-18T14:50:09Z</time>
      </trkpt>
      <trkpt lat="45.13476" lon="5.05133">
        <ele>330.04400634766</ele>
        <time>2009-11-18T14:50:15Z</time>
      </trkpt>
      <trkpt lat="45.13499" lon="5.0514">
        <ele>330.32998657227</ele>
        <time>2009-11-18T14:50:21Z</time>
      </trkpt>
      <trkpt lat="45.13527" lon="5.05149">
        <ele>331.34298706055</ele>
        <time>2009-11-18T14:50:28Z</time>
      </trkpt>
      <trkpt lat="45.13548" lon="5.05155">
        <ele>331.70098876953</ele>
        <time>2009-11-18T14:50:33Z</time>
      </trkpt>
      <trkpt lat="45.13556" lon="5.05161">
        <ele>331.47299194336</ele>
        <time>2009-11-18T14:50:35Z</time>
      </trkpt>
      <trkpt lat="45.13589" lon="5.05196">
        <ele>331.49600219727</ele>
        <time>2009-11-18T14:50:43Z</time>
      </trkpt>
      <trkpt lat="45.13603" lon="5.05213">
        <ele>331.98901367188</ele>
        <time>2009-11-18T14:50:47Z</time>
      </trkpt>
      <trkpt lat="45.13617" lon="5.0524">
        <ele>333.24798583984</ele>
        <time>2009-11-18T14:50:53Z</time>
      </trkpt>
      <trkpt lat="45.13617" lon="5.05242">
        <ele>334.3630065918</ele>
        <time>2009-11-18T14:50:58Z</time>
      </trkpt>
      <trkpt lat="45.13604" lon="5.05294">
        <ele>335.14801025391</ele>
        <time>2009-11-18T14:51:05Z</time>
      </trkpt>
      <trkpt lat="45.13603" lon="5.05352">
        <ele>335.23599243164</ele>
        <time>2009-11-18T14:51:13Z</time>
      </trkpt>
      <trkpt lat="45.13602" lon="5.05389">
        <ele>335.12100219727</ele>
        <time>2009-11-18T14:51:19Z</time>
      </trkpt>
      <trkpt lat="45.13601" lon="5.05422">
        <ele>335.12701416016</ele>
        <time>2009-11-18T14:51:24Z</time>
      </trkpt>
      <trkpt lat="45.136" lon="5.05488">
        <ele>335.94299316406</ele>
        <time>2009-11-18T14:51:33Z</time>
      </trkpt>
      <trkpt lat="45.136" lon="5.05503">
        <ele>336.10101318359</ele>
        <time>2009-11-18T14:51:35Z</time>
      </trkpt>
      <trkpt lat="45.13608" lon="5.05544">
        <ele>336.32800292969</ele>
        <time>2009-11-18T14:51:41Z</time>
      </trkpt>
      <trkpt lat="45.13643" lon="5.05599">
        <ele>337.16198730469</ele>
        <time>2009-11-18T14:51:51Z</time>
      </trkpt>
      <trkpt lat="45.13672" lon="5.05635">
        <ele>337.65301513672</ele>
        <time>2009-11-18T14:51:59Z</time>
      </trkpt>
      <trkpt lat="45.13677" lon="5.05642">
        <ele>339.33499145508</ele>
        <time>2009-11-18T14:52:05Z</time>
      </trkpt>
      <trkpt lat="45.13705" lon="5.05665">
        <ele>340.62600708008</ele>
        <time>2009-11-18T14:52:10Z</time>
      </trkpt>
      <trkpt lat="45.13707" lon="5.05667">
        <ele>340.37600708008</ele>
        <time>2009-11-18T14:52:16Z</time>
      </trkpt>
      <trkpt lat="45.13729" lon="5.05655">
        <ele>339.73901367188</ele>
        <time>2009-11-18T14:52:21Z</time>
      </trkpt>
      <trkpt lat="45.13754" lon="5.05645">
        <ele>339.65899658203</ele>
        <time>2009-11-18T14:52:28Z</time>
      </trkpt>
      <trkpt lat="45.13781" lon="5.05642">
        <ele>340.08999633789</ele>
        <time>2009-11-18T14:52:34Z</time>
      </trkpt>
      <trkpt lat="45.13811" lon="5.05639">
        <ele>340.07400512695</ele>
        <time>2009-11-18T14:52:41Z</time>
      </trkpt>
      <trkpt lat="45.13849" lon="5.05635">
        <ele>340.70199584961</ele>
        <time>2009-11-18T14:52:49Z</time>
      </trkpt>
      <trkpt lat="45.13882" lon="5.05634">
        <ele>341.31698608398</ele>
        <time>2009-11-18T14:52:56Z</time>
      </trkpt>
      <trkpt lat="45.13904" lon="5.05636">
        <ele>341.56100463867</ele>
        <time>2009-11-18T14:53:01Z</time>
      </trkpt>
      <trkpt lat="45.13945" lon="5.0564">
        <ele>340.86898803711</ele>
        <time>2009-11-18T14:53:10Z</time>
      </trkpt>
      <trkpt lat="45.13979" lon="5.05649">
        <ele>340.71701049805</ele>
        <time>2009-11-18T14:53:17Z</time>
      </trkpt>
      <trkpt lat="45.14023" lon="5.05657">
        <ele>339.61199951172</ele>
        <time>2009-11-18T14:53:25Z</time>
      </trkpt>
      <trkpt lat="45.1406" lon="5.05655">
        <ele>339.20700073242</ele>
        <time>2009-11-18T14:53:31Z</time>
      </trkpt>
      <trkpt lat="45.14084" lon="5.05631">
        <ele>338.625</ele>
        <time>2009-11-18T14:53:36Z</time>
      </trkpt>
      <trkpt lat="45.14089" lon="5.05625">
        <ele>338.53799438477</ele>
        <time>2009-11-18T14:53:37Z</time>
      </trkpt>
      <trkpt lat="45.14113" lon="5.05568">
        <ele>338.26699829102</ele>
        <time>2009-11-18T14:53:45Z</time>
      </trkpt>
      <trkpt lat="45.14119" lon="5.05539">
        <ele>336.9049987793</ele>
        <time>2009-11-18T14:53:49Z</time>
      </trkpt>
      <trkpt lat="45.1414" lon="5.05498">
        <ele>335.98498535156</ele>
        <time>2009-11-18T14:53:53Z</time>
      </trkpt>
      <trkpt lat="45.14162" lon="5.05493">
        <ele>335.61401367188</ele>
        <time>2009-11-18T14:53:56Z</time>
      </trkpt>
      <trkpt lat="45.14171" lon="5.05491">
        <ele>335.21398925781</ele>
        <time>2009-11-18T14:53:58Z</time>
      </trkpt>
      <trkpt lat="45.14221" lon="5.05504">
        <ele>334.81298828125</ele>
        <time>2009-11-18T14:54:05Z</time>
      </trkpt>
      <trkpt lat="45.14258" lon="5.05486">
        <ele>334.07901000977</ele>
        <time>2009-11-18T14:54:11Z</time>
      </trkpt>
      <trkpt lat="45.14277" lon="5.05484">
        <ele>333.62100219727</ele>
        <time>2009-11-18T14:54:14Z</time>
      </trkpt>
      <trkpt lat="45.1431" lon="5.05494">
        <ele>332.82000732422</ele>
        <time>2009-11-18T14:54:20Z</time>
      </trkpt>
      <trkpt lat="45.14352" lon="5.055">
        <ele>331.11898803711</ele>
        <time>2009-11-18T14:54:27Z</time>
      </trkpt>
      <trkpt lat="45.14378" lon="5.05495">
        <ele>330.77899169922</ele>
        <time>2009-11-18T14:54:32Z</time>
      </trkpt>
      <trkpt lat="45.14389" lon="5.0548">
        <ele>329.74301147461</ele>
        <time>2009-11-18T14:54:35Z</time>
      </trkpt>
      <trkpt lat="45.14402" lon="5.05444">
        <ele>328.07000732422</ele>
        <time>2009-11-18T14:54:40Z</time>
      </trkpt>
      <trkpt lat="45.14402" lon="5.05444">
        <ele>327.3039855957</ele>
        <time>2009-11-18T14:54:43Z</time>
      </trkpt>
      <trkpt lat="45.14439" lon="5.05367">
        <ele>326.1969909668</ele>
        <time>2009-11-18T14:54:48Z</time>
      </trkpt>
      <trkpt lat="45.14463" lon="5.0536">
        <ele>324.4289855957</ele>
        <time>2009-11-18T14:54:51Z</time>
      </trkpt>
      <trkpt lat="45.14487" lon="5.05364">
        <ele>322.20599365234</ele>
        <time>2009-11-18T14:54:54Z</time>
      </trkpt>
      <trkpt lat="45.14518" lon="5.05374">
        <ele>320.40701293945</ele>
        <time>2009-11-18T14:54:58Z</time>
      </trkpt>
      <trkpt lat="45.14532" lon="5.0537">
        <ele>319.71701049805</ele>
        <time>2009-11-18T14:55:00Z</time>
      </trkpt>
      <trkpt lat="45.1454" lon="5.05354">
        <ele>319.91198730469</ele>
        <time>2009-11-18T14:55:02Z</time>
      </trkpt>
      <trkpt lat="45.14537" lon="5.0533">
        <ele>320.05801391602</ele>
        <time>2009-11-18T14:55:05Z</time>
      </trkpt>
      <trkpt lat="45.14531" lon="5.05314">
        <ele>320.66299438477</ele>
        <time>2009-11-18T14:55:07Z</time>
      </trkpt>
      <trkpt lat="45.14513" lon="5.05284">
        <ele>322.3219909668</ele>
        <time>2009-11-18T14:55:12Z</time>
      </trkpt>
      <trkpt lat="45.14505" lon="5.05274">
        <ele>322.82299804688</ele>
        <time>2009-11-18T14:55:14Z</time>
      </trkpt>
      <trkpt lat="45.14494" lon="5.0526">
        <ele>324.06600952148</ele>
        <time>2009-11-18T14:55:17Z</time>
      </trkpt>
      <trkpt lat="45.14477" lon="5.0523">
        <ele>325.28799438477</ele>
        <time>2009-11-18T14:55:23Z</time>
      </trkpt>
      <trkpt lat="45.14474" lon="5.05224">
        <ele>325.39898681641</ele>
        <time>2009-11-18T14:55:24Z</time>
      </trkpt>
      <trkpt lat="45.14463" lon="5.05189">
        <ele>326.39898681641</ele>
        <time>2009-11-18T14:55:30Z</time>
      </trkpt>
      <trkpt lat="45.14473" lon="5.05161">
        <ele>326.72900390625</ele>
        <time>2009-11-18T14:55:34Z</time>
      </trkpt>
      <trkpt lat="45.14487" lon="5.05152">
        <ele>327.75299072266</ele>
        <time>2009-11-18T14:55:38Z</time>
      </trkpt>
      <trkpt lat="45.14502" lon="5.05141">
        <ele>328.95599365234</ele>
        <time>2009-11-18T14:55:43Z</time>
      </trkpt>
      <trkpt lat="45.1451" lon="5.05126">
        <ele>330.02899169922</ele>
        <time>2009-11-18T14:55:47Z</time>
      </trkpt>
      <trkpt lat="45.14518" lon="5.05108">
        <ele>331.11801147461</ele>
        <time>2009-11-18T14:55:51Z</time>
      </trkpt>
      <trkpt lat="45.14523" lon="5.05092">
        <ele>331.5710144043</ele>
        <time>2009-11-18T14:55:54Z</time>
      </trkpt>
      <trkpt lat="45.14523" lon="5.05069">
        <ele>332.43499755859</ele>
        <time>2009-11-18T14:55:58Z</time>
      </trkpt>
      <trkpt lat="45.14523" lon="5.05046">
        <ele>333.09899902344</ele>
        <time>2009-11-18T14:56:02Z</time>
      </trkpt>
      <trkpt lat="45.14518" lon="5.05001">
        <ele>333.63800048828</ele>
        <time>2009-11-18T14:56:09Z</time>
      </trkpt>
      <trkpt lat="45.14513" lon="5.04975">
        <ele>333.51599121094</ele>
        <time>2009-11-18T14:56:13Z</time>
      </trkpt>
      <trkpt lat="45.14504" lon="5.04961">
        <ele>333.36999511719</ele>
        <time>2009-11-18T14:56:16Z</time>
      </trkpt>
      <trkpt lat="45.14492" lon="5.04942">
        <ele>333.27499389648</ele>
        <time>2009-11-18T14:56:20Z</time>
      </trkpt>
      <trkpt lat="45.14485" lon="5.04918">
        <ele>333.0710144043</ele>
        <time>2009-11-18T14:56:24Z</time>
      </trkpt>
      <trkpt lat="45.14492" lon="5.04901">
        <ele>332.64898681641</ele>
        <time>2009-11-18T14:56:27Z</time>
      </trkpt>
      <trkpt lat="45.14503" lon="5.04885">
        <ele>331.89801025391</ele>
        <time>2009-11-18T14:56:30Z</time>
      </trkpt>
      <trkpt lat="45.14515" lon="5.04877">
        <ele>331.06600952148</ele>
        <time>2009-11-18T14:56:33Z</time>
      </trkpt>
      <trkpt lat="45.14531" lon="5.04866">
        <ele>330.25201416016</ele>
        <time>2009-11-18T14:56:37Z</time>
      </trkpt>
      <trkpt lat="45.14545" lon="5.04857">
        <ele>329.64401245117</ele>
        <time>2009-11-18T14:56:40Z</time>
      </trkpt>
      <trkpt lat="45.14557" lon="5.04845">
        <ele>329.19000244141</ele>
        <time>2009-11-18T14:56:43Z</time>
      </trkpt>
      <trkpt lat="45.14579" lon="5.0481">
        <ele>328.39898681641</ele>
        <time>2009-11-18T14:56:49Z</time>
      </trkpt>
      <trkpt lat="45.14589" lon="5.04787">
        <ele>326.73901367188</ele>
        <time>2009-11-18T14:56:52Z</time>
      </trkpt>
      <trkpt lat="45.14601" lon="5.04752">
        <ele>326.39801025391</ele>
        <time>2009-11-18T14:56:56Z</time>
      </trkpt>
      <trkpt lat="45.14611" lon="5.04722">
        <ele>324.52600097656</ele>
        <time>2009-11-18T14:56:59Z</time>
      </trkpt>
      <trkpt lat="45.14625" lon="5.04693">
        <ele>322.32400512695</ele>
        <time>2009-11-18T14:57:02Z</time>
      </trkpt>
      <trkpt lat="45.14643" lon="5.04666">
        <ele>320.76400756836</ele>
        <time>2009-11-18T14:57:05Z</time>
      </trkpt>
      <trkpt lat="45.14649" lon="5.04656">
        <ele>320.71899414062</ele>
        <time>2009-11-18T14:57:06Z</time>
      </trkpt>
      <trkpt lat="45.14662" lon="5.04636">
        <ele>319.53201293945</ele>
        <time>2009-11-18T14:57:08Z</time>
      </trkpt>
      <trkpt lat="45.14682" lon="5.04605">
        <ele>318.0299987793</ele>
        <time>2009-11-18T14:57:11Z</time>
      </trkpt>
      <trkpt lat="45.14708" lon="5.04563">
        <ele>316.23400878906</ele>
        <time>2009-11-18T14:57:15Z</time>
      </trkpt>
      <trkpt lat="45.1473" lon="5.04514">
        <ele>313.50799560547</ele>
        <time>2009-11-18T14:57:19Z</time>
      </trkpt>
      <trkpt lat="45.14761" lon="5.04429">
        <ele>308.64401245117</ele>
        <time>2009-11-18T14:57:26Z</time>
      </trkpt>
      <trkpt lat="45.14766" lon="5.04373">
        <ele>305.78298950195</ele>
        <time>2009-11-18T14:57:30Z</time>
      </trkpt>
      <trkpt lat="45.14759" lon="5.04277">
        <ele>299.19799804688</ele>
        <time>2009-11-18T14:57:36Z</time>
      </trkpt>
      <trkpt lat="45.14762" lon="5.04175">
        <ele>295.25201416016</ele>
        <time>2009-11-18T14:57:41Z</time>
      </trkpt>
      <trkpt lat="45.14767" lon="5.04083">
        <ele>291.51901245117</ele>
        <time>2009-11-18T14:57:46Z</time>
      </trkpt>
      <trkpt lat="45.14767" lon="5.04071">
        <ele>289.56201171875</ele>
        <time>2009-11-18T14:57:49Z</time>
      </trkpt>
      <trkpt lat="45.1478" lon="5.03977">
        <ele>287.76699829102</ele>
        <time>2009-11-18T14:57:52Z</time>
      </trkpt>
      <trkpt lat="45.14792" lon="5.0391">
        <ele>285.62399291992</ele>
        <time>2009-11-18T14:57:56Z</time>
      </trkpt>
      <trkpt lat="45.14808" lon="5.03836">
        <ele>284.75100708008</ele>
        <time>2009-11-18T14:58:01Z</time>
      </trkpt>
      <trkpt lat="45.14821" lon="5.03756">
        <ele>284.06600952148</ele>
        <time>2009-11-18T14:58:07Z</time>
      </trkpt>
      <trkpt lat="45.14829" lon="5.03711">
        <ele>283.21600341797</ele>
        <time>2009-11-18T14:58:11Z</time>
      </trkpt>
      <trkpt lat="45.14831" lon="5.03702">
        <ele>283.12899780273</ele>
        <time>2009-11-18T14:58:12Z</time>
      </trkpt>
      <trkpt lat="45.14832" lon="5.03697">
        <ele>283.40899658203</ele>
        <time>2009-11-18T14:58:16Z</time>
      </trkpt>
      <trkpt lat="45.14836" lon="5.03667">
        <ele>283.94400024414</ele>
        <time>2009-11-18T14:58:21Z</time>
      </trkpt>
      <trkpt lat="45.14832" lon="5.03669">
        <ele>284.03201293945</ele>
        <time>2009-11-18T14:58:25Z</time>
      </trkpt>
      <trkpt lat="45.14811" lon="5.03646">
        <ele>284.8030090332</ele>
        <time>2009-11-18T14:58:32Z</time>
      </trkpt>
      <trkpt lat="45.14799" lon="5.03634">
        <ele>285.43701171875</ele>
        <time>2009-11-18T14:58:37Z</time>
      </trkpt>
      <trkpt lat="45.14797" lon="5.03631">
        <ele>285.52899169922</ele>
        <time>2009-11-18T14:58:38Z</time>
      </trkpt>
      <trkpt lat="45.14784" lon="5.03611">
        <ele>286.02899169922</ele>
        <time>2009-11-18T14:58:45Z</time>
      </trkpt>
      <trkpt lat="45.14782" lon="5.03607">
        <ele>286.20700073242</ele>
        <time>2009-11-18T14:58:47Z</time>
      </trkpt>
      <trkpt lat="45.14778" lon="5.03602">
        <ele>286.41500854492</ele>
        <time>2009-11-18T14:58:50Z</time>
      </trkpt>
      <trkpt lat="45.14766" lon="5.03595">
        <ele>286.86401367188</ele>
        <time>2009-11-18T14:58:56Z</time>
      </trkpt>
      <trkpt lat="45.14749" lon="5.03589">
        <ele>286.21301269531</ele>
        <time>2009-11-18T14:59:02Z</time>
      </trkpt>
      <trkpt lat="45.14734" lon="5.0357">
        <ele>284.95199584961</ele>
        <time>2009-11-18T14:59:08Z</time>
      </trkpt>
      <trkpt lat="45.14721" lon="5.03545">
        <ele>283.7799987793</ele>
        <time>2009-11-18T14:59:16Z</time>
      </trkpt>
      <trkpt lat="45.14709" lon="5.03517">
        <ele>282.05599975586</ele>
        <time>2009-11-18T14:59:22Z</time>
      </trkpt>
      <trkpt lat="45.14704" lon="5.03506">
        <ele>280.89599609375</ele>
        <time>2009-11-18T14:59:24Z</time>
      </trkpt>
      <trkpt lat="45.14683" lon="5.03455">
        <ele>277.67001342773</ele>
        <time>2009-11-18T14:59:32Z</time>
      </trkpt>
      <trkpt lat="45.14658" lon="5.03403">
        <ele>275.45999145508</ele>
        <time>2009-11-18T14:59:39Z</time>
      </trkpt>
      <trkpt lat="45.14624" lon="5.03333">
        <ele>273.52099609375</ele>
        <time>2009-11-18T14:59:47Z</time>
      </trkpt>
      <trkpt lat="45.14609" lon="5.033">
        <ele>273.05499267578</ele>
        <time>2009-11-18T14:59:51Z</time>
      </trkpt>
      <trkpt lat="45.146" lon="5.03281">
        <ele>272.63101196289</ele>
        <time>2009-11-18T14:59:55Z</time>
      </trkpt>
      <trkpt lat="45.14605" lon="5.03254">
        <ele>272.79598999023</ele>
        <time>2009-11-18T15:00:00Z</time>
      </trkpt>
      <trkpt lat="45.14611" lon="5.03222">
        <ele>272.98699951172</ele>
        <time>2009-11-18T15:00:06Z</time>
      </trkpt>
      <trkpt lat="45.14619" lon="5.03172">
        <ele>273.08801269531</ele>
        <time>2009-11-18T15:00:14Z</time>
      </trkpt>
      <trkpt lat="45.1463" lon="5.03116">
        <ele>273.00601196289</ele>
        <time>2009-11-18T15:00:22Z</time>
      </trkpt>
      <trkpt lat="45.14631" lon="5.03109">
        <ele>272.77600097656</ele>
        <time>2009-11-18T15:00:23Z</time>
      </trkpt>
      <trkpt lat="45.14643" lon="5.03041">
        <ele>270.35598754883</ele>
        <time>2009-11-18T15:00:32Z</time>
      </trkpt>
      <trkpt lat="45.14655" lon="5.02974">
        <ele>267.63500976562</ele>
        <time>2009-11-18T15:00:39Z</time>
      </trkpt>
      <trkpt lat="45.14661" lon="5.02931">
        <ele>265.98199462891</ele>
        <time>2009-11-18T15:00:43Z</time>
      </trkpt>
      <trkpt lat="45.14664" lon="5.02897">
        <ele>264.66598510742</ele>
        <time>2009-11-18T15:00:46Z</time>
      </trkpt>
      <trkpt lat="45.14656" lon="5.02878">
        <ele>263.35000610352</ele>
        <time>2009-11-18T15:00:48Z</time>
      </trkpt>
      <trkpt lat="45.14627" lon="5.02846">
        <ele>261.56201171875</ele>
        <time>2009-11-18T15:00:52Z</time>
      </trkpt>
      <trkpt lat="45.14582" lon="5.02793">
        <ele>259.16900634766</ele>
        <time>2009-11-18T15:00:58Z</time>
      </trkpt>
      <trkpt lat="45.14524" lon="5.02727">
        <ele>255.28900146484</ele>
        <time>2009-11-18T15:01:05Z</time>
      </trkpt>
      <trkpt lat="45.14477" lon="5.02671">
        <ele>252.07400512695</ele>
        <time>2009-11-18T15:01:11Z</time>
      </trkpt>
      <trkpt lat="45.14461" lon="5.02652">
        <ele>251.27200317383</ele>
        <time>2009-11-18T15:01:13Z</time>
      </trkpt>
      <trkpt lat="45.14429" lon="5.02613">
        <ele>249.08099365234</ele>
        <time>2009-11-18T15:01:17Z</time>
      </trkpt>
      <trkpt lat="45.14424" lon="5.02607">
        <ele>247.13499450684</ele>
        <time>2009-11-18T15:01:20Z</time>
      </trkpt>
      <trkpt lat="45.14407" lon="5.02563">
        <ele>247.08500671387</ele>
        <time>2009-11-18T15:01:21Z</time>
      </trkpt>
      <trkpt lat="45.14411" lon="5.02513">
        <ele>244.72599792481</ele>
        <time>2009-11-18T15:01:24Z</time>
      </trkpt>
      <trkpt lat="45.14411" lon="5.02513">
        <ele>243.79800415039</ele>
        <time>2009-11-18T15:01:25Z</time>
      </trkpt>
      <trkpt lat="45.14451" lon="5.02399">
        <ele>240.94299316406</ele>
        <time>2009-11-18T15:01:32Z</time>
      </trkpt>
      <trkpt lat="45.14468" lon="5.02352">
        <ele>240.82800292969</ele>
        <time>2009-11-18T15:01:36Z</time>
      </trkpt>
      <trkpt lat="45.14482" lon="5.02311">
        <ele>240.61500549316</ele>
        <time>2009-11-18T15:01:40Z</time>
      </trkpt>
      <trkpt lat="45.14495" lon="5.02286">
        <ele>240.69500732422</ele>
        <time>2009-11-18T15:01:43Z</time>
      </trkpt>
      <trkpt lat="45.14523" lon="5.02248">
        <ele>240.72700500488</ele>
        <time>2009-11-18T15:01:49Z</time>
      </trkpt>
      <trkpt lat="45.14554" lon="5.02213">
        <ele>241.0950012207</ele>
        <time>2009-11-18T15:01:56Z</time>
      </trkpt>
      <trkpt lat="45.14572" lon="5.02193">
        <ele>240.8809967041</ele>
        <time>2009-11-18T15:02:00Z</time>
      </trkpt>
      <trkpt lat="45.14591" lon="5.02171">
        <ele>239.83299255371</ele>
        <time>2009-11-18T15:02:04Z</time>
      </trkpt>
      <trkpt lat="45.14622" lon="5.02115">
        <ele>239.20799255371</ele>
        <time>2009-11-18T15:02:12Z</time>
      </trkpt>
      <trkpt lat="45.14645" lon="5.02067">
        <ele>239.53500366211</ele>
        <time>2009-11-18T15:02:19Z</time>
      </trkpt>
      <trkpt lat="45.14671" lon="5.02013">
        <ele>239.46499633789</ele>
        <time>2009-11-18T15:02:27Z</time>
      </trkpt>
      <trkpt lat="45.14676" lon="5.02001">
        <ele>238.74499511719</ele>
        <time>2009-11-18T15:02:29Z</time>
      </trkpt>
      <trkpt lat="45.14697" lon="5.01961">
        <ele>239.65400695801</ele>
        <time>2009-11-18T15:02:35Z</time>
      </trkpt>
      <trkpt lat="45.14721" lon="5.01926">
        <ele>239.42799377441</ele>
        <time>2009-11-18T15:02:41Z</time>
      </trkpt>
      <trkpt lat="45.14749" lon="5.01887">
        <ele>239.88499450684</ele>
        <time>2009-11-18T15:02:48Z</time>
      </trkpt>
      <trkpt lat="45.14783" lon="5.01841">
        <ele>240.69799804688</ele>
        <time>2009-11-18T15:02:57Z</time>
      </trkpt>
      <trkpt lat="45.14806" lon="5.0181">
        <ele>241.48500061035</ele>
        <time>2009-11-18T15:03:04Z</time>
      </trkpt>
      <trkpt lat="45.14811" lon="5.01803">
        <ele>242.19500732422</ele>
        <time>2009-11-18T15:03:06Z</time>
      </trkpt>
      <trkpt lat="45.14829" lon="5.01778">
        <ele>242.79699707031</ele>
        <time>2009-11-18T15:03:12Z</time>
      </trkpt>
      <trkpt lat="45.14846" lon="5.01755">
        <ele>243.85200500488</ele>
        <time>2009-11-18T15:03:18Z</time>
      </trkpt>
      <trkpt lat="45.14862" lon="5.01733">
        <ele>244.64500427246</ele>
        <time>2009-11-18T15:03:24Z</time>
      </trkpt>
      <trkpt lat="45.14861" lon="5.01721">
        <ele>244.92399597168</ele>
        <time>2009-11-18T15:03:28Z</time>
      </trkpt>
      <trkpt lat="45.14848" lon="5.01703">
        <ele>244.69999694824</ele>
        <time>2009-11-18T15:03:33Z</time>
      </trkpt>
      <trkpt lat="45.14825" lon="5.01669">
        <ele>244.51400756836</ele>
        <time>2009-11-18T15:03:40Z</time>
      </trkpt>
      <trkpt lat="45.14821" lon="5.01664">
        <ele>244.54899597168</ele>
        <time>2009-11-18T15:03:41Z</time>
      </trkpt>
      <trkpt lat="45.14795" lon="5.01628">
        <ele>244.71499633789</ele>
        <time>2009-11-18T15:03:48Z</time>
      </trkpt>
      <trkpt lat="45.14778" lon="5.01606">
        <ele>244.70500183106</ele>
        <time>2009-11-18T15:03:52Z</time>
      </trkpt>
      <trkpt lat="45.14767" lon="5.01577">
        <ele>245.66700744629</ele>
        <time>2009-11-18T15:03:56Z</time>
      </trkpt>
      <trkpt lat="45.14767" lon="5.01571">
        <ele>245.99800109863</ele>
        <time>2009-11-18T15:03:57Z</time>
      </trkpt>
      <trkpt lat="45.14764" lon="5.01543">
        <ele>247.80999755859</ele>
        <time>2009-11-18T15:04:03Z</time>
      </trkpt>
      <trkpt lat="45.14764" lon="5.01539">
        <ele>247.77299499512</ele>
        <time>2009-11-18T15:04:07Z</time>
      </trkpt>
      <trkpt lat="45.14763" lon="5.01535">
        <ele>248.00900268555</ele>
        <time>2009-11-18T15:04:28Z</time>
      </trkpt>
      <trkpt lat="45.14763" lon="5.0153">
        <ele>247.69900512695</ele>
        <time>2009-11-18T15:04:32Z</time>
      </trkpt>
      <trkpt lat="45.14763" lon="5.0153">
        <ele>246.64100646973</ele>
        <time>2009-11-18T15:04:37Z</time>
      </trkpt>
      <trkpt lat="45.1475" lon="5.01508">
        <ele>246.47900390625</ele>
        <time>2009-11-18T15:04:39Z</time>
      </trkpt>
      <trkpt lat="45.14731" lon="5.01473">
        <ele>245.17599487305</ele>
        <time>2009-11-18T15:04:45Z</time>
      </trkpt>
      <trkpt lat="45.14714" lon="5.01437">
        <ele>244.58399963379</ele>
        <time>2009-11-18T15:04:50Z</time>
      </trkpt>
      <trkpt lat="45.14704" lon="5.01413">
        <ele>243.96499633789</ele>
        <time>2009-11-18T15:04:53Z</time>
      </trkpt>
      <trkpt lat="45.147" lon="5.01406">
        <ele>243.55000305176</ele>
        <time>2009-11-18T15:04:54Z</time>
      </trkpt>
      <trkpt lat="45.14697" lon="5.01398">
        <ele>243.5299987793</ele>
        <time>2009-11-18T15:04:55Z</time>
      </trkpt>
      <trkpt lat="45.14688" lon="5.01375">
        <ele>243.54299926758</ele>
        <time>2009-11-18T15:04:58Z</time>
      </trkpt>
      <trkpt lat="45.14664" lon="5.01316">
        <ele>243.0299987793</ele>
        <time>2009-11-18T15:05:06Z</time>
      </trkpt>
      <trkpt lat="45.14656" lon="5.01277">
        <ele>242.96099853516</ele>
        <time>2009-11-18T15:05:11Z</time>
      </trkpt>
      <trkpt lat="45.14632" lon="5.01242">
        <ele>243.26800537109</ele>
        <time>2009-11-18T15:05:18Z</time>
      </trkpt>
      <trkpt lat="45.14614" lon="5.01222">
        <ele>243.59300231934</ele>
        <time>2009-11-18T15:05:24Z</time>
      </trkpt>
      <trkpt lat="45.14604" lon="5.01214">
        <ele>243.66900634766</ele>
        <time>2009-11-18T15:05:28Z</time>
      </trkpt>
      <trkpt lat="45.14596" lon="5.01208">
        <ele>244.36799621582</ele>
        <time>2009-11-18T15:05:32Z</time>
      </trkpt>
      <trkpt lat="45.14584" lon="5.01199">
        <ele>245.72099304199</ele>
        <time>2009-11-18T15:05:39Z</time>
      </trkpt>
      <trkpt lat="45.14574" lon="5.01192">
        <ele>247.57000732422</ele>
        <time>2009-11-18T15:05:44Z</time>
      </trkpt>
      <trkpt lat="45.14575" lon="5.01153">
        <ele>248.89999389648</ele>
        <time>2009-11-18T15:05:47Z</time>
      </trkpt>
      <trkpt lat="45.1457" lon="5.01136">
        <ele>250.26400756836</ele>
        <time>2009-11-18T15:05:50Z</time>
      </trkpt>
      <trkpt lat="45.14566" lon="5.01123">
        <ele>251.28199768066</ele>
        <time>2009-11-18T15:05:53Z</time>
      </trkpt>
      <trkpt lat="45.14564" lon="5.0112">
        <ele>251.56199645996</ele>
        <time>2009-11-18T15:05:54Z</time>
      </trkpt>
      <trkpt lat="45.14561" lon="5.01116">
        <ele>252.1190032959</ele>
        <time>2009-11-18T15:05:55Z</time>
      </trkpt>
      <trkpt lat="45.14554" lon="5.01104">
        <ele>252.94999694824</ele>
        <time>2009-11-18T15:05:58Z</time>
      </trkpt>
      <trkpt lat="45.14541" lon="5.01081">
        <ele>254.27699279785</ele>
        <time>2009-11-18T15:06:04Z</time>
      </trkpt>
      <trkpt lat="45.14528" lon="5.01059">
        <ele>255.64799499512</ele>
        <time>2009-11-18T15:06:10Z</time>
      </trkpt>
      <trkpt lat="45.14512" lon="5.01033">
        <ele>258.25399780273</ele>
        <time>2009-11-18T15:06:18Z</time>
      </trkpt>
      <trkpt lat="45.14493" lon="5.01004">
        <ele>260.68798828125</ele>
        <time>2009-11-18T15:06:27Z</time>
      </trkpt>
      <trkpt lat="45.14474" lon="5.00978">
        <ele>263.15600585938</ele>
        <time>2009-11-18T15:06:36Z</time>
      </trkpt>
      <trkpt lat="45.14455" lon="5.00954">
        <ele>264.96099853516</ele>
        <time>2009-11-18T15:06:44Z</time>
      </trkpt>
      <trkpt lat="45.14432" lon="5.00944">
        <ele>266.75799560547</ele>
        <time>2009-11-18T15:06:51Z</time>
      </trkpt>
      <trkpt lat="45.14423" lon="5.0093">
        <ele>267.87298583984</ele>
        <time>2009-11-18T15:06:55Z</time>
      </trkpt>
      <trkpt lat="45.14421" lon="5.00913">
        <ele>269.30700683594</ele>
        <time>2009-11-18T15:06:58Z</time>
      </trkpt>
      <trkpt lat="45.14433" lon="5.00906">
        <ele>270.11898803711</ele>
        <time>2009-11-18T15:07:00Z</time>
      </trkpt>
      <trkpt lat="45.14448" lon="5.00916">
        <ele>271.17401123047</ele>
        <time>2009-11-18T15:07:05Z</time>
      </trkpt>
      <trkpt lat="45.14472" lon="5.00942">
        <ele>273.56799316406</ele>
        <time>2009-11-18T15:07:14Z</time>
      </trkpt>
      <trkpt lat="45.14501" lon="5.00961">
        <ele>276.12200927734</ele>
        <time>2009-11-18T15:07:23Z</time>
      </trkpt>
      <trkpt lat="45.14521" lon="5.00975">
        <ele>278.1669921875</ele>
        <time>2009-11-18T15:07:30Z</time>
      </trkpt>
      <trkpt lat="45.14549" lon="5.00999">
        <ele>281.42001342773</ele>
        <time>2009-11-18T15:07:40Z</time>
      </trkpt>
      <trkpt lat="45.14574" lon="5.01024">
        <ele>284.26300048828</ele>
        <time>2009-11-18T15:07:50Z</time>
      </trkpt>
      <trkpt lat="45.14597" lon="5.01044">
        <ele>286.66299438477</ele>
        <time>2009-11-18T15:07:59Z</time>
      </trkpt>
      <trkpt lat="45.14624" lon="5.0106">
        <ele>289.68099975586</ele>
        <time>2009-11-18T15:08:09Z</time>
      </trkpt>
      <trkpt lat="45.14647" lon="5.0107">
        <ele>291.51901245117</ele>
        <time>2009-11-18T15:08:17Z</time>
      </trkpt>
      <trkpt lat="45.14669" lon="5.01066">
        <ele>294.18301391602</ele>
        <time>2009-11-18T15:08:25Z</time>
      </trkpt>
      <trkpt lat="45.14687" lon="5.01063">
        <ele>295.97198486328</ele>
        <time>2009-11-18T15:08:32Z</time>
      </trkpt>
      <trkpt lat="45.14707" lon="5.01059">
        <ele>297.81399536133</ele>
        <time>2009-11-18T15:08:39Z</time>
      </trkpt>
      <trkpt lat="45.14727" lon="5.01056">
        <ele>299.78298950195</ele>
        <time>2009-11-18T15:08:46Z</time>
      </trkpt>
      <trkpt lat="45.14753" lon="5.01051">
        <ele>301.44198608398</ele>
        <time>2009-11-18T15:08:54Z</time>
      </trkpt>
      <trkpt lat="45.14772" lon="5.0104">
        <ele>303.14999389648</ele>
        <time>2009-11-18T15:09:01Z</time>
      </trkpt>
      <trkpt lat="45.14783" lon="5.01022">
        <ele>304.48498535156</ele>
        <time>2009-11-18T15:09:07Z</time>
      </trkpt>
      <trkpt lat="45.14784" lon="5.00998">
        <ele>305.86999511719</ele>
        <time>2009-11-18T15:09:13Z</time>
      </trkpt>
      <trkpt lat="45.14784" lon="5.00975">
        <ele>307.28201293945</ele>
        <time>2009-11-18T15:09:18Z</time>
      </trkpt>
      <trkpt lat="45.14784" lon="5.00943">
        <ele>308.57000732422</ele>
        <time>2009-11-18T15:09:25Z</time>
      </trkpt>
      <trkpt lat="45.14787" lon="5.00918">
        <ele>309.97500610352</ele>
        <time>2009-11-18T15:09:30Z</time>
      </trkpt>
      <trkpt lat="45.14791" lon="5.00895">
        <ele>310.37200927734</ele>
        <time>2009-11-18T15:09:35Z</time>
      </trkpt>
      <trkpt lat="45.14801" lon="5.00871">
        <ele>311.89300537109</ele>
        <time>2009-11-18T15:09:40Z</time>
      </trkpt>
      <trkpt lat="45.14823" lon="5.00853">
        <ele>312.93301391602</ele>
        <time>2009-11-18T15:09:46Z</time>
      </trkpt>
      <trkpt lat="45.14853" lon="5.00831">
        <ele>314.34600830078</ele>
        <time>2009-11-18T15:09:54Z</time>
      </trkpt>
      <trkpt lat="45.1486" lon="5.00824">
        <ele>315.25900268555</ele>
        <time>2009-11-18T15:09:56Z</time>
      </trkpt>
      <trkpt lat="45.14865" lon="5.00798">
        <ele>316.56100463867</ele>
        <time>2009-11-18T15:10:01Z</time>
      </trkpt>
      <trkpt lat="45.14859" lon="5.00779">
        <ele>317.52099609375</ele>
        <time>2009-11-18T15:10:05Z</time>
      </trkpt>
      <trkpt lat="45.14853" lon="5.00763">
        <ele>318.05801391602</ele>
        <time>2009-11-18T15:10:08Z</time>
      </trkpt>
      <trkpt lat="45.14842" lon="5.00732">
        <ele>319.38900756836</ele>
        <time>2009-11-18T15:10:13Z</time>
      </trkpt>
      <trkpt lat="45.1483" lon="5.00711">
        <ele>320.66299438477</ele>
        <time>2009-11-18T15:10:18Z</time>
      </trkpt>
      <trkpt lat="45.14807" lon="5.00674">
        <ele>321.88800048828</ele>
        <time>2009-11-18T15:10:26Z</time>
      </trkpt>
      <trkpt lat="45.1479" lon="5.00637">
        <ele>323.28201293945</ele>
        <time>2009-11-18T15:10:33Z</time>
      </trkpt>
      <trkpt lat="45.1478" lon="5.00596">
        <ele>325.39300537109</ele>
        <time>2009-11-18T15:10:40Z</time>
      </trkpt>
      <trkpt lat="45.1478" lon="5.00557">
        <ele>327.46499633789</ele>
        <time>2009-11-18T15:10:47Z</time>
      </trkpt>
      <trkpt lat="45.14786" lon="5.00513">
        <ele>329.9280090332</ele>
        <time>2009-11-18T15:10:56Z</time>
      </trkpt>
      <trkpt lat="45.1479" lon="5.00485">
        <ele>331.91101074219</ele>
        <time>2009-11-18T15:11:01Z</time>
      </trkpt>
      <trkpt lat="45.14791" lon="5.00472">
        <ele>332.81100463867</ele>
        <time>2009-11-18T15:11:03Z</time>
      </trkpt>
      <trkpt lat="45.1479" lon="5.00432">
        <ele>334.62399291992</ele>
        <time>2009-11-18T15:11:10Z</time>
      </trkpt>
      <trkpt lat="45.14785" lon="5.00385">
        <ele>336.20098876953</ele>
        <time>2009-11-18T15:11:19Z</time>
      </trkpt>
      <trkpt lat="45.14784" lon="5.00376">
        <ele>336.09399414062</ele>
        <time>2009-11-18T15:11:22Z</time>
      </trkpt>
      <trkpt lat="45.14784" lon="5.00376">
        <ele>335.64300537109</ele>
        <time>2009-11-18T15:11:28Z</time>
      </trkpt>
      <trkpt lat="45.14779" lon="5.00281">
        <ele>335.26098632812</ele>
        <time>2009-11-18T15:11:35Z</time>
      </trkpt>
      <trkpt lat="45.14782" lon="5.00214">
        <ele>336.04400634766</ele>
        <time>2009-11-18T15:11:43Z</time>
      </trkpt>
      <trkpt lat="45.14787" lon="5.00151">
        <ele>336.54998779297</ele>
        <time>2009-11-18T15:11:51Z</time>
      </trkpt>
      <trkpt lat="45.14799" lon="5.00105">
        <ele>335.9700012207</ele>
        <time>2009-11-18T15:11:57Z</time>
      </trkpt>
      <trkpt lat="45.14816" lon="5.0006">
        <ele>333.36801147461</ele>
        <time>2009-11-18T15:12:02Z</time>
      </trkpt>
      <trkpt lat="45.1482" lon="5.0005">
        <ele>333.07800292969</ele>
        <time>2009-11-18T15:12:03Z</time>
      </trkpt>
      <trkpt lat="45.14828" lon="5.0003">
        <ele>332.26400756836</ele>
        <time>2009-11-18T15:12:05Z</time>
      </trkpt>
      <trkpt lat="45.14835" lon="5.00003">
        <ele>331.07901000977</ele>
        <time>2009-11-18T15:12:08Z</time>
      </trkpt>
      <trkpt lat="45.14825" lon="4.99994">
        <ele>328.26000976562</ele>
        <time>2009-11-18T15:12:10Z</time>
      </trkpt>
      <trkpt lat="45.14784" lon="4.9999">
        <ele>323.24700927734</ele>
        <time>2009-11-18T15:12:14Z</time>
      </trkpt>
      <trkpt lat="45.14724" lon="5.00009">
        <ele>318.07998657227</ele>
        <time>2009-11-18T15:12:18Z</time>
      </trkpt>
      <trkpt lat="45.14711" lon="5.00016">
        <ele>315.13900756836</ele>
        <time>2009-11-18T15:12:20Z</time>
      </trkpt>
      <trkpt lat="45.14673" lon="5.00027">
        <ele>313.12399291992</ele>
        <time>2009-11-18T15:12:23Z</time>
      </trkpt>
      <trkpt lat="45.14624" lon="5.00017">
        <ele>311.97500610352</ele>
        <time>2009-11-18T15:12:27Z</time>
      </trkpt>
      <trkpt lat="45.14585" lon="4.99995">
        <ele>311.35501098633</ele>
        <time>2009-11-18T15:12:31Z</time>
      </trkpt>
      <trkpt lat="45.14587" lon="4.99998">
        <ele>311.21499633789</ele>
        <time>2009-11-18T15:12:35Z</time>
      </trkpt>
      <trkpt lat="45.14521" lon="4.99981">
        <ele>312.46701049805</ele>
        <time>2009-11-18T15:12:39Z</time>
      </trkpt>
      <trkpt lat="45.14493" lon="4.99984">
        <ele>312.44799804688</ele>
        <time>2009-11-18T15:12:43Z</time>
      </trkpt>
      <trkpt lat="45.14465" lon="4.99977">
        <ele>309.58599853516</ele>
        <time>2009-11-18T15:12:47Z</time>
      </trkpt>
      <trkpt lat="45.14451" lon="4.99954">
        <ele>306.9469909668</ele>
        <time>2009-11-18T15:12:49Z</time>
      </trkpt>
      <trkpt lat="45.14443" lon="4.99894">
        <ele>302.76800537109</ele>
        <time>2009-11-18T15:12:53Z</time>
      </trkpt>
      <trkpt lat="45.14434" lon="4.99847">
        <ele>298.76098632812</ele>
        <time>2009-11-18T15:12:56Z</time>
      </trkpt>
      <trkpt lat="45.14426" lon="4.99833">
        <ele>296.53399658203</ele>
        <time>2009-11-18T15:12:57Z</time>
      </trkpt>
      <trkpt lat="45.14409" lon="4.99804">
        <ele>293.79699707031</ele>
        <time>2009-11-18T15:12:59Z</time>
      </trkpt>
      <trkpt lat="45.144" lon="4.99789">
        <ele>293.11099243164</ele>
        <time>2009-11-18T15:13:00Z</time>
      </trkpt>
      <trkpt lat="45.1438" lon="4.99766">
        <ele>291.92098999023</ele>
        <time>2009-11-18T15:13:02Z</time>
      </trkpt>
      <trkpt lat="45.14305" lon="4.99751">
        <ele>288.85800170898</ele>
        <time>2009-11-18T15:13:08Z</time>
      </trkpt>
      <trkpt lat="45.14281" lon="4.99748">
        <ele>288.19000244141</ele>
        <time>2009-11-18T15:13:10Z</time>
      </trkpt>
      <trkpt lat="45.14237" lon="4.99735">
        <ele>286.31600952148</ele>
        <time>2009-11-18T15:13:14Z</time>
      </trkpt>
      <trkpt lat="45.14187" lon="4.99705">
        <ele>282.78201293945</ele>
        <time>2009-11-18T15:13:19Z</time>
      </trkpt>
      <trkpt lat="45.14179" lon="4.99695">
        <ele>281.50601196289</ele>
        <time>2009-11-18T15:13:20Z</time>
      </trkpt>
      <trkpt lat="45.14149" lon="4.99646">
        <ele>277.05700683594</ele>
        <time>2009-11-18T15:13:24Z</time>
      </trkpt>
      <trkpt lat="45.14165" lon="4.99556">
        <ele>271.03900146484</ele>
        <time>2009-11-18T15:13:30Z</time>
      </trkpt>
      <trkpt lat="45.1418" lon="4.99523">
        <ele>270.22601318359</ele>
        <time>2009-11-18T15:13:32Z</time>
      </trkpt>
      <trkpt lat="45.14199" lon="4.9951">
        <ele>270.37799072266</ele>
        <time>2009-11-18T15:13:34Z</time>
      </trkpt>
      <trkpt lat="45.14217" lon="4.995">
        <ele>271.19100952148</ele>
        <time>2009-11-18T15:13:36Z</time>
      </trkpt>
      <trkpt lat="45.14269" lon="4.99474">
        <ele>272.49600219727</ele>
        <time>2009-11-18T15:13:43Z</time>
      </trkpt>
      <trkpt lat="45.14318" lon="4.99449">
        <ele>271.05999755859</ele>
        <time>2009-11-18T15:13:50Z</time>
      </trkpt>
      <trkpt lat="45.1436" lon="4.99427">
        <ele>268.83499145508</ele>
        <time>2009-11-18T15:13:56Z</time>
      </trkpt>
      <trkpt lat="45.14378" lon="4.99412">
        <ele>267.38800048828</ele>
        <time>2009-11-18T15:13:59Z</time>
      </trkpt>
      <trkpt lat="45.14387" lon="4.99391">
        <ele>266.80099487305</ele>
        <time>2009-11-18T15:14:01Z</time>
      </trkpt>
      <trkpt lat="45.1442" lon="4.99342">
        <ele>263.95700073242</ele>
        <time>2009-11-18T15:14:06Z</time>
      </trkpt>
      <trkpt lat="45.14463" lon="4.99305">
        <ele>260.0710144043</ele>
        <time>2009-11-18T15:14:11Z</time>
      </trkpt>
      <trkpt lat="45.14491" lon="4.99295">
        <ele>258.02600097656</ele>
        <time>2009-11-18T15:14:14Z</time>
      </trkpt>
      <trkpt lat="45.14508" lon="4.993">
        <ele>255.89999389648</ele>
        <time>2009-11-18T15:14:16Z</time>
      </trkpt>
      <trkpt lat="45.14514" lon="4.99284">
        <ele>253.82600402832</ele>
        <time>2009-11-18T15:14:18Z</time>
      </trkpt>
      <trkpt lat="45.14513" lon="4.99275">
        <ele>253.21099853516</ele>
        <time>2009-11-18T15:14:20Z</time>
      </trkpt>
      <trkpt lat="45.1451" lon="4.99271">
        <ele>252.79800415039</ele>
        <time>2009-11-18T15:14:23Z</time>
      </trkpt>
      <trkpt lat="45.1451" lon="4.99271">
        <ele>252.78799438477</ele>
        <time>2009-11-18T15:14:25Z</time>
      </trkpt>
      <trkpt lat="45.1451" lon="4.99271">
        <ele>252.11199951172</ele>
        <time>2009-11-18T15:14:40Z</time>
      </trkpt>
      <trkpt lat="45.14508" lon="4.99268">
        <ele>251.65600585938</ele>
        <time>2009-11-18T15:14:48Z</time>
      </trkpt>
      <trkpt lat="45.14508" lon="4.99268">
        <ele>251.63499450684</ele>
        <time>2009-11-18T15:14:52Z</time>
      </trkpt>
      <trkpt lat="45.14508" lon="4.99268">
        <ele>251.19900512695</ele>
        <time>2009-11-18T15:14:57Z</time>
      </trkpt>
      <trkpt lat="45.14496" lon="4.99252">
        <ele>251.40400695801</ele>
        <time>2009-11-18T15:15:05Z</time>
      </trkpt>
      <trkpt lat="45.14492" lon="4.99247">
        <ele>251.09100341797</ele>
        <time>2009-11-18T15:15:11Z</time>
      </trkpt>
      <trkpt lat="45.14487" lon="4.9924">
        <ele>251.45899963379</ele>
        <time>2009-11-18T15:15:18Z</time>
      </trkpt>
      <trkpt lat="45.14487" lon="4.9924">
        <ele>251.49299621582</ele>
        <time>2009-11-18T15:15:22Z</time>
      </trkpt>
      <trkpt lat="45.14482" lon="4.99234">
        <ele>251.4940032959</ele>
        <time>2009-11-18T15:15:27Z</time>
      </trkpt>
      <trkpt lat="45.14476" lon="4.99227">
        <ele>252.36199951172</ele>
        <time>2009-11-18T15:15:31Z</time>
      </trkpt>
      <trkpt lat="45.14465" lon="4.99212">
        <ele>253.97500610352</ele>
        <time>2009-11-18T15:15:36Z</time>
      </trkpt>
      <trkpt lat="45.1445" lon="4.99192">
        <ele>255.90100097656</ele>
        <time>2009-11-18T15:15:42Z</time>
      </trkpt>
      <trkpt lat="45.14431" lon="4.99175">
        <ele>257.94198608398</ele>
        <time>2009-11-18T15:15:48Z</time>
      </trkpt>
      <trkpt lat="45.14414" lon="4.99162">
        <ele>259.22299194336</ele>
        <time>2009-11-18T15:15:53Z</time>
      </trkpt>
      <trkpt lat="45.14396" lon="4.99147">
        <ele>260.9169921875</ele>
        <time>2009-11-18T15:15:59Z</time>
      </trkpt>
      <trkpt lat="45.14379" lon="4.99135">
        <ele>262.88299560547</ele>
        <time>2009-11-18T15:16:05Z</time>
      </trkpt>
      <trkpt lat="45.1436" lon="4.99131">
        <ele>265.61599731445</ele>
        <time>2009-11-18T15:16:11Z</time>
      </trkpt>
      <trkpt lat="45.14349" lon="4.99128">
        <ele>267.18798828125</ele>
        <time>2009-11-18T15:16:15Z</time>
      </trkpt>
      <trkpt lat="45.14345" lon="4.99127">
        <ele>267.82598876953</ele>
        <time>2009-11-18T15:16:17Z</time>
      </trkpt>
      <trkpt lat="45.14335" lon="4.99125">
        <ele>268.15798950195</ele>
        <time>2009-11-18T15:16:23Z</time>
      </trkpt>
      <trkpt lat="45.14331" lon="4.99124">
        <ele>268.62701416016</ele>
        <time>2009-11-18T15:16:25Z</time>
      </trkpt>
      <trkpt lat="45.14325" lon="4.99123">
        <ele>269.52200317383</ele>
        <time>2009-11-18T15:16:32Z</time>
      </trkpt>
      <trkpt lat="45.14275" lon="4.99125">
        <ele>270.32400512695</ele>
        <time>2009-11-18T15:16:38Z</time>
      </trkpt>
      <trkpt lat="45.14236" lon="4.99127">
        <ele>271.83200073242</ele>
        <time>2009-11-18T15:16:46Z</time>
      </trkpt>
      <trkpt lat="45.14202" lon="4.99114">
        <ele>272.87100219727</ele>
        <time>2009-11-18T15:16:53Z</time>
      </trkpt>
      <trkpt lat="45.14161" lon="4.99097">
        <ele>274.16900634766</ele>
        <time>2009-11-18T15:17:01Z</time>
      </trkpt>
      <trkpt lat="45.14126" lon="4.99084">
        <ele>275.04998779297</ele>
        <time>2009-11-18T15:17:08Z</time>
      </trkpt>
      <trkpt lat="45.14081" lon="4.99083">
        <ele>275.41299438477</ele>
        <time>2009-11-18T15:17:16Z</time>
      </trkpt>
      <trkpt lat="45.14024" lon="4.99082">
        <ele>275.52499389648</ele>
        <time>2009-11-18T15:17:25Z</time>
      </trkpt>
      <trkpt lat="45.13957" lon="4.9908">
        <ele>276.05700683594</ele>
        <time>2009-11-18T15:17:35Z</time>
      </trkpt>
      <trkpt lat="45.1391" lon="4.99085">
        <ele>276.78201293945</ele>
        <time>2009-11-18T15:17:42Z</time>
      </trkpt>
      <trkpt lat="45.13871" lon="4.99102">
        <ele>276.80499267578</ele>
        <time>2009-11-18T15:17:48Z</time>
      </trkpt>
      <trkpt lat="45.13799" lon="4.99144">
        <ele>277.31201171875</ele>
        <time>2009-11-18T15:17:59Z</time>
      </trkpt>
      <trkpt lat="45.13731" lon="4.99182">
        <ele>278.26599121094</ele>
        <time>2009-11-18T15:18:09Z</time>
      </trkpt>
      <trkpt lat="45.13675" lon="4.99213">
        <ele>278.62100219727</ele>
        <time>2009-11-18T15:18:17Z</time>
      </trkpt>
      <trkpt lat="45.13638" lon="4.99221">
        <ele>278.75698852539</ele>
        <time>2009-11-18T15:18:22Z</time>
      </trkpt>
      <trkpt lat="45.13602" lon="4.99213">
        <ele>278.75601196289</ele>
        <time>2009-11-18T15:18:27Z</time>
      </trkpt>
      <trkpt lat="45.13548" lon="4.99178">
        <ele>278.57501220703</ele>
        <time>2009-11-18T15:18:35Z</time>
      </trkpt>
      <trkpt lat="45.13493" lon="4.99132">
        <ele>276.66101074219</ele>
        <time>2009-11-18T15:18:43Z</time>
      </trkpt>
      <trkpt lat="45.13457" lon="4.991">
        <ele>274.81100463867</ele>
        <time>2009-11-18T15:18:48Z</time>
      </trkpt>
      <trkpt lat="45.1341" lon="4.99058">
        <ele>271.85000610352</ele>
        <time>2009-11-18T15:18:54Z</time>
      </trkpt>
      <trkpt lat="45.13381" lon="4.99032">
        <ele>268.83700561523</ele>
        <time>2009-11-18T15:18:59Z</time>
      </trkpt>
      <trkpt lat="45.13338" lon="4.99004">
        <ele>266.43399047852</ele>
        <time>2009-11-18T15:19:02Z</time>
      </trkpt>
      <trkpt lat="45.13308" lon="4.98985">
        <ele>264.93798828125</ele>
        <time>2009-11-18T15:19:05Z</time>
      </trkpt>
      <trkpt lat="45.13231" lon="4.98949">
        <ele>259.73498535156</ele>
        <time>2009-11-18T15:19:12Z</time>
      </trkpt>
      <trkpt lat="45.13126" lon="4.98909">
        <ele>254.8630065918</ele>
        <time>2009-11-18T15:19:21Z</time>
      </trkpt>
      <trkpt lat="45.13049" lon="4.98882">
        <ele>251.98899841309</ele>
        <time>2009-11-18T15:19:28Z</time>
      </trkpt>
      <trkpt lat="45.12988" lon="4.98863">
        <ele>249.8809967041</ele>
        <time>2009-11-18T15:19:34Z</time>
      </trkpt>
      <trkpt lat="45.12937" lon="4.98846">
        <ele>247.9640045166</ele>
        <time>2009-11-18T15:19:39Z</time>
      </trkpt>
      <trkpt lat="45.12857" lon="4.9882">
        <ele>245.97200012207</ele>
        <time>2009-11-18T15:19:47Z</time>
      </trkpt>
      <trkpt lat="45.1281" lon="4.98805">
        <ele>242.72300720215</ele>
        <time>2009-11-18T15:19:53Z</time>
      </trkpt>
      <trkpt lat="45.12775" lon="4.98788">
        <ele>241.52099609375</ele>
        <time>2009-11-18T15:19:55Z</time>
      </trkpt>
      <trkpt lat="45.12741" lon="4.98762">
        <ele>238.26400756836</ele>
        <time>2009-11-18T15:19:59Z</time>
      </trkpt>
      <trkpt lat="45.12741" lon="4.98762">
        <ele>237.18699645996</ele>
        <time>2009-11-18T15:20:00Z</time>
      </trkpt>
      <trkpt lat="45.12701" lon="4.98681">
        <ele>233.20500183106</ele>
        <time>2009-11-18T15:20:04Z</time>
      </trkpt>
      <trkpt lat="45.12663" lon="4.98639">
        <ele>228.77299499512</ele>
        <time>2009-11-18T15:20:08Z</time>
      </trkpt>
      <trkpt lat="45.12579" lon="4.98595">
        <ele>220.95300292969</ele>
        <time>2009-11-18T15:20:15Z</time>
      </trkpt>
      <trkpt lat="45.12579" lon="4.98595">
        <ele>218.60099792481</ele>
        <time>2009-11-18T15:20:18Z</time>
      </trkpt>
      <trkpt lat="45.12482" lon="4.98558">
        <ele>214.55900573731</ele>
        <time>2009-11-18T15:20:22Z</time>
      </trkpt>
      <trkpt lat="45.12454" lon="4.98556">
        <ele>211.88900756836</ele>
        <time>2009-11-18T15:20:26Z</time>
      </trkpt>
      <trkpt lat="45.12432" lon="4.98543">
        <ele>211.14999389648</ele>
        <time>2009-11-18T15:20:29Z</time>
      </trkpt>
      <trkpt lat="45.1242" lon="4.98514">
        <ele>210.51300048828</ele>
        <time>2009-11-18T15:20:31Z</time>
      </trkpt>
      <trkpt lat="45.12413" lon="4.98476">
        <ele>210.27000427246</ele>
        <time>2009-11-18T15:20:35Z</time>
      </trkpt>
      <trkpt lat="45.12397" lon="4.98426">
        <ele>209.31700134277</ele>
        <time>2009-11-18T15:20:41Z</time>
      </trkpt>
      <trkpt lat="45.12394" lon="4.98417">
        <ele>209.14999389648</ele>
        <time>2009-11-18T15:20:42Z</time>
      </trkpt>
      <trkpt lat="45.12389" lon="4.98401">
        <ele>208.87300109863</ele>
        <time>2009-11-18T15:20:44Z</time>
      </trkpt>
      <trkpt lat="45.12381" lon="4.98375">
        <ele>208.34599304199</ele>
        <time>2009-11-18T15:20:48Z</time>
      </trkpt>
      <trkpt lat="45.12379" lon="4.98369">
        <ele>208.23199462891</ele>
        <time>2009-11-18T15:20:53Z</time>
      </trkpt>
      <trkpt lat="45.12377" lon="4.98365">
        <ele>208.03500366211</ele>
        <time>2009-11-18T15:20:55Z</time>
      </trkpt>
      <trkpt lat="45.12377" lon="4.98363">
        <ele>208.63800048828</ele>
        <time>2009-11-18T15:20:57Z</time>
      </trkpt>
      <trkpt lat="45.12377" lon="4.98363">
        <ele>208.32400512695</ele>
        <time>2009-11-18T15:21:01Z</time>
      </trkpt>
      <trkpt lat="45.12377" lon="4.98363">
        <ele>208.97099304199</ele>
        <time>2009-11-18T15:21:03Z</time>
      </trkpt>
      <trkpt lat="45.12366" lon="4.98269">
        <ele>209.8690032959</ele>
        <time>2009-11-18T15:21:09Z</time>
      </trkpt>
      <trkpt lat="45.12366" lon="4.98249">
        <ele>210.1130065918</ele>
        <time>2009-11-18T15:21:11Z</time>
      </trkpt>
      <trkpt lat="45.12365" lon="4.98239">
        <ele>210.35099792481</ele>
        <time>2009-11-18T15:21:12Z</time>
      </trkpt>
      <trkpt lat="45.12365" lon="4.98219">
        <ele>210.80999755859</ele>
        <time>2009-11-18T15:21:14Z</time>
      </trkpt>
      <trkpt lat="45.12363" lon="4.98193">
        <ele>211.42900085449</ele>
        <time>2009-11-18T15:21:17Z</time>
      </trkpt>
      <trkpt lat="45.12349" lon="4.98162">
        <ele>212.52099609375</ele>
        <time>2009-11-18T15:21:21Z</time>
      </trkpt>
      <trkpt lat="45.1234" lon="4.98148">
        <ele>213.09199523926</ele>
        <time>2009-11-18T15:21:23Z</time>
      </trkpt>
      <trkpt lat="45.12329" lon="4.98128">
        <ele>213.68099975586</ele>
        <time>2009-11-18T15:21:26Z</time>
      </trkpt>
      <trkpt lat="45.12296" lon="4.98085">
        <ele>215.19799804688</ele>
        <time>2009-11-18T15:21:33Z</time>
      </trkpt>
      <trkpt lat="45.12271" lon="4.98059">
        <ele>215.40299987793</ele>
        <time>2009-11-18T15:21:38Z</time>
      </trkpt>
      <trkpt lat="45.12265" lon="4.98054">
        <ele>218.25300598144</ele>
        <time>2009-11-18T15:21:43Z</time>
      </trkpt>
      <trkpt lat="45.12238" lon="4.98012">
        <ele>219.52600097656</ele>
        <time>2009-11-18T15:21:46Z</time>
      </trkpt>
      <trkpt lat="45.12232" lon="4.97996">
        <ele>220.88299560547</ele>
        <time>2009-11-18T15:21:49Z</time>
      </trkpt>
      <trkpt lat="45.12234" lon="4.97962">
        <ele>222.58999633789</ele>
        <time>2009-11-18T15:21:55Z</time>
      </trkpt>
      <trkpt lat="45.12246" lon="4.97942">
        <ele>223.49499511719</ele>
        <time>2009-11-18T15:22:00Z</time>
      </trkpt>
      <trkpt lat="45.12242" lon="4.97923">
        <ele>223.75300598144</ele>
        <time>2009-11-18T15:22:04Z</time>
      </trkpt>
      <trkpt lat="45.12233" lon="4.97899">
        <ele>224.06399536133</ele>
        <time>2009-11-18T15:22:08Z</time>
      </trkpt>
      <trkpt lat="45.12228" lon="4.97827">
        <ele>224.80499267578</ele>
        <time>2009-11-18T15:22:17Z</time>
      </trkpt>
      <trkpt lat="45.12226" lon="4.97796">
        <ele>223.88499450684</ele>
        <time>2009-11-18T15:22:24Z</time>
      </trkpt>
      <trkpt lat="45.12216" lon="4.97726">
        <ele>220.79899597168</ele>
        <time>2009-11-18T15:22:28Z</time>
      </trkpt>
      <trkpt lat="45.12214" lon="4.97713">
        <ele>219.43299865723</ele>
        <time>2009-11-18T15:22:29Z</time>
      </trkpt>
      <trkpt lat="45.12212" lon="4.97652">
        <ele>215.64599609375</ele>
        <time>2009-11-18T15:22:33Z</time>
      </trkpt>
      <trkpt lat="45.12214" lon="4.97625">
        <ele>213.17399597168</ele>
        <time>2009-11-18T15:22:35Z</time>
      </trkpt>
      <trkpt lat="45.122" lon="4.97618">
        <ele>212.01100158691</ele>
        <time>2009-11-18T15:22:36Z</time>
      </trkpt>
      <trkpt lat="45.12145" lon="4.97593">
        <ele>206.48300170898</ele>
        <time>2009-11-18T15:22:41Z</time>
      </trkpt>
      <trkpt lat="45.12122" lon="4.97584">
        <ele>204.89500427246</ele>
        <time>2009-11-18T15:22:44Z</time>
      </trkpt>
      <trkpt lat="45.1211" lon="4.97559">
        <ele>204.24000549316</ele>
        <time>2009-11-18T15:22:48Z</time>
      </trkpt>
      <trkpt lat="45.12106" lon="4.97539">
        <ele>204.04200744629</ele>
        <time>2009-11-18T15:22:50Z</time>
      </trkpt>
      <trkpt lat="45.12084" lon="4.97438">
        <ele>203.57899475098</ele>
        <time>2009-11-18T15:22:59Z</time>
      </trkpt>
      <trkpt lat="45.12059" lon="4.97349">
        <ele>203.2559967041</ele>
        <time>2009-11-18T15:23:07Z</time>
      </trkpt>
      <trkpt lat="45.12037" lon="4.97286">
        <ele>202.56399536133</ele>
        <time>2009-11-18T15:23:13Z</time>
      </trkpt>
      <trkpt lat="45.12001" lon="4.97219">
        <ele>201.47500610352</ele>
        <time>2009-11-18T15:23:20Z</time>
      </trkpt>
      <trkpt lat="45.11963" lon="4.97166">
        <ele>200.79499816894</ele>
        <time>2009-11-18T15:23:26Z</time>
      </trkpt>
      <trkpt lat="45.11917" lon="4.97104">
        <ele>199.87399291992</ele>
        <time>2009-11-18T15:23:33Z</time>
      </trkpt>
      <trkpt lat="45.11906" lon="4.9709">
        <ele>199.60699462891</ele>
        <time>2009-11-18T15:23:36Z</time>
      </trkpt>
      <trkpt lat="45.11905" lon="4.97088">
        <ele>199.52099609375</ele>
        <time>2009-11-18T15:23:37Z</time>
      </trkpt>
      <trkpt lat="45.11905" lon="4.97088">
        <ele>199.24200439453</ele>
        <time>2009-11-18T15:23:41Z</time>
      </trkpt>
      <trkpt lat="45.11888" lon="4.97054">
        <ele>198.99600219727</ele>
        <time>2009-11-18T15:23:44Z</time>
      </trkpt>
      <trkpt lat="45.1184" lon="4.97">
        <ele>199.33000183106</ele>
        <time>2009-11-18T15:23:51Z</time>
      </trkpt>
      <trkpt lat="45.11815" lon="4.96964">
        <ele>198.31700134277</ele>
        <time>2009-11-18T15:23:56Z</time>
      </trkpt>
      <trkpt lat="45.1179" lon="4.96927">
        <ele>198.59800720215</ele>
        <time>2009-11-18T15:24:00Z</time>
      </trkpt>
      <trkpt lat="45.11777" lon="4.96903">
        <ele>198.35099792481</ele>
        <time>2009-11-18T15:24:02Z</time>
      </trkpt>
      <trkpt lat="45.11762" lon="4.96872">
        <ele>198.47599792481</ele>
        <time>2009-11-18T15:24:05Z</time>
      </trkpt>
      <trkpt lat="45.11759" lon="4.96865">
        <ele>198.34199523926</ele>
        <time>2009-11-18T15:24:07Z</time>
      </trkpt>
      <trkpt lat="45.11751" lon="4.96823">
        <ele>198.62100219727</ele>
        <time>2009-11-18T15:24:09Z</time>
      </trkpt>
      <trkpt lat="45.11721" lon="4.96812">
        <ele>198.23899841309</ele>
        <time>2009-11-18T15:24:12Z</time>
      </trkpt>
      <trkpt lat="45.11713" lon="4.96803">
        <ele>198.28999328613</ele>
        <time>2009-11-18T15:24:13Z</time>
      </trkpt>
      <trkpt lat="45.11669" lon="4.96725">
        <ele>197.5059967041</ele>
        <time>2009-11-18T15:24:20Z</time>
      </trkpt>
      <trkpt lat="45.11632" lon="4.9663">
        <ele>196.82200622559</ele>
        <time>2009-11-18T15:24:28Z</time>
      </trkpt>
      <trkpt lat="45.11595" lon="4.96543">
        <ele>196.875</ele>
        <time>2009-11-18T15:24:36Z</time>
      </trkpt>
      <trkpt lat="45.11586" lon="4.96523">
        <ele>196.79899597168</ele>
        <time>2009-11-18T15:24:38Z</time>
      </trkpt>
      <trkpt lat="45.11571" lon="4.96492">
        <ele>197.25500488281</ele>
        <time>2009-11-18T15:24:42Z</time>
      </trkpt>
      <trkpt lat="45.1158" lon="4.96455">
        <ele>197.83200073242</ele>
        <time>2009-11-18T15:24:45Z</time>
      </trkpt>
      <trkpt lat="45.11581" lon="4.96446">
        <ele>197.53500366211</ele>
        <time>2009-11-18T15:24:48Z</time>
      </trkpt>
      <trkpt lat="45.11581" lon="4.96446">
        <ele>197.5359954834</ele>
        <time>2009-11-18T15:24:49Z</time>
      </trkpt>
      <trkpt lat="45.11581" lon="4.96446">
        <ele>197.41900634766</ele>
        <time>2009-11-18T15:25:04Z</time>
      </trkpt>
      <trkpt lat="45.11581" lon="4.96446">
        <ele>197.29400634766</ele>
        <time>2009-11-18T15:25:05Z</time>
      </trkpt>
      <trkpt lat="45.11557" lon="4.9647">
        <ele>197.15400695801</ele>
        <time>2009-11-18T15:25:10Z</time>
      </trkpt>
      <trkpt lat="45.1155" lon="4.96458">
        <ele>197.44400024414</ele>
        <time>2009-11-18T15:25:15Z</time>
      </trkpt>
      <trkpt lat="45.11581" lon="4.96431">
        <ele>198.06500244141</ele>
        <time>2009-11-18T15:25:18Z</time>
      </trkpt>
      <trkpt lat="45.11581" lon="4.9643">
        <ele>198.19599914551</ele>
        <time>2009-11-18T15:25:21Z</time>
      </trkpt>
      <trkpt lat="45.11581" lon="4.9643">
        <ele>198.12300109863</ele>
        <time>2009-11-18T15:25:22Z</time>
      </trkpt>
      <trkpt lat="45.11581" lon="4.96439">
        <ele>197.39399719238</ele>
        <time>2009-11-18T15:26:34Z</time>
      </trkpt>
      <trkpt lat="45.11581" lon="4.96448">
        <ele>197.53700256348</ele>
        <time>2009-11-18T15:26:36Z</time>
      </trkpt>
      <trkpt lat="45.11583" lon="4.96389">
        <ele>197.7619934082</ele>
        <time>2009-11-18T15:26:41Z</time>
      </trkpt>
      <trkpt lat="45.1158" lon="4.96456">
        <ele>197.81700134277</ele>
        <time>2009-11-18T15:26:43Z</time>
      </trkpt>
      <trkpt lat="45.1158" lon="4.96456">
        <ele>197.81799316406</ele>
        <time>2009-11-18T15:26:45Z</time>
      </trkpt>
      <trkpt lat="45.1158" lon="4.96464">
        <ele>197.75700378418</ele>
        <time>2009-11-18T15:26:51Z</time>
      </trkpt>
      <trkpt lat="45.1158" lon="4.96477">
        <ele>197.47799682617</ele>
        <time>2009-11-18T15:26:54Z</time>
      </trkpt>
      <trkpt lat="45.11572" lon="4.96494">
        <ele>197.10299682617</ele>
        <time>2009-11-18T15:26:58Z</time>
      </trkpt>
      <trkpt lat="45.1157" lon="4.96491">
        <ele>197.03199768066</ele>
        <time>2009-11-18T15:26:59Z</time>
      </trkpt>
      <trkpt lat="45.11547" lon="4.96454">
        <ele>197.41400146484</ele>
        <time>2009-11-18T15:27:06Z</time>
      </trkpt>
      <trkpt lat="45.11521" lon="4.96412">
        <ele>197.95500183106</ele>
        <time>2009-11-18T15:27:13Z</time>
      </trkpt>
      <trkpt lat="45.11499" lon="4.96378">
        <ele>198.18600463867</ele>
        <time>2009-11-18T15:27:18Z</time>
      </trkpt>
      <trkpt lat="45.11486" lon="4.96357">
        <ele>198.62399291992</ele>
        <time>2009-11-18T15:27:21Z</time>
      </trkpt>
      <trkpt lat="45.11452" lon="4.963">
        <ele>199.46099853516</ele>
        <time>2009-11-18T15:27:29Z</time>
      </trkpt>
      <trkpt lat="45.11413" lon="4.96223">
        <ele>200.17700195312</ele>
        <time>2009-11-18T15:27:39Z</time>
      </trkpt>
      <trkpt lat="45.11375" lon="4.96143">
        <ele>199.21200561523</ele>
        <time>2009-11-18T15:27:48Z</time>
      </trkpt>
      <trkpt lat="45.11333" lon="4.9607">
        <ele>198.19500732422</ele>
        <time>2009-11-18T15:27:56Z</time>
      </trkpt>
      <trkpt lat="45.11295" lon="4.96011">
        <ele>197.29200744629</ele>
        <time>2009-11-18T15:28:05Z</time>
      </trkpt>
      <trkpt lat="45.11244" lon="4.95921">
        <ele>196.30900573731</ele>
        <time>2009-11-18T15:28:13Z</time>
      </trkpt>
      <trkpt lat="45.11181" lon="4.95829">
        <ele>196.2859954834</ele>
        <time>2009-11-18T15:28:21Z</time>
      </trkpt>
      <trkpt lat="45.11141" lon="4.95762">
        <ele>196.13200378418</ele>
        <time>2009-11-18T15:28:28Z</time>
      </trkpt>
      <trkpt lat="45.11104" lon="4.95699">
        <ele>196.72399902344</ele>
        <time>2009-11-18T15:28:35Z</time>
      </trkpt>
      <trkpt lat="45.11067" lon="4.95659">
        <ele>197.10299682617</ele>
        <time>2009-11-18T15:28:41Z</time>
      </trkpt>
      <trkpt lat="45.11016" lon="4.95605">
        <ele>197.03300476074</ele>
        <time>2009-11-18T15:28:49Z</time>
      </trkpt>
      <trkpt lat="45.10984" lon="4.95552">
        <ele>196.03199768066</ele>
        <time>2009-11-18T15:28:55Z</time>
      </trkpt>
      <trkpt lat="45.10956" lon="4.95486">
        <ele>195.44799804688</ele>
        <time>2009-11-18T15:29:01Z</time>
      </trkpt>
      <trkpt lat="45.10934" lon="4.95391">
        <ele>194.83200073242</ele>
        <time>2009-11-18T15:29:09Z</time>
      </trkpt>
      <trkpt lat="45.10922" lon="4.95342">
        <ele>194.83200073242</ele>
        <time>2009-11-18T15:29:16Z</time>
      </trkpt>
      <trkpt lat="45.10884" lon="4.95236">
        <ele>195.28100585938</ele>
        <time>2009-11-18T15:29:24Z</time>
      </trkpt>
      <trkpt lat="45.10865" lon="4.95178">
        <ele>197.24699401856</ele>
        <time>2009-11-18T15:29:31Z</time>
      </trkpt>
      <trkpt lat="45.10854" lon="4.95135">
        <ele>198.45199584961</ele>
        <time>2009-11-18T15:29:37Z</time>
      </trkpt>
      <trkpt lat="45.10853" lon="4.95129">
        <ele>198.61199951172</ele>
        <time>2009-11-18T15:29:38Z</time>
      </trkpt>
      <trkpt lat="45.10849" lon="4.95075">
        <ele>201.38000488281</ele>
        <time>2009-11-18T15:29:47Z</time>
      </trkpt>
      <trkpt lat="45.10851" lon="4.95019">
        <ele>204.35600280762</ele>
        <time>2009-11-18T15:29:57Z</time>
      </trkpt>
      <trkpt lat="45.10852" lon="4.94971">
        <ele>206.74200439453</ele>
        <time>2009-11-18T15:30:06Z</time>
      </trkpt>
      <trkpt lat="45.10854" lon="4.94933">
        <ele>208.85499572754</ele>
        <time>2009-11-18T15:30:13Z</time>
      </trkpt>
      <trkpt lat="45.10855" lon="4.94894">
        <ele>210.71200561523</ele>
        <time>2009-11-18T15:30:20Z</time>
      </trkpt>
      <trkpt lat="45.10857" lon="4.94856">
        <ele>212.13499450684</ele>
        <time>2009-11-18T15:30:27Z</time>
      </trkpt>
      <trkpt lat="45.10857" lon="4.94839">
        <ele>212.46800231934</ele>
        <time>2009-11-18T15:30:32Z</time>
      </trkpt>
      <trkpt lat="45.10862" lon="4.94816">
        <ele>212.94999694824</ele>
        <time>2009-11-18T15:30:37Z</time>
      </trkpt>
      <trkpt lat="45.10865" lon="4.94806">
        <ele>213.14199829102</ele>
        <time>2009-11-18T15:30:39Z</time>
      </trkpt>
      <trkpt lat="45.10879" lon="4.94763">
        <ele>213.27000427246</ele>
        <time>2009-11-18T15:30:46Z</time>
      </trkpt>
      <trkpt lat="45.10894" lon="4.94712">
        <ele>213.68099975586</ele>
        <time>2009-11-18T15:30:53Z</time>
      </trkpt>
      <trkpt lat="45.10917" lon="4.9464">
        <ele>213.68400573731</ele>
        <time>2009-11-18T15:31:02Z</time>
      </trkpt>
      <trkpt lat="45.10925" lon="4.94575">
        <ele>213.37600708008</ele>
        <time>2009-11-18T15:31:09Z</time>
      </trkpt>
      <trkpt lat="45.10924" lon="4.94506">
        <ele>212.94900512695</ele>
        <time>2009-11-18T15:31:16Z</time>
      </trkpt>
      <trkpt lat="45.1092" lon="4.94413">
        <ele>213.88900756836</ele>
        <time>2009-11-18T15:31:25Z</time>
      </trkpt>
      <trkpt lat="45.10918" lon="4.9436">
        <ele>214.34399414062</ele>
        <time>2009-11-18T15:31:30Z</time>
      </trkpt>
      <trkpt lat="45.10905" lon="4.94311">
        <ele>213.87600708008</ele>
        <time>2009-11-18T15:31:35Z</time>
      </trkpt>
      <trkpt lat="45.10897" lon="4.94293">
        <ele>213.70199584961</ele>
        <time>2009-11-18T15:31:37Z</time>
      </trkpt>
      <trkpt lat="45.10846" lon="4.94235">
        <ele>212.87300109863</ele>
        <time>2009-11-18T15:31:45Z</time>
      </trkpt>
      <trkpt lat="45.10774" lon="4.94146">
        <ele>213.1309967041</ele>
        <time>2009-11-18T15:31:56Z</time>
      </trkpt>
      <trkpt lat="45.10742" lon="4.94099">
        <ele>214.13400268555</ele>
        <time>2009-11-18T15:32:02Z</time>
      </trkpt>
      <trkpt lat="45.1072" lon="4.9405">
        <ele>214.30400085449</ele>
        <time>2009-11-18T15:32:08Z</time>
      </trkpt>
      <trkpt lat="45.10704" lon="4.93992">
        <ele>215.2859954834</ele>
        <time>2009-11-18T15:32:15Z</time>
      </trkpt>
      <trkpt lat="45.10692" lon="4.93935">
        <ele>216.46200561523</ele>
        <time>2009-11-18T15:32:22Z</time>
      </trkpt>
      <trkpt lat="45.10684" lon="4.93876">
        <ele>216.29100036621</ele>
        <time>2009-11-18T15:32:29Z</time>
      </trkpt>
      <trkpt lat="45.10675" lon="4.93801">
        <ele>215.54200744629</ele>
        <time>2009-11-18T15:32:37Z</time>
      </trkpt>
      <trkpt lat="45.10665" lon="4.93724">
        <ele>214.13000488281</ele>
        <time>2009-11-18T15:32:44Z</time>
      </trkpt>
      <trkpt lat="45.10653" lon="4.93634">
        <ele>210.39399719238</ele>
        <time>2009-11-18T15:32:51Z</time>
      </trkpt>
      <trkpt lat="45.10649" lon="4.93606">
        <ele>209.4640045166</ele>
        <time>2009-11-18T15:32:53Z</time>
      </trkpt>
      <trkpt lat="45.10643" lon="4.93561">
        <ele>206.66200256348</ele>
        <time>2009-11-18T15:32:57Z</time>
      </trkpt>
      <trkpt lat="45.10626" lon="4.93462">
        <ele>202.4109954834</ele>
        <time>2009-11-18T15:33:05Z</time>
      </trkpt>
      <trkpt lat="45.10592" lon="4.93299">
        <ele>200.16499328613</ele>
        <time>2009-11-18T15:33:13Z</time>
      </trkpt>
      <trkpt lat="45.10565" lon="4.93161">
        <ele>197.48199462891</ele>
        <time>2009-11-18T15:33:23Z</time>
      </trkpt>
      <trkpt lat="45.10548" lon="4.93073">
        <ele>196.57499694824</ele>
        <time>2009-11-18T15:33:30Z</time>
      </trkpt>
      <trkpt lat="45.1053" lon="4.92983">
        <ele>195.91000366211</ele>
        <time>2009-11-18T15:33:38Z</time>
      </trkpt>
      <trkpt lat="45.10514" lon="4.92908">
        <ele>195.06100463867</ele>
        <time>2009-11-18T15:33:46Z</time>
      </trkpt>
      <trkpt lat="45.105" lon="4.92812">
        <ele>195.24099731445</ele>
        <time>2009-11-18T15:33:53Z</time>
      </trkpt>
      <trkpt lat="45.10486" lon="4.92749">
        <ele>194.56100463867</ele>
        <time>2009-11-18T15:33:59Z</time>
      </trkpt>
      <trkpt lat="45.10484" lon="4.92739">
        <ele>194.39900207519</ele>
        <time>2009-11-18T15:34:00Z</time>
      </trkpt>
      <trkpt lat="45.10471" lon="4.92676">
        <ele>194.35200500488</ele>
        <time>2009-11-18T15:34:06Z</time>
      </trkpt>
      <trkpt lat="45.10455" lon="4.92594">
        <ele>194.61500549316</ele>
        <time>2009-11-18T15:34:14Z</time>
      </trkpt>
      <trkpt lat="45.1044" lon="4.92502">
        <ele>193.39399719238</ele>
        <time>2009-11-18T15:34:22Z</time>
      </trkpt>
      <trkpt lat="45.10422" lon="4.92401">
        <ele>191.88299560547</ele>
        <time>2009-11-18T15:34:30Z</time>
      </trkpt>
      <trkpt lat="45.10403" lon="4.923">
        <ele>191.27799987793</ele>
        <time>2009-11-18T15:34:38Z</time>
      </trkpt>
      <trkpt lat="45.1038" lon="4.92173">
        <ele>190.82699584961</ele>
        <time>2009-11-18T15:34:49Z</time>
      </trkpt>
      <trkpt lat="45.10361" lon="4.92068">
        <ele>191.37300109863</ele>
        <time>2009-11-18T15:34:59Z</time>
      </trkpt>
      <trkpt lat="45.10345" lon="4.91983">
        <ele>191.77799987793</ele>
        <time>2009-11-18T15:35:08Z</time>
      </trkpt>
      <trkpt lat="45.10328" lon="4.91886">
        <ele>192.69799804688</ele>
        <time>2009-11-18T15:35:19Z</time>
      </trkpt>
      <trkpt lat="45.10315" lon="4.91815">
        <ele>193.87800598144</ele>
        <time>2009-11-18T15:35:27Z</time>
      </trkpt>
      <trkpt lat="45.10308" lon="4.91785">
        <ele>193.96800231934</ele>
        <time>2009-11-18T15:35:31Z</time>
      </trkpt>
      <trkpt lat="45.10327" lon="4.91754">
        <ele>193.85800170898</ele>
        <time>2009-11-18T15:35:34Z</time>
      </trkpt>
      <trkpt lat="45.10341" lon="4.91749">
        <ele>193.71699523926</ele>
        <time>2009-11-18T15:35:36Z</time>
      </trkpt>
      <trkpt lat="45.10412" lon="4.91743">
        <ele>194.48399353027</ele>
        <time>2009-11-18T15:35:46Z</time>
      </trkpt>
      <trkpt lat="45.10467" lon="4.91738">
        <ele>195.13999938965</ele>
        <time>2009-11-18T15:35:54Z</time>
      </trkpt>
      <trkpt lat="45.10523" lon="4.91733">
        <ele>195.9940032959</ele>
        <time>2009-11-18T15:36:03Z</time>
      </trkpt>
      <trkpt lat="45.10577" lon="4.91726">
        <ele>197.18499755859</ele>
        <time>2009-11-18T15:36:12Z</time>
      </trkpt>
      <trkpt lat="45.10629" lon="4.9172">
        <ele>198.29299926758</ele>
        <time>2009-11-18T15:36:22Z</time>
      </trkpt>
      <trkpt lat="45.10664" lon="4.91716">
        <ele>199.80400085449</ele>
        <time>2009-11-18T15:36:29Z</time>
      </trkpt>
      <trkpt lat="45.10704" lon="4.91711">
        <ele>201.20399475098</ele>
        <time>2009-11-18T15:36:37Z</time>
      </trkpt>
      <trkpt lat="45.10738" lon="4.91707">
        <ele>202.69999694824</ele>
        <time>2009-11-18T15:36:44Z</time>
      </trkpt>
      <trkpt lat="45.10751" lon="4.91704">
        <ele>203.04899597168</ele>
        <time>2009-11-18T15:36:47Z</time>
      </trkpt>
      <trkpt lat="45.10767" lon="4.91684">
        <ele>203.74800109863</ele>
        <time>2009-11-18T15:36:52Z</time>
      </trkpt>
      <trkpt lat="45.10773" lon="4.91662">
        <ele>203.93600463867</ele>
        <time>2009-11-18T15:36:56Z</time>
      </trkpt>
      <trkpt lat="45.10776" lon="4.91597">
        <ele>203.01699829102</ele>
        <time>2009-11-18T15:37:04Z</time>
      </trkpt>
      <trkpt lat="45.10776" lon="4.91527">
        <ele>202.09100341797</ele>
        <time>2009-11-18T15:37:11Z</time>
      </trkpt>
      <trkpt lat="45.10776" lon="4.91443">
        <ele>201.9940032959</ele>
        <time>2009-11-18T15:37:19Z</time>
      </trkpt>
      <trkpt lat="45.10776" lon="4.91345">
        <ele>201.98899841309</ele>
        <time>2009-11-18T15:37:29Z</time>
      </trkpt>
      <trkpt lat="45.10776" lon="4.9129">
        <ele>202.56900024414</ele>
        <time>2009-11-18T15:37:35Z</time>
      </trkpt>
      <trkpt lat="45.10783" lon="4.91253">
        <ele>203.31399536133</ele>
        <time>2009-11-18T15:37:39Z</time>
      </trkpt>
      <trkpt lat="45.10795" lon="4.91231">
        <ele>203.40299987793</ele>
        <time>2009-11-18T15:37:42Z</time>
      </trkpt>
      <trkpt lat="45.10809" lon="4.91223">
        <ele>203.54800415039</ele>
        <time>2009-11-18T15:37:44Z</time>
      </trkpt>
      <trkpt lat="45.1088" lon="4.91206">
        <ele>203.82499694824</ele>
        <time>2009-11-18T15:37:54Z</time>
      </trkpt>
      <trkpt lat="45.10943" lon="4.91189">
        <ele>204.53999328613</ele>
        <time>2009-11-18T15:38:03Z</time>
      </trkpt>
      <trkpt lat="45.11" lon="4.91168">
        <ele>204.71699523926</ele>
        <time>2009-11-18T15:38:11Z</time>
      </trkpt>
      <trkpt lat="45.11055" lon="4.91137">
        <ele>205.03100585938</ele>
        <time>2009-11-18T15:38:19Z</time>
      </trkpt>
      <trkpt lat="45.11116" lon="4.91096">
        <ele>205.04400634766</ele>
        <time>2009-11-18T15:38:28Z</time>
      </trkpt>
      <trkpt lat="45.1118" lon="4.91054">
        <ele>205.10000610352</ele>
        <time>2009-11-18T15:38:37Z</time>
      </trkpt>
      <trkpt lat="45.11232" lon="4.9101">
        <ele>205.44500732422</ele>
        <time>2009-11-18T15:38:45Z</time>
      </trkpt>
      <trkpt lat="45.11276" lon="4.90979">
        <ele>206.10299682617</ele>
        <time>2009-11-18T15:38:52Z</time>
      </trkpt>
      <trkpt lat="45.11322" lon="4.9095">
        <ele>207.31500244141</ele>
        <time>2009-11-18T15:39:00Z</time>
      </trkpt>
      <trkpt lat="45.11365" lon="4.90922">
        <ele>208.00799560547</ele>
        <time>2009-11-18T15:39:08Z</time>
      </trkpt>
      <trkpt lat="45.11409" lon="4.90875">
        <ele>208.6130065918</ele>
        <time>2009-11-18T15:39:17Z</time>
      </trkpt>
      <trkpt lat="45.11441" lon="4.9085">
        <ele>209.00399780273</ele>
        <time>2009-11-18T15:39:23Z</time>
      </trkpt>
      <trkpt lat="45.11477" lon="4.90835">
        <ele>209.28300476074</ele>
        <time>2009-11-18T15:39:29Z</time>
      </trkpt>
      <trkpt lat="45.11528" lon="4.90813">
        <ele>209.71899414062</ele>
        <time>2009-11-18T15:39:37Z</time>
      </trkpt>
      <trkpt lat="45.11572" lon="4.90793">
        <ele>210.13299560547</ele>
        <time>2009-11-18T15:39:44Z</time>
      </trkpt>
      <trkpt lat="45.11606" lon="4.90766">
        <ele>210.35400390625</ele>
        <time>2009-11-18T15:39:50Z</time>
      </trkpt>
      <trkpt lat="45.11645" lon="4.90719">
        <ele>210.51699829102</ele>
        <time>2009-11-18T15:39:58Z</time>
      </trkpt>
      <trkpt lat="45.11669" lon="4.90681">
        <ele>210.63900756836</ele>
        <time>2009-11-18T15:40:04Z</time>
      </trkpt>
      <trkpt lat="45.11669" lon="4.90681">
        <ele>210.54800415039</ele>
        <time>2009-11-18T15:40:05Z</time>
      </trkpt>
      <trkpt lat="45.11683" lon="4.90615">
        <ele>210.77799987793</ele>
        <time>2009-11-18T15:40:11Z</time>
      </trkpt>
      <trkpt lat="45.11692" lon="4.90543">
        <ele>208.81900024414</ele>
        <time>2009-11-18T15:40:18Z</time>
      </trkpt>
      <trkpt lat="45.11694" lon="4.90476">
        <ele>208.26100158691</ele>
        <time>2009-11-18T15:40:24Z</time>
      </trkpt>
      <trkpt lat="45.11687" lon="4.90436">
        <ele>208.51600646973</ele>
        <time>2009-11-18T15:40:28Z</time>
      </trkpt>
      <trkpt lat="45.11665" lon="4.90405">
        <ele>207.56500244141</ele>
        <time>2009-11-18T15:40:32Z</time>
      </trkpt>
      <trkpt lat="45.11658" lon="4.904">
        <ele>207.33000183106</ele>
        <time>2009-11-18T15:40:33Z</time>
      </trkpt>
      <trkpt lat="45.11599" lon="4.90363">
        <ele>204.38600158691</ele>
        <time>2009-11-18T15:40:40Z</time>
      </trkpt>
      <trkpt lat="45.11514" lon="4.90312">
        <ele>202.06599426269</ele>
        <time>2009-11-18T15:40:49Z</time>
      </trkpt>
      <trkpt lat="45.11443" lon="4.9027">
        <ele>201.28500366211</ele>
        <time>2009-11-18T15:40:57Z</time>
      </trkpt>
      <trkpt lat="45.11428" lon="4.90256">
        <ele>201.11399841309</ele>
        <time>2009-11-18T15:40:59Z</time>
      </trkpt>
      <trkpt lat="45.11402" lon="4.90223">
        <ele>200.49200439453</ele>
        <time>2009-11-18T15:41:03Z</time>
      </trkpt>
      <trkpt lat="45.11396" lon="4.90213">
        <ele>200.28300476074</ele>
        <time>2009-11-18T15:41:04Z</time>
      </trkpt>
      <trkpt lat="45.11385" lon="4.90165">
        <ele>199.05499267578</ele>
        <time>2009-11-18T15:41:08Z</time>
      </trkpt>
      <trkpt lat="45.11381" lon="4.90149">
        <ele>198.97900390625</ele>
        <time>2009-11-18T15:41:12Z</time>
      </trkpt>
      <trkpt lat="45.11346" lon="4.90096">
        <ele>199.3630065918</ele>
        <time>2009-11-18T15:41:15Z</time>
      </trkpt>
      <trkpt lat="45.11301" lon="4.90043">
        <ele>198.91200256348</ele>
        <time>2009-11-18T15:41:22Z</time>
      </trkpt>
      <trkpt lat="45.11255" lon="4.89988">
        <ele>198.48899841309</ele>
        <time>2009-11-18T15:41:29Z</time>
      </trkpt>
      <trkpt lat="45.11232" lon="4.89954">
        <ele>198.22300720215</ele>
        <time>2009-11-18T15:41:33Z</time>
      </trkpt>
      <trkpt lat="45.11228" lon="4.89943">
        <ele>198.12800598144</ele>
        <time>2009-11-18T15:41:34Z</time>
      </trkpt>
      <trkpt lat="45.11208" lon="4.89866">
        <ele>196.79299926758</ele>
        <time>2009-11-18T15:41:41Z</time>
      </trkpt>
      <trkpt lat="45.11184" lon="4.89823">
        <ele>196.05299377441</ele>
        <time>2009-11-18T15:41:46Z</time>
      </trkpt>
      <trkpt lat="45.11178" lon="4.89819">
        <ele>196.02099609375</ele>
        <time>2009-11-18T15:41:47Z</time>
      </trkpt>
      <trkpt lat="45.11151" lon="4.898">
        <ele>196.63400268555</ele>
        <time>2009-11-18T15:41:52Z</time>
      </trkpt>
      <trkpt lat="45.11155" lon="4.89765">
        <ele>196.71000671387</ele>
        <time>2009-11-18T15:41:54Z</time>
      </trkpt>
      <trkpt lat="45.11173" lon="4.89763">
        <ele>196.61099243164</ele>
        <time>2009-11-18T15:41:57Z</time>
      </trkpt>
      <trkpt lat="45.11179" lon="4.89763">
        <ele>196.49299621582</ele>
        <time>2009-11-18T15:41:58Z</time>
      </trkpt>
      <trkpt lat="45.11226" lon="4.89762">
        <ele>196.2380065918</ele>
        <time>2009-11-18T15:42:04Z</time>
      </trkpt>
      <trkpt lat="45.1124" lon="4.89761">
        <ele>196.3690032959</ele>
        <time>2009-11-18T15:42:06Z</time>
      </trkpt>
      <trkpt lat="45.11297" lon="4.8976">
        <ele>196.24099731445</ele>
        <time>2009-11-18T15:42:14Z</time>
      </trkpt>
      <trkpt lat="45.11338" lon="4.89757">
        <ele>196.2200012207</ele>
        <time>2009-11-18T15:42:20Z</time>
      </trkpt>
      <trkpt lat="45.11345" lon="4.89755">
        <ele>196.29600524902</ele>
        <time>2009-11-18T15:42:21Z</time>
      </trkpt>
      <trkpt lat="45.11367" lon="4.8974">
        <ele>197.14300537109</ele>
        <time>2009-11-18T15:42:26Z</time>
      </trkpt>
      <trkpt lat="45.1137" lon="4.89725">
        <ele>197.30099487305</ele>
        <time>2009-11-18T15:42:29Z</time>
      </trkpt>
      <trkpt lat="45.11394" lon="4.8973">
        <ele>197.26400756836</ele>
        <time>2009-11-18T15:42:30Z</time>
      </trkpt>
      <trkpt lat="45.11408" lon="4.8974">
        <ele>197.57499694824</ele>
        <time>2009-11-18T15:42:33Z</time>
      </trkpt>
      <trkpt lat="45.11447" lon="4.89754">
        <ele>197.75900268555</ele>
        <time>2009-11-18T15:42:40Z</time>
      </trkpt>
      <trkpt lat="45.11486" lon="4.89753">
        <ele>197.84399414062</ele>
        <time>2009-11-18T15:42:47Z</time>
      </trkpt>
      <trkpt lat="45.11495" lon="4.89752">
        <ele>197.61000061035</ele>
        <time>2009-11-18T15:42:49Z</time>
      </trkpt>
      <trkpt lat="45.11502" lon="4.89766">
        <ele>197.82000732422</ele>
        <time>2009-11-18T15:42:53Z</time>
      </trkpt>
      <trkpt lat="45.11502" lon="4.89766">
        <ele>197.91700744629</ele>
        <time>2009-11-18T15:42:54Z</time>
      </trkpt>
      <trkpt lat="45.11505" lon="4.89752">
        <ele>197.64700317383</ele>
        <time>2009-11-18T15:43:12Z</time>
      </trkpt>
      <trkpt lat="45.11507" lon="4.89752">
        <ele>197.97200012207</ele>
        <time>2009-11-18T15:43:14Z</time>
      </trkpt>
      <trkpt lat="45.11523" lon="4.89752">
        <ele>198.00399780273</ele>
        <time>2009-11-18T15:43:19Z</time>
      </trkpt>
      <trkpt lat="45.11555" lon="4.89751">
        <ele>198.85899353027</ele>
        <time>2009-11-18T15:43:26Z</time>
      </trkpt>
      <trkpt lat="45.11587" lon="4.8975">
        <ele>199.68699645996</ele>
        <time>2009-11-18T15:43:37Z</time>
      </trkpt>
      <trkpt lat="45.11642" lon="4.89727">
        <ele>200.37600708008</ele>
        <time>2009-11-18T15:43:43Z</time>
      </trkpt>
      <trkpt lat="45.11647" lon="4.89723">
        <ele>200.39399719238</ele>
        <time>2009-11-18T15:43:44Z</time>
      </trkpt>
      <trkpt lat="45.11683" lon="4.89696">
        <ele>200.86099243164</ele>
        <time>2009-11-18T15:43:51Z</time>
      </trkpt>
      <trkpt lat="45.11703" lon="4.8968">
        <ele>201.13900756836</ele>
        <time>2009-11-18T15:43:55Z</time>
      </trkpt>
      <trkpt lat="45.11728" lon="4.8966">
        <ele>201.55299377441</ele>
        <time>2009-11-18T15:44:00Z</time>
      </trkpt>
      <trkpt lat="45.11779" lon="4.89619">
        <ele>202.39999389648</ele>
        <time>2009-11-18T15:44:10Z</time>
      </trkpt>
      <trkpt lat="45.11801" lon="4.89608">
        <ele>202.75199890137</ele>
        <time>2009-11-18T15:44:14Z</time>
      </trkpt>
      <trkpt lat="45.1183" lon="4.89611">
        <ele>203.37300109863</ele>
        <time>2009-11-18T15:44:19Z</time>
      </trkpt>
      <trkpt lat="45.11841" lon="4.89615">
        <ele>203.68499755859</ele>
        <time>2009-11-18T15:44:21Z</time>
      </trkpt>
      <trkpt lat="45.11863" lon="4.89627">
        <ele>203.68499755859</ele>
        <time>2009-11-18T15:44:25Z</time>
      </trkpt>
      <trkpt lat="45.11884" lon="4.89642">
        <ele>203.69900512695</ele>
        <time>2009-11-18T15:44:29Z</time>
      </trkpt>
      <trkpt lat="45.11879" lon="4.8966">
        <ele>203.5950012207</ele>
        <time>2009-11-18T15:44:30Z</time>
      </trkpt>
      <trkpt lat="45.11882" lon="4.89744">
        <ele>202.95100402832</ele>
        <time>2009-11-18T15:44:39Z</time>
      </trkpt>
      <trkpt lat="45.11882" lon="4.89754">
        <ele>202.61999511719</ele>
        <time>2009-11-18T15:44:40Z</time>
      </trkpt>
      <trkpt lat="45.11897" lon="4.89805">
        <ele>201.36599731445</ele>
        <time>2009-11-18T15:44:45Z</time>
      </trkpt>
      <trkpt lat="45.11901" lon="4.89814">
        <ele>200.98199462891</ele>
        <time>2009-11-18T15:44:46Z</time>
      </trkpt>
      <trkpt lat="45.11934" lon="4.89885">
        <ele>199.94000244141</ele>
        <time>2009-11-18T15:44:53Z</time>
      </trkpt>
      <trkpt lat="45.11952" lon="4.8993">
        <ele>199.51100158691</ele>
        <time>2009-11-18T15:45:00Z</time>
      </trkpt>
      <trkpt lat="45.11952" lon="4.8993">
        <ele>199.78500366211</ele>
        <time>2009-11-18T15:45:04Z</time>
      </trkpt>
      <trkpt lat="45.11995" lon="4.90047">
        <ele>200.41200256348</ele>
        <time>2009-11-18T15:45:09Z</time>
      </trkpt>
      <trkpt lat="45.12008" lon="4.90078">
        <ele>200.88200378418</ele>
        <time>2009-11-18T15:45:13Z</time>
      </trkpt>
      <trkpt lat="45.12011" lon="4.90118">
        <ele>201.61799621582</ele>
        <time>2009-11-18T15:45:18Z</time>
      </trkpt>
      <trkpt lat="45.12" lon="4.90146">
        <ele>202.12300109863</ele>
        <time>2009-11-18T15:45:22Z</time>
      </trkpt>
      <trkpt lat="45.11992" lon="4.90157">
        <ele>202.31100463867</ele>
        <time>2009-11-18T15:45:24Z</time>
      </trkpt>
      <trkpt lat="45.11945" lon="4.90202">
        <ele>202.60000610352</ele>
        <time>2009-11-18T15:45:33Z</time>
      </trkpt>
      <trkpt lat="45.11916" lon="4.90227">
        <ele>202.63400268555</ele>
        <time>2009-11-18T15:45:38Z</time>
      </trkpt>
      <trkpt lat="45.11867" lon="4.90264">
        <ele>203.0299987793</ele>
        <time>2009-11-18T15:45:46Z</time>
      </trkpt>
      <trkpt lat="45.11819" lon="4.90297">
        <ele>203.52600097656</ele>
        <time>2009-11-18T15:45:54Z</time>
      </trkpt>
      <trkpt lat="45.11766" lon="4.90331">
        <ele>203.94099426269</ele>
        <time>2009-11-18T15:46:03Z</time>
      </trkpt>
      <trkpt lat="45.11733" lon="4.90357">
        <ele>204.64199829102</ele>
        <time>2009-11-18T15:46:09Z</time>
      </trkpt>
      <trkpt lat="45.11728" lon="4.90362">
        <ele>204.78799438477</ele>
        <time>2009-11-18T15:46:10Z</time>
      </trkpt>
      <trkpt lat="45.11683" lon="4.90426">
        <ele>205.52600097656</ele>
        <time>2009-11-18T15:46:15Z</time>
      </trkpt>
      <trkpt lat="45.11684" lon="4.90429">
        <ele>205.85099792481</ele>
        <time>2009-11-18T15:46:16Z</time>
      </trkpt>
      <trkpt lat="45.11694" lon="4.9046">
        <ele>207.00199890137</ele>
        <time>2009-11-18T15:46:23Z</time>
      </trkpt>
      <trkpt lat="45.11694" lon="4.90503">
        <ele>207.60699462891</ele>
        <time>2009-11-18T15:46:29Z</time>
      </trkpt>
      <trkpt lat="45.11694" lon="4.90528">
        <ele>208.18600463867</ele>
        <time>2009-11-18T15:46:33Z</time>
      </trkpt>
      <trkpt lat="45.1169" lon="4.90558">
        <ele>209.24000549316</ele>
        <time>2009-11-18T15:46:38Z</time>
      </trkpt>
      <trkpt lat="45.11681" lon="4.90624">
        <ele>210.79499816894</ele>
        <time>2009-11-18T15:46:47Z</time>
      </trkpt>
      <trkpt lat="45.11671" lon="4.90673">
        <ele>211.1309967041</ele>
        <time>2009-11-18T15:46:54Z</time>
      </trkpt>
      <trkpt lat="45.11669" lon="4.90681">
        <ele>211.17100524902</ele>
        <time>2009-11-18T15:46:57Z</time>
      </trkpt>
      <trkpt lat="45.11678" lon="4.90685">
        <ele>211.24699401856</ele>
        <time>2009-11-18T15:46:58Z</time>
      </trkpt>
      <trkpt lat="45.11693" lon="4.90711">
        <ele>211.21899414062</ele>
        <time>2009-11-18T15:47:02Z</time>
      </trkpt>
      <trkpt lat="45.11688" lon="4.90732">
        <ele>211.25799560547</ele>
        <time>2009-11-18T15:47:05Z</time>
      </trkpt>
      <trkpt lat="45.11679" lon="4.90763">
        <ele>211.30799865723</ele>
        <time>2009-11-18T15:47:09Z</time>
      </trkpt>
      <trkpt lat="45.11677" lon="4.90832">
        <ele>212.49299621582</ele>
        <time>2009-11-18T15:47:17Z</time>
      </trkpt>
      <trkpt lat="45.11677" lon="4.90887">
        <ele>213.97599792481</ele>
        <time>2009-11-18T15:47:24Z</time>
      </trkpt>
      <trkpt lat="45.11675" lon="4.90936">
        <ele>215.31799316406</ele>
        <time>2009-11-18T15:47:30Z</time>
      </trkpt>
      <trkpt lat="45.11665" lon="4.91003">
        <ele>215.63000488281</ele>
        <time>2009-11-18T15:47:38Z</time>
      </trkpt>
      <trkpt lat="45.1165" lon="4.91066">
        <ele>215.34399414062</ele>
        <time>2009-11-18T15:47:45Z</time>
      </trkpt>
      <trkpt lat="45.1163" lon="4.91145">
        <ele>215.13900756836</ele>
        <time>2009-11-18T15:47:53Z</time>
      </trkpt>
      <trkpt lat="45.11597" lon="4.91214">
        <ele>215.62399291992</ele>
        <time>2009-11-18T15:48:01Z</time>
      </trkpt>
      <trkpt lat="45.11582" lon="4.91246">
        <ele>215.80299377441</ele>
        <time>2009-11-18T15:48:05Z</time>
      </trkpt>
      <trkpt lat="45.11562" lon="4.9131">
        <ele>217.18600463867</ele>
        <time>2009-11-18T15:48:13Z</time>
      </trkpt>
      <trkpt lat="45.11553" lon="4.91373">
        <ele>215.8869934082</ele>
        <time>2009-11-18T15:48:20Z</time>
      </trkpt>
      <trkpt lat="45.11543" lon="4.91443">
        <ele>212.70799255371</ele>
        <time>2009-11-18T15:48:26Z</time>
      </trkpt>
      <trkpt lat="45.11531" lon="4.91524">
        <ele>210.27299499512</ele>
        <time>2009-11-18T15:48:32Z</time>
      </trkpt>
      <trkpt lat="45.11515" lon="4.91559">
        <ele>208.69999694824</ele>
        <time>2009-11-18T15:48:35Z</time>
      </trkpt>
      <trkpt lat="45.11488" lon="4.91617">
        <ele>207.68800354004</ele>
        <time>2009-11-18T15:48:40Z</time>
      </trkpt>
      <trkpt lat="45.11441" lon="4.91706">
        <ele>206.83599853516</ele>
        <time>2009-11-18T15:48:48Z</time>
      </trkpt>
      <trkpt lat="45.11389" lon="4.91804">
        <ele>205.2200012207</ele>
        <time>2009-11-18T15:48:57Z</time>
      </trkpt>
      <trkpt lat="45.11317" lon="4.91903">
        <ele>202.68699645996</ele>
        <time>2009-11-18T15:49:07Z</time>
      </trkpt>
      <trkpt lat="45.11256" lon="4.9198">
        <ele>201.30299377441</ele>
        <time>2009-11-18T15:49:15Z</time>
      </trkpt>
      <trkpt lat="45.11241" lon="4.91999">
        <ele>200.62899780273</ele>
        <time>2009-11-18T15:49:17Z</time>
      </trkpt>
      <trkpt lat="45.11217" lon="4.92042">
        <ele>199.88999938965</ele>
        <time>2009-11-18T15:49:21Z</time>
      </trkpt>
      <trkpt lat="45.11211" lon="4.92068">
        <ele>200.06700134277</ele>
        <time>2009-11-18T15:49:23Z</time>
      </trkpt>
      <trkpt lat="45.11191" lon="4.92171">
        <ele>199.35000610352</ele>
        <time>2009-11-18T15:49:31Z</time>
      </trkpt>
      <trkpt lat="45.11176" lon="4.92253">
        <ele>200.49600219727</ele>
        <time>2009-11-18T15:49:38Z</time>
      </trkpt>
      <trkpt lat="45.11175" lon="4.92264">
        <ele>200.52000427246</ele>
        <time>2009-11-18T15:49:39Z</time>
      </trkpt>
      <trkpt lat="45.11175" lon="4.92299">
        <ele>201.22200012207</ele>
        <time>2009-11-18T15:49:45Z</time>
      </trkpt>
      <trkpt lat="45.11173" lon="4.92371">
        <ele>201.36599731445</ele>
        <time>2009-11-18T15:49:50Z</time>
      </trkpt>
      <trkpt lat="45.11152" lon="4.92398">
        <ele>200.86500549316</ele>
        <time>2009-11-18T15:49:54Z</time>
      </trkpt>
      <trkpt lat="45.11094" lon="4.92455">
        <ele>200.47399902344</ele>
        <time>2009-11-18T15:50:03Z</time>
      </trkpt>
      <trkpt lat="45.11028" lon="4.92517">
        <ele>200.05900573731</ele>
        <time>2009-11-18T15:50:13Z</time>
      </trkpt>
      <trkpt lat="45.10998" lon="4.92546">
        <ele>199.74299621582</ele>
        <time>2009-11-18T15:50:18Z</time>
      </trkpt>
      <trkpt lat="45.10983" lon="4.9256">
        <ele>199.90199279785</ele>
        <time>2009-11-18T15:50:21Z</time>
      </trkpt>
      <trkpt lat="45.10989" lon="4.92586">
        <ele>200.22999572754</ele>
        <time>2009-11-18T15:50:24Z</time>
      </trkpt>
      <trkpt lat="45.10996" lon="4.92609">
        <ele>200.93699645996</ele>
        <time>2009-11-18T15:50:27Z</time>
      </trkpt>
      <trkpt lat="45.11016" lon="4.92677">
        <ele>202.79100036621</ele>
        <time>2009-11-18T15:50:36Z</time>
      </trkpt>
      <trkpt lat="45.11029" lon="4.92724">
        <ele>202.57000732422</ele>
        <time>2009-11-18T15:50:42Z</time>
      </trkpt>
      <trkpt lat="45.11052" lon="4.92821">
        <ele>202.46299743652</ele>
        <time>2009-11-18T15:50:53Z</time>
      </trkpt>
      <trkpt lat="45.11063" lon="4.92893">
        <ele>202.97399902344</ele>
        <time>2009-11-18T15:51:01Z</time>
      </trkpt>
      <trkpt lat="45.11084" lon="4.92978">
        <ele>203.57000732422</ele>
        <time>2009-11-18T15:51:11Z</time>
      </trkpt>
      <trkpt lat="45.11103" lon="4.93074">
        <ele>204.66999816894</ele>
        <time>2009-11-18T15:51:22Z</time>
      </trkpt>
      <trkpt lat="45.11118" lon="4.93145">
        <ele>204.98199462891</ele>
        <time>2009-11-18T15:51:30Z</time>
      </trkpt>
      <trkpt lat="45.11133" lon="4.93195">
        <ele>205.66000366211</ele>
        <time>2009-11-18T15:51:36Z</time>
      </trkpt>
      <trkpt lat="45.11152" lon="4.93248">
        <ele>206.79100036621</ele>
        <time>2009-11-18T15:51:43Z</time>
      </trkpt>
      <trkpt lat="45.11174" lon="4.93291">
        <ele>208.21600341797</ele>
        <time>2009-11-18T15:51:50Z</time>
      </trkpt>
      <trkpt lat="45.11198" lon="4.93338">
        <ele>209.84100341797</ele>
        <time>2009-11-18T15:51:58Z</time>
      </trkpt>
      <trkpt lat="45.11229" lon="4.93393">
        <ele>211.98399353027</ele>
        <time>2009-11-18T15:52:08Z</time>
      </trkpt>
      <trkpt lat="45.11258" lon="4.93434">
        <ele>214.33700561523</ele>
        <time>2009-11-18T15:52:17Z</time>
      </trkpt>
      <trkpt lat="45.1128" lon="4.93465">
        <ele>216.30000305176</ele>
        <time>2009-11-18T15:52:25Z</time>
      </trkpt>
      <trkpt lat="45.11298" lon="4.93492">
        <ele>217.72799682617</ele>
        <time>2009-11-18T15:52:32Z</time>
      </trkpt>
      <trkpt lat="45.11317" lon="4.93529">
        <ele>219.75799560547</ele>
        <time>2009-11-18T15:52:41Z</time>
      </trkpt>
      <trkpt lat="45.11336" lon="4.93562">
        <ele>220.86099243164</ele>
        <time>2009-11-18T15:52:49Z</time>
      </trkpt>
      <trkpt lat="45.11354" lon="4.93601">
        <ele>222.8630065918</ele>
        <time>2009-11-18T15:52:58Z</time>
      </trkpt>
      <trkpt lat="45.11368" lon="4.93641">
        <ele>224.05700683594</ele>
        <time>2009-11-18T15:53:06Z</time>
      </trkpt>
      <trkpt lat="45.11379" lon="4.93674">
        <ele>224.96299743652</ele>
        <time>2009-11-18T15:53:12Z</time>
      </trkpt>
      <trkpt lat="45.11389" lon="4.937">
        <ele>225.11599731445</ele>
        <time>2009-11-18T15:53:17Z</time>
      </trkpt>
      <trkpt lat="45.11394" lon="4.93715">
        <ele>224.61700439453</ele>
        <time>2009-11-18T15:53:25Z</time>
      </trkpt>
      <trkpt lat="45.11422" lon="4.93794">
        <ele>222.8809967041</ele>
        <time>2009-11-18T15:53:31Z</time>
      </trkpt>
      <trkpt lat="45.11428" lon="4.93814">
        <ele>220.4940032959</ele>
        <time>2009-11-18T15:53:36Z</time>
      </trkpt>
      <trkpt lat="45.11467" lon="4.93871">
        <ele>218.88200378418</ele>
        <time>2009-11-18T15:53:40Z</time>
      </trkpt>
      <trkpt lat="45.115" lon="4.93913">
        <ele>217.69700622559</ele>
        <time>2009-11-18T15:53:45Z</time>
      </trkpt>
      <trkpt lat="45.11519" lon="4.93937">
        <ele>217.10000610352</ele>
        <time>2009-11-18T15:53:48Z</time>
      </trkpt>
      <trkpt lat="45.11543" lon="4.9396">
        <ele>216.05900573731</ele>
        <time>2009-11-18T15:53:52Z</time>
      </trkpt>
      <trkpt lat="45.11556" lon="4.94031">
        <ele>215.54699707031</ele>
        <time>2009-11-18T15:53:58Z</time>
      </trkpt>
      <trkpt lat="45.11568" lon="4.94055">
        <ele>214.72599792481</ele>
        <time>2009-11-18T15:54:02Z</time>
      </trkpt>
      <trkpt lat="45.11569" lon="4.94057">
        <ele>214.24299621582</ele>
        <time>2009-11-18T15:54:03Z</time>
      </trkpt>
      <trkpt lat="45.1157" lon="4.94059">
        <ele>214.44299316406</ele>
        <time>2009-11-18T15:54:08Z</time>
      </trkpt>
      <trkpt lat="45.11599" lon="4.94077">
        <ele>214.93200683594</ele>
        <time>2009-11-18T15:54:12Z</time>
      </trkpt>
      <trkpt lat="45.11639" lon="4.94102">
        <ele>215.10200500488</ele>
        <time>2009-11-18T15:54:21Z</time>
      </trkpt>
      <trkpt lat="45.11652" lon="4.9411">
        <ele>215.49600219727</ele>
        <time>2009-11-18T15:54:24Z</time>
      </trkpt>
      <trkpt lat="45.11652" lon="4.9411">
        <ele>215.94099426269</ele>
        <time>2009-11-18T15:54:28Z</time>
      </trkpt>
      <trkpt lat="45.11657" lon="4.9416">
        <ele>215.70700073242</ele>
        <time>2009-11-18T15:54:32Z</time>
      </trkpt>
      <trkpt lat="45.11657" lon="4.94167">
        <ele>215.83000183106</ele>
        <time>2009-11-18T15:54:33Z</time>
      </trkpt>
      <trkpt lat="45.11654" lon="4.94213">
        <ele>215.61799621582</ele>
        <time>2009-11-18T15:54:39Z</time>
      </trkpt>
      <trkpt lat="45.11652" lon="4.94252">
        <ele>216.13800048828</ele>
        <time>2009-11-18T15:54:47Z</time>
      </trkpt>
      <trkpt lat="45.11657" lon="4.94331">
        <ele>216.85800170898</ele>
        <time>2009-11-18T15:54:54Z</time>
      </trkpt>
      <trkpt lat="45.11666" lon="4.94381">
        <ele>218.23699951172</ele>
        <time>2009-11-18T15:55:01Z</time>
      </trkpt>
      <trkpt lat="45.11671" lon="4.94417">
        <ele>220.37199401856</ele>
        <time>2009-11-18T15:55:07Z</time>
      </trkpt>
      <trkpt lat="45.11673" lon="4.94426">
        <ele>221.09399414062</ele>
        <time>2009-11-18T15:55:09Z</time>
      </trkpt>
      <trkpt lat="45.11666" lon="4.94431">
        <ele>221.72300720215</ele>
        <time>2009-11-18T15:55:14Z</time>
      </trkpt>
      <trkpt lat="45.11657" lon="4.94436">
        <ele>222.17999267578</ele>
        <time>2009-11-18T15:55:18Z</time>
      </trkpt>
      <trkpt lat="45.1165" lon="4.94439">
        <ele>222.76600646973</ele>
        <time>2009-11-18T15:55:23Z</time>
      </trkpt>
      <trkpt lat="45.11637" lon="4.94446">
        <ele>224.10600280762</ele>
        <time>2009-11-18T15:55:27Z</time>
      </trkpt>
      <trkpt lat="45.11617" lon="4.94459">
        <ele>225.5890045166</ele>
        <time>2009-11-18T15:55:33Z</time>
      </trkpt>
      <trkpt lat="45.11601" lon="4.94474">
        <ele>226.92300415039</ele>
        <time>2009-11-18T15:55:38Z</time>
      </trkpt>
      <trkpt lat="45.1158" lon="4.94501">
        <ele>229.10099792481</ele>
        <time>2009-11-18T15:55:46Z</time>
      </trkpt>
      <trkpt lat="45.11565" lon="4.94525">
        <ele>230.07800292969</ele>
        <time>2009-11-18T15:55:52Z</time>
      </trkpt>
      <trkpt lat="45.1156" lon="4.94552">
        <ele>230.88800048828</ele>
        <time>2009-11-18T15:55:57Z</time>
      </trkpt>
      <trkpt lat="45.11558" lon="4.94595">
        <ele>231.57600402832</ele>
        <time>2009-11-18T15:56:04Z</time>
      </trkpt>
      <trkpt lat="45.11557" lon="4.94607">
        <ele>231.50700378418</ele>
        <time>2009-11-18T15:56:06Z</time>
      </trkpt>
      <trkpt lat="45.11556" lon="4.94634">
        <ele>232.07899475098</ele>
        <time>2009-11-18T15:56:10Z</time>
      </trkpt>
      <trkpt lat="45.11557" lon="4.94697">
        <ele>232.65600585938</ele>
        <time>2009-11-18T15:56:19Z</time>
      </trkpt>
      <trkpt lat="45.11557" lon="4.94745">
        <ele>233.43600463867</ele>
        <time>2009-11-18T15:56:26Z</time>
      </trkpt>
      <trkpt lat="45.11565" lon="4.94787">
        <ele>234.24099731445</ele>
        <time>2009-11-18T15:56:32Z</time>
      </trkpt>
      <trkpt lat="45.11574" lon="4.9484">
        <ele>234.92500305176</ele>
        <time>2009-11-18T15:56:40Z</time>
      </trkpt>
      <trkpt lat="45.11582" lon="4.94886">
        <ele>234.93400573731</ele>
        <time>2009-11-18T15:56:47Z</time>
      </trkpt>
      <trkpt lat="45.11587" lon="4.94906">
        <ele>236.82000732422</ele>
        <time>2009-11-18T15:56:50Z</time>
      </trkpt>
      <trkpt lat="45.11599" lon="4.94957">
        <ele>236.89500427246</ele>
        <time>2009-11-18T15:56:57Z</time>
      </trkpt>
      <trkpt lat="45.11618" lon="4.95002">
        <ele>236.89799499512</ele>
        <time>2009-11-18T15:57:03Z</time>
      </trkpt>
      <trkpt lat="45.11638" lon="4.95049">
        <ele>236.14999389648</ele>
        <time>2009-11-18T15:57:09Z</time>
      </trkpt>
      <trkpt lat="45.11664" lon="4.9511">
        <ele>235.05999755859</ele>
        <time>2009-11-18T15:57:16Z</time>
      </trkpt>
      <trkpt lat="45.11682" lon="4.95172">
        <ele>233.87899780273</ele>
        <time>2009-11-18T15:57:22Z</time>
      </trkpt>
      <trkpt lat="45.11694" lon="4.95214">
        <ele>233.625</ele>
        <time>2009-11-18T15:57:26Z</time>
      </trkpt>
      <trkpt lat="45.1171" lon="4.95249">
        <ele>232.27900695801</ele>
        <time>2009-11-18T15:57:30Z</time>
      </trkpt>
      <trkpt lat="45.11718" lon="4.95269">
        <ele>231.27099609375</ele>
        <time>2009-11-18T15:57:32Z</time>
      </trkpt>
      <trkpt lat="45.11723" lon="4.95313">
        <ele>229.0119934082</ele>
        <time>2009-11-18T15:57:36Z</time>
      </trkpt>
      <trkpt lat="45.11718" lon="4.9535">
        <ele>227.60299682617</ele>
        <time>2009-11-18T15:57:39Z</time>
      </trkpt>
      <trkpt lat="45.11719" lon="4.95391">
        <ele>225.04800415039</ele>
        <time>2009-11-18T15:57:42Z</time>
      </trkpt>
      <trkpt lat="45.11732" lon="4.95411">
        <ele>223.77900695801</ele>
        <time>2009-11-18T15:57:44Z</time>
      </trkpt>
      <trkpt lat="45.11762" lon="4.95424">
        <ele>220.60600280762</ele>
        <time>2009-11-18T15:57:47Z</time>
      </trkpt>
      <trkpt lat="45.11816" lon="4.95449">
        <ele>216.80599975586</ele>
        <time>2009-11-18T15:57:52Z</time>
      </trkpt>
      <trkpt lat="45.1183" lon="4.95468">
        <ele>215.17100524902</ele>
        <time>2009-11-18T15:57:54Z</time>
      </trkpt>
      <trkpt lat="45.1183" lon="4.95483">
        <ele>215.35600280762</ele>
        <time>2009-11-18T15:57:55Z</time>
      </trkpt>
      <trkpt lat="45.11824" lon="4.95506">
        <ele>216.09700012207</ele>
        <time>2009-11-18T15:57:57Z</time>
      </trkpt>
      <trkpt lat="45.11818" lon="4.95516">
        <ele>216.45700073242</ele>
        <time>2009-11-18T15:57:58Z</time>
      </trkpt>
      <trkpt lat="45.11802" lon="4.95545">
        <ele>218.7559967041</ele>
        <time>2009-11-18T15:58:02Z</time>
      </trkpt>
      <trkpt lat="45.11798" lon="4.95562">
        <ele>219.76400756836</ele>
        <time>2009-11-18T15:58:05Z</time>
      </trkpt>
      <trkpt lat="45.11801" lon="4.95598">
        <ele>221.80700683594</ele>
        <time>2009-11-18T15:58:12Z</time>
      </trkpt>
      <trkpt lat="45.11797" lon="4.95614">
        <ele>222.84199523926</ele>
        <time>2009-11-18T15:58:16Z</time>
      </trkpt>
      <trkpt lat="45.11787" lon="4.95623">
        <ele>224.32099914551</ele>
        <time>2009-11-18T15:58:20Z</time>
      </trkpt>
      <trkpt lat="45.11769" lon="4.95629">
        <ele>225.89300537109</ele>
        <time>2009-11-18T15:58:26Z</time>
      </trkpt>
      <trkpt lat="45.11752" lon="4.95641">
        <ele>227.33099365234</ele>
        <time>2009-11-18T15:58:32Z</time>
      </trkpt>
      <trkpt lat="45.11746" lon="4.95662">
        <ele>228.69999694824</ele>
        <time>2009-11-18T15:58:37Z</time>
      </trkpt>
      <trkpt lat="45.11744" lon="4.95701">
        <ele>230.60099792481</ele>
        <time>2009-11-18T15:58:45Z</time>
      </trkpt>
      <trkpt lat="45.11743" lon="4.95743">
        <ele>233.1369934082</ele>
        <time>2009-11-18T15:58:54Z</time>
      </trkpt>
      <trkpt lat="45.11742" lon="4.95773">
        <ele>234.08799743652</ele>
        <time>2009-11-18T15:59:00Z</time>
      </trkpt>
      <trkpt lat="45.11746" lon="4.95802">
        <ele>234.4940032959</ele>
        <time>2009-11-18T15:59:06Z</time>
      </trkpt>
      <trkpt lat="45.11752" lon="4.9583">
        <ele>234.46600341797</ele>
        <time>2009-11-18T15:59:11Z</time>
      </trkpt>
      <trkpt lat="45.11761" lon="4.95876">
        <ele>233.45100402832</ele>
        <time>2009-11-18T15:59:18Z</time>
      </trkpt>
      <trkpt lat="45.11766" lon="4.95899">
        <ele>232.39399719238</ele>
        <time>2009-11-18T15:59:21Z</time>
      </trkpt>
      <trkpt lat="45.11768" lon="4.95907">
        <ele>232.08299255371</ele>
        <time>2009-11-18T15:59:22Z</time>
      </trkpt>
      <trkpt lat="45.11772" lon="4.95929">
        <ele>230.90199279785</ele>
        <time>2009-11-18T15:59:26Z</time>
      </trkpt>
      <trkpt lat="45.11765" lon="4.95922">
        <ele>231.34399414062</ele>
        <time>2009-11-18T15:59:29Z</time>
      </trkpt>
      <trkpt lat="45.11729" lon="4.95901">
        <ele>233.22200012207</ele>
        <time>2009-11-18T15:59:37Z</time>
      </trkpt>
      <trkpt lat="45.11693" lon="4.9588">
        <ele>235.51100158691</ele>
        <time>2009-11-18T15:59:44Z</time>
      </trkpt>
      <trkpt lat="45.11676" lon="4.95869">
        <ele>236.6549987793</ele>
        <time>2009-11-18T15:59:48Z</time>
      </trkpt>
      <trkpt lat="45.11664" lon="4.9589">
        <ele>236.64799499512</ele>
        <time>2009-11-18T15:59:50Z</time>
      </trkpt>
      <trkpt lat="45.11654" lon="4.95935">
        <ele>235.81599426269</ele>
        <time>2009-11-18T15:59:56Z</time>
      </trkpt>
      <trkpt lat="45.11636" lon="4.95992">
        <ele>232.15899658203</ele>
        <time>2009-11-18T16:00:02Z</time>
      </trkpt>
      <trkpt lat="45.11618" lon="4.96055">
        <ele>227.97700500488</ele>
        <time>2009-11-18T16:00:07Z</time>
      </trkpt>
      <trkpt lat="45.116" lon="4.96128">
        <ele>224.39700317383</ele>
        <time>2009-11-18T16:00:12Z</time>
      </trkpt>
      <trkpt lat="45.11585" lon="4.96167">
        <ele>222.85299682617</ele>
        <time>2009-11-18T16:00:15Z</time>
      </trkpt>
      <trkpt lat="45.11554" lon="4.96178">
        <ele>221.67300415039</ele>
        <time>2009-11-18T16:00:18Z</time>
      </trkpt>
      <trkpt lat="45.11524" lon="4.96183">
        <ele>219.23199462891</ele>
        <time>2009-11-18T16:00:22Z</time>
      </trkpt>
      <trkpt lat="45.11525" lon="4.96204">
        <ele>217.82299804688</ele>
        <time>2009-11-18T16:00:24Z</time>
      </trkpt>
      <trkpt lat="45.11542" lon="4.96224">
        <ele>215.32000732422</ele>
        <time>2009-11-18T16:00:27Z</time>
      </trkpt>
      <trkpt lat="45.11555" lon="4.9624">
        <ele>213.69000244141</ele>
        <time>2009-11-18T16:00:29Z</time>
      </trkpt>
      <trkpt lat="45.11566" lon="4.96252">
        <ele>209.81399536133</ele>
        <time>2009-11-18T16:00:32Z</time>
      </trkpt>
      <trkpt lat="45.11577" lon="4.96287">
        <ele>207.97999572754</ele>
        <time>2009-11-18T16:00:33Z</time>
      </trkpt>
      <trkpt lat="45.11582" lon="4.96375">
        <ele>202.82899475098</ele>
        <time>2009-11-18T16:00:38Z</time>
      </trkpt>
      <trkpt lat="45.11581" lon="4.96439">
        <ele>199.68600463867</ele>
        <time>2009-11-18T16:00:42Z</time>
      </trkpt>
      <trkpt lat="45.11559" lon="4.96473">
        <ele>199.05999755859</ele>
        <time>2009-11-18T16:00:46Z</time>
      </trkpt>
      <trkpt lat="45.11559" lon="4.96473">
        <ele>199.19099426269</ele>
        <time>2009-11-18T16:00:48Z</time>
      </trkpt>
      <trkpt lat="45.11581" lon="4.96453">
        <ele>198.75199890137</ele>
        <time>2009-11-18T16:01:09Z</time>
      </trkpt>
      <trkpt lat="45.11553" lon="4.96463">
        <ele>198.64700317383</ele>
        <time>2009-11-18T16:01:13Z</time>
      </trkpt>
      <trkpt lat="45.11545" lon="4.96452">
        <ele>199.35699462891</ele>
        <time>2009-11-18T16:01:16Z</time>
      </trkpt>
      <trkpt lat="45.11567" lon="4.96425">
        <ele>199.44999694824</ele>
        <time>2009-11-18T16:01:19Z</time>
      </trkpt>
      <trkpt lat="45.11546" lon="4.96453">
        <ele>199.52000427246</ele>
        <time>2009-11-18T16:01:22Z</time>
      </trkpt>
    </trkseg>
  </trk>
</gpx>